[[{"header":{"parameterUnit":"m.s-1","parameterCategory":1,"la1":30.6,"la2":29.2853,"lo1":-89.7004,"lo2":-87.6739,"dy":0.0162,"dx":0.0183,"nx":112,"ny":82,"refTime":"2026-04-01T12:00:00:Z","depth":0,"parameterNumber":2,"parameterNumberName":"U-component_of_WINDS"},"data":[0.0,0.0,0.0,0.0,0.0,0.0,0.0,0.0,0.0,0.0,0.0,0.0,0.0,0.0,0.0,0.0,0.0,0.0,0.0,0.0,0.0,0.0,0.0,0.0,0.0,0.0,0.0,0.0,0.0,0.0,0.0,0.0,0.0,0.0,0.0,0.0,0.0,0.0,0.0,0.0,0.0,0.0,0.0,0.0,0.0,0.0,0.0,0.0,0.0,0.0,0.0,0.0,0.0,0.0,0.0,0.0,0.0,0.0,0.0,0.0,0.0,0.0,0.0,0.0,0.0,0.0,0.0,0.0,0.0,0.0,0.0,0.0,0.0,0.0,0.0,0.0,0.0,0.0,0.0,0.0,0.0,0.0,0.0,0.0,0.0,0.0,0.0,0.0,0.0,0.0,0.0,7.6017,8.5445,9.0071,8.7637,8.4611,8.0036,7.3504,0.0,0.0,0.0,0.0,0.0,0.0,0.0,0.0,0.0,0.0,0.0,0.0,0.0,0.0,0.0,0.0,0.0,0.0,0.0,0.0,0.0,0.0,0.0,0.0,0.0,0.0,0.0,0.0,0.0,0.0,0.0,0.0,0.0,0.0,0.0,0.0,0.0,0.0,0.0,0.0,0.0,0.0,0.0,0.0,0.0,0.0,0.0,0.0,0.0,0.0,0.0,0.0,0.0,0.0,0.0,0.0,0.0,0.0,0.0,0.0,0.0,0.0,0.0,0.0,0.0,0.0,0.0,0.0,0.0,0.0,0.0,0.0,0.0,0.0,0.0,0.0,0.0,0.0,0.0,0.0,0.0,0.0,0.0,0.0,0.0,0.0,0.0,0.0,0.0,0.0,0.0,0.0,0.0,0.0,0.0,0.0,0.0,0.0,0.0,0.0,0.0,0.0,0.0,0.0,7.0683,8.3069,8.9945,9.2373,8.9238,8.6577,8.1822,7.407,0.0,0.0,0.0,0.0,0.0,0.0,0.0,0.0,0.0,0.0,0.0,0.0,0.0,0.0,0.0,0.0,0.0,0.0,0.0,0.0,0.0,0.0,0.0,0.0,0.0,0.0,0.0,0.0,0.0,0.0,0.0,0.0,0.0,0.0,0.0,0.0,0.0,0.0,0.0,0.0,0.0,0.0,0.0,0.0,0.0,0.0,0.0,0.0,0.0,0.0,0.0,0.0,0.0,0.0,0.0,0.0,0.0,0.0,0.0,0.0,0.0,0.0,0.0,0.0,0.0,0.0,0.0,0.0,0.0,0.0,0.0,0.0,0.0,0.0,0.0,0.0,0.0,0.0,0.0,0.0,0.0,0.0,0.0,0.0,0.0,0.0,0.0,0.0,0.0,0.0,0.0,0.0,0.0,0.0,0.0,0.0,0.0,0.0,0.0,0.0,0.0,0.0,0.0,7.2355,8.0389,8.7168,9.166,9.2691,8.8983,8.5974,8.0844,7.2789,6.409,0.0,0.0,0.0,0.0,0.0,0.0,0.0,0.0,0.0,0.0,0.0,0.0,0.0,0.0,0.0,0.0,0.0,0.0,0.0,0.0,0.0,0.0,0.0,0.0,0.0,0.0,0.0,0.0,0.0,0.0,0.0,0.0,0.0,0.0,0.0,0.0,0.0,0.0,0.0,0.0,0.0,0.0,0.0,0.0,0.0,0.0,0.0,0.0,0.0,0.0,0.0,0.0,0.0,0.0,0.0,0.0,0.0,0.0,0.0,0.0,0.0,0.0,0.0,0.0,0.0,0.0,0.0,0.0,0.0,0.0,0.0,0.0,0.0,0.0,0.0,0.0,0.0,0.0,0.0,0.0,0.0,0.0,0.0,0.0,0.0,0.0,0.0,0.0,0.0,0.0,0.0,0.0,0.0,0.0,0.0,0.0,0.0,0.0,0.0,0.0,0.0,0.0,8.2172,8.8718,8.99,9.269,9.2587,8.7906,8.4317,7.884,7.0679,6.2475,0.0,0.0,0.0,0.0,0.0,0.0,0.0,0.0,0.0,0.0,0.0,0.0,0.0,0.0,0.0,0.0,0.0,0.0,0.0,0.0,0.0,0.0,0.0,0.0,0.0,0.0,0.0,0.0,0.0,0.0,0.0,0.0,0.0,0.0,0.0,0.0,0.0,0.0,0.0,0.0,0.0,0.0,0.0,0.0,0.0,0.0,0.0,0.0,0.0,0.0,0.0,0.0,0.0,0.0,0.0,0.0,0.0,0.0,0.0,0.0,0.0,0.0,0.0,0.0,0.0,0.0,0.0,0.0,0.0,0.0,0.0,0.0,0.0,0.0,0.0,0.0,0.0,0.0,0.0,0.0,0.0,0.0,0.0,0.0,0.0,0.0,0.0,0.0,0.0,0.0,0.0,0.0,0.0,0.0,0.0,0.0,0.0,0.0,0.0,0.0,0.0,0.0,8.5328,9.1415,9.1518,9.3813,9.2728,8.6308,8.2022,7.6141,6.7901,5.9695,0.0,0.0,0.0,0.0,0.0,0.0,0.0,0.0,0.0,0.0,0.0,0.0,0.0,0.0,0.0,0.0,0.0,0.0,0.0,0.0,0.0,0.0,0.0,0.0,0.0,0.0,0.0,0.0,0.0,0.0,0.0,0.0,0.0,0.0,0.0,0.0,0.0,0.0,0.0,0.0,0.0,0.0,0.0,0.0,0.0,0.0,0.0,0.0,0.0,0.0,0.0,0.0,0.0,0.0,0.0,0.0,0.0,0.0,0.0,0.0,0.0,0.0,0.0,0.0,0.0,0.0,0.0,0.0,0.0,0.0,0.0,0.0,0.0,0.0,0.0,0.0,0.0,0.0,0.0,0.0,0.0,0.0,0.0,0.0,0.0,0.0,0.0,0.0,0.0,0.0,0.0,0.0,0.0,0.0,0.0,0.0,0.0,0.0,0.0,0.0,0.0,0.0,8.642,9.2691,0.0,9.4548,9.2909,8.6763,8.1978,7.5583,6.6772,0.0,0.0,0.0,0.0,0.0,0.0,0.0,0.0,0.0,0.0,0.0,0.0,0.0,0.0,0.0,0.0,0.0,0.0,0.0,0.0,0.0,0.0,0.0,0.0,0.0,0.0,0.0,0.0,0.0,0.0,0.0,0.0,0.0,0.0,0.0,0.0,0.0,0.0,0.0,0.0,0.0,0.0,0.0,0.0,0.0,0.0,0.0,0.0,0.0,0.0,0.0,0.0,0.0,0.0,0.0,0.0,0.0,0.0,0.0,0.0,0.0,0.0,0.0,0.0,0.0,0.0,0.0,0.0,0.0,0.0,0.0,0.0,0.0,0.0,0.0,0.0,0.0,0.0,0.0,0.0,0.0,0.0,0.0,0.0,0.0,0.0,0.0,0.0,0.0,0.0,0.0,0.0,0.0,0.0,0.0,0.0,0.0,0.0,0.0,0.0,0.0,0.0,7.725,8.6849,9.3194,0.0,9.4998,9.3105,8.7026,8.2213,7.5638,6.6579,0.0,0.0,0.0,0.0,0.0,0.0,0.0,0.0,0.0,0.0,0.0,0.0,0.0,0.0,0.0,0.0,0.0,0.0,0.0,0.0,0.0,0.0,0.0,0.0,0.0,0.0,0.0,0.0,0.0,0.0,0.0,0.0,0.0,0.0,0.0,0.0,0.0,0.0,0.0,0.0,0.0,0.0,0.0,0.0,0.0,0.0,0.0,0.0,0.0,0.0,0.0,0.0,0.0,0.0,0.0,0.0,0.0,0.0,0.0,0.0,0.0,0.0,0.0,0.0,0.0,0.0,0.0,0.0,0.0,0.0,0.0,0.0,0.0,0.0,0.0,0.0,0.0,0.0,0.0,0.0,0.0,0.0,0.0,0.0,0.0,0.0,0.0,0.0,0.0,0.0,0.0,0.0,0.0,0.0,0.0,0.0,0.0,0.0,0.0,0.0,0.0,0.0,7.7243,8.6732,9.3029,9.3806,9.5158,9.3389,8.6919,8.2489,7.6251,0.0,0.0,0.0,0.0,0.0,0.0,0.0,0.0,0.0,0.0,0.0,0.0,0.0,0.0,0.0,0.0,0.0,0.0,0.0,0.0,0.0,0.0,0.0,0.0,0.0,0.0,0.0,0.0,0.0,0.0,0.0,0.0,0.0,0.0,0.0,0.0,0.0,0.0,0.0,0.0,0.0,0.0,0.0,0.0,0.0,0.0,0.0,0.0,0.0,0.0,0.0,0.0,0.0,0.0,0.0,0.0,0.0,0.0,0.0,0.0,0.0,0.0,0.0,0.0,0.0,0.0,0.0,0.0,0.0,0.0,0.0,0.0,0.0,0.0,0.0,0.0,0.0,0.0,0.0,0.0,0.0,0.0,0.0,0.0,0.0,0.0,0.0,0.0,0.0,0.0,0.0,0.0,0.0,0.0,0.0,0.0,0.0,0.0,0.0,0.0,0.0,0.0,0.0,7.704,8.6653,9.3162,9.4401,9.5419,9.4231,8.9912,8.5808,7.9578,7.0503,0.0,0.0,0.0,0.0,0.0,0.0,0.0,0.0,0.0,0.0,0.0,0.0,0.0,0.0,0.0,0.0,0.0,0.0,0.0,0.0,0.0,0.0,0.0,0.0,0.0,0.0,0.0,0.0,0.0,0.0,0.0,0.0,0.0,0.0,0.0,0.0,0.0,0.0,0.0,0.0,0.0,0.0,0.0,0.0,0.0,0.0,0.0,0.0,0.0,0.0,0.0,0.0,0.0,0.0,0.0,0.0,0.0,0.0,0.0,0.0,0.0,0.0,0.0,0.0,0.0,0.0,0.0,0.0,0.0,0.0,0.0,0.0,0.0,0.0,0.0,0.0,0.0,0.0,0.0,0.0,0.0,0.0,0.0,0.0,0.0,0.0,0.0,0.0,0.0,0.0,0.0,0.0,0.0,0.0,0.0,0.0,0.0,0.0,0.0,0.0,0.0,0.0,7.7875,8.741,9.3878,9.5063,9.6133,9.5415,9.2076,8.8932,8.319,7.3817,0.0,0.0,0.0,0.0,0.0,0.0,0.0,0.0,0.0,0.0,0.0,0.0,0.0,0.0,0.0,0.0,0.0,0.0,0.0,0.0,0.0,0.0,0.0,0.0,0.0,0.0,0.0,0.0,0.0,0.0,0.0,0.0,0.0,0.0,0.0,0.0,0.0,0.0,0.0,0.0,0.0,0.0,0.0,0.0,0.0,0.0,0.0,0.0,0.0,0.0,0.0,0.0,0.0,0.0,0.0,0.0,0.0,0.0,0.0,0.0,0.0,0.0,0.0,0.0,0.0,0.0,0.0,0.0,0.0,0.0,0.0,0.0,0.0,0.0,0.0,0.0,0.0,0.0,0.0,0.0,0.0,0.0,0.0,0.0,0.0,0.0,0.0,0.0,0.0,0.0,0.0,0.0,0.0,0.0,0.0,0.0,0.0,0.0,0.0,0.0,0.0,0.0,7.9224,8.8644,9.4844,9.5681,9.7057,9.6622,9.3492,9.1647,8.6628,7.7047,0.0,0.0,0.0,0.0,0.0,0.0,0.0,0.0,0.0,0.0,0.0,0.0,0.0,0.0,0.0,0.0,0.0,0.0,0.0,0.0,0.0,0.0,0.0,0.0,0.0,0.0,0.0,0.0,0.0,0.0,0.0,0.0,0.0,0.0,0.0,0.0,0.0,0.0,0.0,0.0,0.0,0.0,0.0,0.0,0.0,0.0,0.0,0.0,0.0,0.0,0.0,0.0,0.0,0.0,0.0,0.0,0.0,0.0,0.0,0.0,5.5319,0.0,0.0,0.0,0.0,0.0,0.0,0.0,0.0,0.0,0.0,0.0,0.0,0.0,0.0,0.0,0.0,0.0,0.0,0.0,0.0,0.0,0.0,0.0,0.0,0.0,0.0,0.0,0.0,0.0,0.0,0.0,0.0,0.0,0.0,0.0,0.0,0.0,0.0,0.0,0.0,0.0,7.9091,8.8605,9.478,9.5476,9.6971,9.6842,9.4272,9.2501,8.7958,7.9551,0.0,0.0,0.0,0.0,0.0,0.0,0.0,0.0,0.0,0.0,0.0,0.0,0.0,0.0,0.0,0.0,0.0,0.0,0.0,0.0,0.0,0.0,0.0,0.0,0.0,0.0,0.0,0.0,0.0,0.0,0.0,0.0,0.0,0.0,0.0,0.0,0.0,0.0,0.0,0.0,0.0,0.0,0.0,0.0,0.0,0.0,0.0,0.0,0.0,0.0,0.0,0.0,0.0,0.0,0.0,0.0,0.0,0.0,0.0,0.0,0.0,5.8665,0.0,0.0,0.0,0.0,0.0,0.0,0.0,0.0,0.0,0.0,0.0,0.0,0.0,0.0,0.0,0.0,0.0,0.0,0.0,0.0,0.0,0.0,0.0,0.0,0.0,0.0,0.0,0.0,0.0,0.0,0.0,0.0,0.0,0.0,0.0,0.0,0.0,0.0,0.0,0.0,8.0146,8.9681,9.5688,9.6034,9.753,9.7346,9.4529,9.3161,8.9124,8.1423,7.5175,0.0,0.0,0.0,0.0,0.0,0.0,0.0,0.0,0.0,0.0,0.0,0.0,0.0,0.0,0.0,0.0,0.0,0.0,0.0,0.0,0.0,0.0,0.0,0.0,0.0,0.0,0.0,0.0,0.0,0.0,0.0,0.0,0.0,0.0,0.0,0.0,0.0,0.0,0.0,0.0,0.0,0.0,0.0,0.0,0.0,0.0,0.0,0.0,0.0,0.0,0.0,0.0,0.0,6.9895,7.1158,7.2725,7.2937,7.3747,7.4699,7.0258,6.6918,6.4706,6.4976,0.0,0.0,0.0,0.0,0.0,0.0,0.0,0.0,0.0,0.0,0.0,0.0,0.0,0.0,0.0,0.0,0.0,0.0,0.0,0.0,0.0,0.0,0.0,0.0,7.434,7.3733,0.0,0.0,0.0,0.0,0.0,0.0,0.0,0.0,0.0,0.0,0.0,0.0,8.1538,9.09,9.6685,9.6685,9.8144,9.785,9.4777,9.3639,9.0225,8.3471,7.8434,7.2298,0.0,0.0,0.0,0.0,0.0,0.0,0.0,0.0,0.0,0.0,0.0,0.0,0.0,0.0,0.0,0.0,0.0,0.0,0.0,0.0,0.0,0.0,0.0,0.0,0.0,0.0,0.0,0.0,0.0,0.0,0.0,0.0,5.0168,5.1943,0.0,0.0,0.0,0.0,0.0,0.0,0.0,0.0,0.0,0.0,0.0,0.0,0.0,6.7551,7.0761,7.2803,7.5009,7.7368,7.8502,7.9507,8.04,8.1497,8.23,8.2827,8.3238,0.0,7.1458,7.2032,0.0,0.0,0.0,0.0,0.0,0.0,0.0,0.0,0.0,0.0,0.0,0.0,0.0,0.0,0.0,0.0,0.0,0.0,0.0,0.0,0.0,0.0,8.1452,8.1356,8.3012,8.3922,0.0,7.4846,6.8412,6.4992,6.1795,0.0,0.0,0.0,0.0,0.0,0.0,0.0,8.231,9.1205,9.6685,9.6685,9.8144,9.807,9.5575,9.396,9.117,8.6656,8.1827,7.646,7.0426,6.4628,0.0,0.0,0.0,0.0,0.0,0.0,0.0,0.0,0.0,0.0,0.0,0.0,0.0,0.0,0.0,0.0,0.0,0.0,0.0,0.0,0.0,0.0,0.0,0.0,0.0,0.0,0.0,0.0,0.0,5.0738,5.4098,5.5118,5.6136,5.6394,0.0,0.0,0.0,0.0,0.0,0.0,0.0,0.0,0.0,6.8904,7.1759,7.4769,7.7919,8.0309,8.2533,8.4588,8.5519,8.6452,8.7316,8.7876,8.8486,8.9131,9.0159,8.789,8.3269,7.9641,7.5507,7.1248,0.0,0.0,0.0,0.0,6.7404,6.8726,7.0264,7.0886,0.0,7.0025,0.0,0.0,0.0,0.0,0.0,0.0,0.0,0.0,0.0,0.0,8.5201,8.4745,8.6525,8.7874,8.6168,8.2394,7.7954,0.0,6.9704,6.6178,6.1981,0.0,0.0,0.0,0.0,0.0,8.3161,9.1159,9.6218,9.6649,9.775,9.764,9.5685,9.4841,9.2895,8.9262,8.6619,8.2655,7.7003,7.2151,6.7086,0.0,0.0,0.0,0.0,0.0,0.0,0.0,0.0,0.0,0.0,0.0,0.0,0.0,0.0,0.0,0.0,0.0,0.0,0.0,0.0,0.0,0.0,0.0,0.0,0.0,0.0,0.0,0.0,5.4548,5.8343,5.9146,6.0747,6.1194,0.0,0.0,0.0,0.0,0.0,0.0,6.714,6.9689,7.2512,7.56,7.8342,8.114,8.397,8.6503,8.8535,9.0054,9.1053,9.1945,9.2669,9.2956,9.3412,9.3995,9.4552,9.4147,9.2599,8.6562,8.2015,7.8638,7.6199,7.4432,7.3396,7.4032,7.52,7.6624,7.8079,7.8856,7.9096,7.85,0.0,7.2017,6.9503,0.0,0.0,0.0,0.0,7.4085,7.8459,8.3648,8.7666,8.7191,8.8936,9.0246,8.8514,8.767,8.5646,0.0,7.6589,7.3087,6.8636,0.0,0.0,0.0,0.0,7.6942,8.4694,9.1435,9.5814,9.6612,9.7429,9.7246,9.5648,9.5318,9.396,9.1106,8.995,8.7161,8.2141,7.8214,7.3296,6.7277,0.0,0.0,0.0,0.0,0.0,0.0,0.0,0.0,0.0,0.0,0.0,0.0,0.0,0.0,0.0,0.0,0.0,0.0,0.0,0.0,0.0,0.0,0.0,0.0,0.0,0.0,0.0,0.0,0.0,6.5128,6.6884,0.0,0.0,0.0,0.0,6.8014,7.0691,7.3245,7.5565,7.7108,7.9557,8.3146,8.3903,8.567,8.8525,9.0667,9.2102,9.2909,9.4664,9.5561,9.561,9.6644,9.7148,9.7183,9.721,9.6758,9.5692,9.198,8.8545,8.5337,8.2485,8.1487,8.164,8.1392,8.2704,8.4858,8.6665,8.6811,8.6203,8.6132,8.1857,7.6316,7.4342,7.2532,0.0,0.0,7.589,7.8948,8.1986,8.6076,8.9485,8.9962,9.1538,9.2482,9.0785,9.0417,8.8949,0.0,8.1226,7.8561,7.5198,0.0,7.0897,7.4123,7.678,8.0743,8.7204,9.2409,9.5814,9.6612,9.7429,9.7246,9.5648,9.4813,9.3648,9.1932,9.0289,8.7895,8.4572,8.1277,7.7202,7.2239,6.6721,0.0,0.0,0.0,0.0,0.0,0.0,0.0,0.0,0.0,0.0,0.0,0.0,0.0,0.0,0.0,0.0,0.0,0.0,0.0,0.0,0.0,0.0,0.0,0.0,0.0,0.0,0.0,0.0,7.105,7.3697,0.0,7.3897,7.2846,7.3046,7.5121,7.7767,8.0094,8.1933,8.3899,8.5976,8.8222,8.9012,9.056,9.3051,9.3833,9.4827,9.6069,9.6718,9.7016,9.7051,9.7425,9.7584,9.7584,9.7584,9.7245,9.6578,9.4797,9.2199,8.9213,8.763,8.6729,8.6281,8.6253,8.7263,8.8669,8.9202,8.9856,9.0184,8.8815,8.5265,8.1256,7.9944,7.8284,7.7155,7.8923,8.0248,8.1724,8.4493,8.7736,9.0233,9.0095,9.1921,9.3336,9.188,9.0863,8.9742,8.8159,8.6466,8.4419,8.17,7.8976,7.7962,8.0113,8.1178,8.3467,8.8344,9.1877,9.4446,9.5795,9.6162,9.6125,9.5538,9.5244,9.441,9.2758,9.2088,9.0546,8.7785,8.6077,8.2672,7.7312,7.2686,6.73,0.0,0.0,0.0,0.0,0.0,0.0,0.0,0.0,0.0,0.0,0.0,0.0,0.0,0.0,0.0,0.0,0.0,0.0,0.0,0.0,0.0,0.0,0.0,0.0,0.0,0.0,7.3291,7.5927,7.9053,8.059,7.9478,7.8994,7.9423,8.1008,8.3647,8.5639,8.6674,8.8398,9.0019,9.1537,9.2364,9.3758,9.5758,9.6276,9.7069,9.8069,9.8311,9.8449,9.8449,9.8449,9.8449,9.8414,9.8173,9.7907,9.757,9.6858,9.5358,9.3383,9.196,9.1093,9.0634,9.0623,9.1328,9.2286,9.2175,9.2793,9.3274,9.1078,8.8731,8.6518,8.5374,8.3987,8.3047,8.4273,8.457,8.5013,8.6889,8.8917,9.0428,9.0225,9.1696,9.2819,9.1587,9.047,8.975,8.9778,8.8909,8.7692,8.6077,8.4278,8.3463,8.4821,8.5004,8.6289,8.9776,9.1904,9.3703,9.5318,9.5501,9.5391,9.5134,9.4841,9.3996,9.2354,9.1758,9.0583,8.8666,8.7573,8.4727,7.989,7.4192,6.8054,6.1582,0.0,0.0,0.0,0.0,0.0,0.0,0.0,0.0,0.0,0.0,0.0,0.0,0.0,0.0,0.0,0.0,0.0,0.0,0.0,0.0,0.0,0.0,0.0,6.3643,7.1039,7.7221,7.9739,8.2847,8.455,8.3914,8.4457,8.5091,8.5685,8.825,8.9812,8.9812,9.0467,9.1537,9.3054,9.3896,9.4999,9.6469,9.8035,9.8828,9.8828,9.9553,9.9898,9.9898,9.9898,9.9898,9.9849,9.9139,9.8828,9.8739,9.8297,9.8097,9.7855,9.548,9.4681,9.4862,9.4582,9.5066,9.5892,9.5928,9.5905,9.5519,9.3272,9.2362,9.18,9.0238,8.9391,8.8921,8.8909,8.8684,8.8548,8.9088,8.9572,9.0079,9.0551,9.1012,9.1069,9.0049,8.9502,8.9136,8.8907,8.8544,8.828,8.828,8.761,8.739,8.8206,8.828,0.0,9.151,9.2537,9.3666,9.5281,9.5465,9.5134,9.4382,9.3565,9.2381,9.0656,8.905,8.7802,8.6949,8.5445,8.3067,7.9816,7.1145,6.4267,5.941,0.0,0.0,0.0,0.0,0.0,0.0,0.0,0.0,0.0,0.0,0.0,0.0,0.0,0.0,0.0,0.0,0.0,0.0,0.0,0.0,0.0,0.0,6.761,6.9128,7.6085,8.2098,8.4954,8.7571,8.9255,8.9661,8.9856,9.0279,9.0952,9.1714,9.2157,9.2157,9.1847,9.2123,9.3054,9.3896,9.4999,9.6469,9.8035,9.907,9.9622,9.978,9.9898,9.9898,9.9898,9.9898,9.9898,9.9691,9.9311,9.8794,9.8672,9.8414,9.8063,9.7817,9.7314,9.6628,9.6223,9.5873,9.5693,9.6288,9.6242,9.5669,9.4334,9.3065,9.1738,8.9816,8.8341,8.729,8.7091,8.6172,8.561,8.7028,8.8054,8.8919,8.977,9.1054,9.1847,9.1013,9.0176,8.9692,9.0214,9.0117,8.9922,8.9922,8.9776,8.9886,9.0702,9.0298,0.0,9.1629,9.2024,9.2794,9.4446,9.463,9.452,9.4309,9.3565,9.2125,8.9877,8.8234,8.6693,8.5335,8.4829,8.281,7.9001,7.3039,6.8157,0.0,0.0,0.0,0.0,0.0,0.0,0.0,0.0,0.0,0.0,0.0,0.0,0.0,0.0,0.0,0.0,0.0,0.0,0.0,0.0,0.0,0.0,6.8645,7.4095,7.6844,8.1603,8.5661,8.8075,9.0398,9.195,9.2399,9.2757,9.3137,9.3585,9.4158,9.4261,9.3654,9.3206,9.3171,9.3585,9.4344,9.5482,9.7,9.8518,9.9484,9.9898,9.9898,9.9898,9.9898,9.9898,9.9898,0.0,9.9898,9.9656,9.9277,9.9277,9.9101,0.0,0.0,0.0,0.0,0.0,9.7106,9.6629,9.6902,9.6803,9.6314,9.5075,9.4003,9.2803,9.0605,8.8811,8.7336,8.6539,8.5178,8.4318,8.5698,8.6954,8.8085,8.8999,9.0505,9.1553,9.0893,9.0301,9.0034,9.0647,9.0974,0.0,9.1583,9.195,9.2317,9.2767,9.2464,9.2317,9.2794,9.284,9.3345,9.4666,9.4813,9.4666,9.4345,9.3235,0.0,0.0,0.0,8.5261,8.3654,8.3287,0.0,0.0,0.0,0.0,0.0,0.0,0.0,0.0,6.1544,6.3119,0.0,0.0,0.0,0.0,0.0,0.0,0.0,0.0,0.0,0.0,0.0,0.0,0.0,0.0,0.0,0.0,7.4602,8.0534,8.4846,8.7018,8.8708,9.0054,9.1985,9.3261,9.3365,9.4068,9.4551,9.4551,9.5862,9.602,9.462,0.0,0.0,0.0,0.0,9.6207,9.7704,9.9173,9.9898,9.9898,9.9898,9.9898,9.9898,9.9898,9.9898,9.9898,9.9898,9.9898,9.9898,9.9898,9.9898,9.9774,9.8615,9.8355,9.8582,9.845,9.8285,9.8049,9.7526,0.0,0.0,9.5569,9.4896,9.4279,9.1966,9.002,8.826,8.6742,8.5178,8.4178,8.4984,8.6363,8.773,8.8536,8.9916,9.0927,9.043,9.0314,9.0382,9.0686,9.1431,9.2271,9.3123,9.3849,9.4309,9.4309,9.4309,9.4309,9.4309,9.4309,9.4593,9.5428,0.0,0.0,9.4492,9.2914,9.1253,8.9657,8.6436,8.3911,8.2406,8.1562,8.0828,8.022,7.7973,7.61,7.4669,7.4037,7.4147,7.4816,7.0594,7.0711,0.0,0.0,0.0,0.0,0.0,0.0,0.0,0.0,0.0,0.0,0.0,0.0,0.0,0.0,0.0,7.2819,7.8833,8.3868,8.6592,9.0433,9.3068,9.3378,9.3792,9.4309,9.4896,9.562,9.6055,9.6055,9.6931,9.7069,9.6138,9.5517,9.5206,9.5206,9.5896,9.6759,9.769,9.9173,9.9898,9.9898,0.0,0.0,9.9898,9.9898,9.9898,9.9898,9.9898,9.9898,9.9898,9.9898,9.9898,9.9829,9.8989,9.8822,9.8958,9.8165,9.7972,9.8021,9.7314,9.7229,9.7113,9.5342,9.4735,9.4239,9.1682,8.9817,0.0,8.6742,8.5178,8.4178,8.4984,8.6777,8.857,8.9295,9.1123,9.2466,9.179,9.1537,9.1509,9.1631,9.2218,9.3038,9.4044,9.426,9.4309,9.4309,9.4309,9.4309,9.4309,9.4309,9.4593,9.5428,9.5501,9.5428,9.5281,9.3776,9.2134,9.0473,8.6729,8.416,8.3206,8.2406,8.2186,8.2692,8.1599,8.0873,8.0579,8.104,8.1701,8.237,7.6974,7.5954,0.0,0.0,0.0,0.0,0.0,0.0,0.0,0.0,0.0,0.0,0.0,6.0875,6.5092,0.0,7.3005,7.7603,8.219,8.6075,8.873,9.2088,9.4309,9.4309,9.462,9.5137,9.5896,9.6262,9.669,9.7069,9.7794,9.7897,9.7138,9.6759,9.6552,9.6552,9.6897,9.7483,9.8242,9.9346,9.9898,9.9898,9.9898,9.9898,9.9898,9.9898,9.9898,9.9898,9.9898,9.9898,9.9898,9.9898,9.9898,9.9849,9.9484,9.9432,9.9492,9.8989,9.888,9.8904,9.8144,9.7771,9.7315,9.6021,9.5343,9.4659,9.2577,9.0916,8.9398,8.7881,8.6329,8.5316,8.6109,8.7708,8.9329,9.0088,9.1709,9.307,9.299,9.2762,9.267,9.2974,9.3204,9.3622,9.4407,9.4673,9.4879,9.5283,9.5454,9.5511,9.5511,9.5511,9.5658,9.6052,9.6088,9.5942,9.5538,9.3639,9.1758,9.0097,8.772,8.6032,8.5224,8.4821,8.4784,8.5179,8.4821,8.4609,8.4609,8.5004,8.5628,8.6334,8.3471,8.259,0.0,0.0,0.0,0.0,0.0,0.0,0.0,0.0,5.6426,5.9288,6.291,6.6851,7.0956,7.4212,7.7615,8.1764,8.4984,8.7902,9.064,9.302,9.4447,9.4309,9.5068,9.5862,9.6434,9.6779,9.7242,9.7862,9.8587,9.8759,9.8173,9.8138,9.8138,9.8138,9.8138,9.8414,9.9001,9.9622,9.9898,9.9898,9.9898,9.9898,9.9898,9.9898,9.9898,9.9898,9.9898,9.9898,9.9898,9.9898,9.9898,9.9898,9.9898,9.9898,9.9898,9.9898,9.9898,9.9794,9.907,9.8311,9.7552,9.6759,9.5986,9.5137,9.3744,9.2364,9.0985,8.964,8.826,8.7316,8.7902,8.9213,9.0502,9.111,9.2433,9.3617,9.3763,9.363,9.3528,9.3727,9.364,9.3702,9.4236,9.4687,9.5264,9.617,9.6531,9.6685,9.6685,9.6685,9.6685,9.6685,9.6685,9.6392,9.5575,9.3666,9.1831,9.0207,8.9519,8.872,8.7757,8.7684,8.7647,8.7455,8.7463,8.7463,8.7463,8.7463,8.7794,8.8418,8.8418,8.8087,4.8651,5.1065,5.5555,5.8564,6.0401,6.1643,0.0,0.0,6.4117,6.6462,6.999,7.344,7.5971,7.8936,8.1879,8.4397,8.7363,8.9916,9.164,9.3827,9.5034,9.4378,9.5517,9.64,9.6503,9.7759,9.8587,9.8656,9.938,9.976,9.9656,9.9642,9.9642,9.9642,9.9642,9.9676,9.9794,9.9849,9.9898,9.9898,9.9898,9.9898,9.9898,9.9898,9.9898,9.9898,9.9898,9.9898,9.9898,9.9898,9.9898,9.9898,9.9898,9.9898,9.9898,9.9898,9.9898,9.9794,9.907,9.8311,9.7552,9.6759,9.5986,9.5241,9.4413,9.3551,9.2675,9.186,9.0985,9.0316,9.0385,9.1558,9.2744,9.2813,9.402,9.484,9.3768,9.369,9.355,9.2458,9.2405,9.2748,9.3239,9.3739,9.4504,9.5822,9.6424,9.6685,9.6685,9.6685,9.6685,9.6685,9.6685,9.6392,9.5575,9.5244,9.44,9.2785,9.2602,9.184,9.0253,9.0179,8.9849,8.9143,8.9143,8.9143,8.9143,8.9143,8.9179,8.9253,8.9253,8.9216,5.4279,5.6866,6.0875,0.0,6.6194,6.816,6.8002,6.8896,7.0399,7.2678,7.5596,7.8454,8.073,8.2212,8.3833,0.0,8.8295,9.0226,9.1778,9.3965,9.4965,9.3744,9.4158,9.4882,9.5779,9.6814,9.7828,9.8725,9.9484,9.9898,9.9898,9.9898,9.9898,9.9898,9.9898,9.9898,9.9898,9.9898,9.9898,9.9898,9.9898,9.9898,9.9898,9.9898,9.9898,9.9898,9.9898,9.9898,9.9898,9.9898,9.9898,9.9898,9.9898,9.9656,9.9277,9.9277,9.9518,9.9794,9.907,9.8587,9.8207,9.7449,9.669,9.5896,9.5172,9.4723,9.4378,9.4068,9.3744,9.3468,9.3468,9.3951,9.4434,9.4434,9.4917,9.5268,9.4736,9.436,9.3962,9.3458,9.3056,9.299,9.3503,9.4003,9.4622,9.5518,9.5784,9.5923,9.608,9.62,9.6404,9.6657,9.6685,9.6575,9.6235,9.5758,9.5208,9.4547,9.4079,9.3492,9.2794,9.2758,9.2611,9.2281,9.2244,9.2244,9.2244,9.2244,9.2244,9.2244,9.2244,9.2244,5.8702,0.0,0.0,6.7798,7.1165,7.366,7.3024,7.412,7.5753,7.7411,7.944,8.1488,8.335,8.404,8.5006,8.7075,8.9053,9.0812,9.2123,9.4103,9.4827,9.3296,9.2916,9.3158,9.402,9.5365,9.6862,9.838,9.938,9.9898,9.9898,9.9898,9.9898,9.9898,9.9898,9.9898,9.9898,10.009,10.0194,10.0194,10.0401,10.0504,10.0504,10.0504,10.0504,10.0504,10.0504,10.0504,10.0504,10.0504,10.0504,10.0504,10.0312,9.976,9.907,9.8656,9.8828,9.9208,9.869,9.8345,9.8069,9.7552,9.6828,9.6103,9.5551,9.5413,9.5413,9.5413,9.5413,9.5413,9.5413,9.5413,9.5413,9.5413,9.5413,9.5344,9.5137,9.4689,9.424,9.3999,9.3503,9.3237,9.3715,9.4128,9.4566,9.5016,9.514,9.5288,9.5667,9.5876,9.617,9.6637,9.6685,9.6685,9.6685,9.6162,9.5832,9.5832,9.529,9.485,9.463,9.463,9.4529,9.4309,9.4309,9.4309,9.4309,9.4309,9.4309,9.4309,9.4309,9.4309,0.0,0.0,6.7724,7.124,7.4952,7.7651,7.7361,7.871,7.9997,8.0065,8.1,8.2017,8.2799,8.4156,8.5639,8.7144,8.995,9.2192,9.2951,9.4413,9.4827,9.3296,9.2468,9.1744,0.0,9.3675,9.6069,9.7621,9.907,9.9898,9.9898,9.9898,9.9898,9.9898,9.9898,9.9898,9.9898,10.0706,10.1085,10.1085,10.1795,10.2105,10.2105,10.2105,10.2105,10.2105,10.2105,10.2105,10.2105,10.2105,10.2105,10.2086,10.1312,10.0588,9.9676,9.8276,9.7759,9.7759,9.7725,9.7207,9.6586,9.6538,9.602,9.5448,9.5413,9.5413,9.5413,9.5413,9.5413,9.5413,9.5413,9.5413,9.5413,9.5413,9.5413,9.5206,9.4482,9.4309,9.4068,9.3296,9.3123,9.3183,9.3464,9.3755,9.4008,9.4279,9.455,9.4944,9.5611,9.5866,9.617,9.6637,9.6685,9.6685,9.6685,9.6685,9.6649,9.6649,9.6649,9.6272,9.5501,9.5465,9.5098,9.4309,9.4309,9.4309,9.4309,9.4309,9.4309,9.4309,9.4309,9.4309,6.3049,0.0,7.1647,7.4318,7.7734,8.0399,8.0313,8.1146,8.1812,8.1313,8.0851,8.092,8.22,8.2852,8.4018,8.6474,8.9603,9.1992,9.2749,9.4324,9.4827,9.3296,9.1985,0.0,0.0,0.0,0.0,9.5344,9.7311,9.8656,9.9139,9.9622,9.9898,9.9898,9.9898,9.9898,9.9898,10.0691,10.112,10.112,10.1795,10.2209,10.2209,10.2209,10.2209,10.2209,10.2209,10.2209,10.2209,10.2209,10.2209,10.2105,10.1396,10.0588,9.9794,9.8794,9.8104,9.7621,9.7104,9.7069,9.7207,9.6676,9.6331,9.602,9.5551,9.5413,9.5413,9.5413,9.5758,9.602,9.5517,9.5744,9.6,9.5517,9.5413,9.5344,9.5068,9.5034,9.4965,9.4689,9.4606,9.4647,9.4743,9.4838,9.492,9.5015,9.5149,9.521,9.5241,9.5593,9.6059,9.652,9.6731,9.7092,9.7781,9.7492,9.7347,9.7493,9.7016,9.6575,9.6309,9.6309,9.6171,9.5914,9.5878,9.5878,9.5878,9.5878,9.5878,9.5878,9.5878,9.5878,6.6703,7.1334,7.556,7.7752,8.0616,8.2858,8.2768,8.2955,8.2841,8.1562,7.972,7.8695,7.9937,8.0382,8.1647,8.487,8.889,9.1843,9.2598,9.4269,9.493,9.3689,9.2157,9.095,0.0,0.0,0.0,9.3344,9.5586,9.7311,9.8345,9.9622,10.0312,10.0312,10.0588,10.0711,10.0711,10.1484,10.2002,10.2312,10.2795,10.3002,10.3002,10.3002,10.3002,10.3002,10.3002,10.3002,10.3002,10.3002,10.3002,10.2899,10.1898,10.1002,10.0208,9.9173,9.8345,9.7621,9.7104,9.7276,9.7552,9.6759,9.6503,9.6365,9.562,9.5413,9.5413,9.5413,9.5931,9.6331,9.5586,9.5965,9.6296,9.5586,9.5413,9.5413,9.5413,9.5413,9.5413,9.5413,9.5413,9.5413,9.5413,9.5413,9.5413,9.5413,9.5511,9.5528,9.5294,9.5508,9.5825,9.626,9.6672,9.7212,9.8037,9.7984,9.8021,9.8318,9.786,9.7566,9.7566,9.7273,9.7126,9.7126,9.6832,9.6685,9.6685,9.6685,9.6685,9.6685,9.6685,9.6685,7.1065,7.5538,7.9469,8.1426,8.3482,8.4966,8.468,8.4182,8.3168,8.0823,7.757,7.5333,0.0,0.0,7.8625,8.2415,8.7775,9.1733,9.2557,9.4228,9.511,0.0,0.0,0.0,0.0,0.0,0.0,9.1826,0.0,9.6034,9.7552,9.9843,10.112,10.112,10.1795,10.2209,10.2209,10.2884,10.3692,10.4501,10.4501,10.4501,10.4501,10.4501,10.4501,10.4501,10.4501,10.4501,10.4501,10.4501,10.4382,10.4294,10.2692,10.1691,10.0898,9.9415,9.8414,9.7794,9.7794,9.7759,9.7552,9.6828,9.6538,9.6365,9.5689,9.5448,9.5413,9.5413,9.5931,9.6331,9.5586,9.5965,9.6296,9.5586,9.5413,9.5413,9.5413,9.5413,9.5413,9.5413,9.5413,9.5413,9.5413,9.5413,9.5413,9.5413,9.5634,9.5748,9.5656,9.551,9.5553,9.5949,9.6545,9.7102,9.7655,9.8136,9.8664,9.9142,9.9135,9.9098,9.9098,9.8374,9.7943,9.7906,9.7163,9.6722,9.6685,9.6685,9.6685,9.6685,9.6685,9.6685,7.5601,7.9806,8.3376,8.4489,8.5187,8.5431,8.4742,8.3665,8.1652,7.7747,7.4045,7.1592,0.0,0.0,0.0,8.0083,8.5626,0.0,9.1762,9.3762,0.0,9.477,0.0,9.3413,9.2606,9.1123,0.0,0.0,9.3585,9.5241,9.6724,9.9518,10.112,10.112,10.1795,10.2209,10.2209,10.2884,10.3692,10.4501,10.4501,10.4501,10.4501,10.4501,10.4501,10.4501,10.4501,10.4501,10.4501,10.3914,10.3589,10.35,10.2017,10.1292,10.1016,10.0001,9.9518,9.9346,9.9346,9.8621,9.767,9.7449,9.7,9.6469,9.6262,9.5862,9.5413,9.5413,9.5931,9.6331,9.5586,9.5965,9.6296,9.5586,9.5413,9.5413,9.5413,9.5413,9.5413,9.5413,9.5413,9.5413,9.5413,9.5413,9.5413,9.5413,9.5469,9.5432,9.5214,9.5361,9.5602,9.5907,9.6609,9.7538,9.8767,9.8977,9.9312,9.9949,9.9428,9.9098,9.9098,9.8915,9.8521,9.7906,9.7686,9.7309,9.6685,9.6685,9.6685,9.6685,9.6685,9.6685,7.9211,8.3027,8.6183,8.665,8.6785,8.6379,8.4931,8.2462,7.9295,7.51,7.0274,0.0,0.0,0.0,0.0,0.0,0.0,0.0,9.0565,9.2924,9.4315,0.0,9.3856,0.0,9.3123,9.2019,9.164,0.0,9.362,9.493,9.64,9.9725,10.1603,10.1603,10.2588,10.3209,10.3209,10.3589,10.4087,10.4501,10.4501,10.4501,10.4501,10.4501,10.4501,10.4501,0.0,10.4501,10.4382,10.3608,10.3313,10.3209,10.1706,10.112,10.1002,10.0208,9.9898,9.9898,9.9898,9.9346,9.8621,9.8276,9.7897,9.738,9.671,9.6193,9.5827,9.5482,9.5931,9.6331,9.5586,9.5965,9.6296,9.5586,9.5413,9.5413,9.5413,9.5413,9.5413,9.5413,9.5413,9.5413,9.5413,9.5413,9.5413,9.5413,9.5413,9.5351,9.5167,9.5355,9.5516,9.5654,9.6502,9.758,9.8823,9.9381,9.9993,10.0793,10.0393,10.0219,10.0219,9.9805,9.9402,9.8971,9.8594,9.819,9.775,9.775,9.775,9.775,9.775,9.775,8.2413,8.5587,8.8158,8.826,8.8057,8.7211,8.4728,8.0581,7.6127,7.2191,0.0,6.2289,6.4421,6.5662,6.8594,7.5337,0.0,8.7348,8.9014,9.1671,9.3182,9.2578,9.2933,9.3296,9.3399,9.302,9.3033,9.3641,9.4551,9.5482,9.6434,10.009,10.2312,10.2485,10.3796,10.4501,10.4501,10.4501,10.4501,10.4501,10.4501,10.4501,10.4501,10.4501,10.4501,10.4501,10.4397,0.0,10.4294,10.3382,10.3002,10.2899,10.1499,10.0898,10.0913,10.0208,9.9898,9.9898,9.9898,9.9898,9.9794,9.9139,9.8863,9.8552,9.7207,9.6641,9.6365,9.5724,9.5931,9.6193,9.5586,9.5848,9.6193,9.5551,9.5413,9.5413,9.5413,9.5413,9.5413,9.5413,9.5413,9.5448,9.5517,9.5551,9.5586,9.5689,9.5724,9.5724,9.5724,9.5517,9.5413,9.5413,9.6417,9.7496,9.8466,9.9538,10.0616,10.1509,10.148,10.1484,10.1504,10.0796,10.0393,10.0283,9.9622,9.9208,9.9098,9.9098,9.9098,9.9098,9.9098,9.9098,8.6379,8.7969,8.9052,8.9681,8.8449,8.6149,8.2691,7.7468,0.0,0.0,6.1603,5.8254,5.9868,6.2303,6.6261,7.3015,0.0,0.0,0.0,0.0,9.1508,0.0,0.0,0.0,0.0,0.0,0.0,0.0,0.0,9.8228,9.6572,10.009,10.281,10.4087,10.4397,10.4501,10.4501,10.4501,10.4501,10.4501,10.4501,10.4501,10.4501,10.4501,10.4501,10.4501,10.3796,0.0,10.3416,10.2002,10.1499,10.1396,10.0484,10.0105,10.0105,9.9952,9.9898,9.9898,9.9898,9.9898,9.9883,9.976,9.9311,9.8759,9.8483,9.7503,9.6469,9.6331,9.5951,9.5551,9.5448,9.5482,9.5551,9.5448,9.5413,9.5413,9.5413,9.5413,9.5413,9.5413,9.5413,9.5572,9.6193,9.6296,9.6538,9.7207,9.7311,9.7311,9.7311,9.6172,9.5413,9.5413,9.6779,9.798,9.8778,9.979,10.0894,10.1908,10.1492,10.1311,10.1504,10.1394,10.099,10.0283,10.0219,9.9769,9.9098,9.9098,9.9098,9.9098,9.9098,9.9098,8.8158,8.9681,9.0628,8.9816,8.7955,8.5046,8.0141,0.0,0.0,0.0,5.7205,5.4025,5.6292,5.8515,0.0,6.9428,7.6229,8.1562,0.0,0.0,0.0,0.0,0.0,0.0,0.0,0.0,0.0,0.0,0.0,9.94,9.8331,10.109,10.3106,10.3914,10.4294,10.4294,10.3914,10.4294,10.4294,10.3914,10.3914,10.3707,10.3313,10.3313,10.3313,10.3293,10.2899,0.0,10.2608,10.1519,10.112,10.1002,10.0194,9.9898,9.9898,9.9898,9.9898,9.9898,9.9898,9.9898,9.9898,9.9898,9.9656,9.9311,9.8932,9.8276,9.7621,9.7242,9.6862,9.6586,9.6586,9.6586,9.6483,9.6069,9.5689,9.5413,9.5413,9.5413,9.5413,9.5413,9.5413,9.562,9.6365,9.6503,9.6779,9.7587,9.769,9.769,9.769,9.7035,9.6586,9.6586,9.7549,9.8404,9.9017,10.0102,10.1087,10.2101,10.1812,10.1805,10.2108,10.1688,10.1284,10.0907,10.0907,10.0686,10.0319,10.0319,10.0319,10.0319,10.0319,10.0613,8.956,9.1102,9.1865,8.9661,8.7056,8.3469,7.7333,6.9891,0.0,0.0,5.3315,5.021,5.2917,0.0,5.8389,0.0,7.2157,7.7638,8.0771,0.0,0.0,0.0,0.0,0.0,0.0,0.0,0.0,0.0,0.0,0.0,10.0608,10.2298,10.3313,10.3313,10.3899,10.3914,10.3106,10.3707,10.3707,10.3106,10.3106,10.2795,10.2209,10.2209,10.2209,10.2209,10.2002,0.0,0.0,10.1189,10.0795,10.0809,10.009,9.9898,9.9898,9.9898,9.9898,9.9898,9.9898,9.9898,9.9898,9.9898,9.9898,9.9794,9.9208,9.8932,9.869,9.8104,9.7828,9.769,9.769,9.769,9.7483,9.6676,9.6055,9.5586,9.5448,9.5413,9.5413,9.5413,9.5413,9.5689,9.6621,9.6759,9.7069,9.8035,9.8173,9.8173,9.8173,9.8173,9.8173,9.8173,9.8465,9.8837,9.9268,10.0305,10.1388,10.2283,10.2287,10.2285,10.2711,10.2081,10.1688,10.1504,10.1688,10.1798,10.1798,10.1908,10.1908,10.1798,10.1908,10.2312,9.173,9.2271,9.1865,8.9661,8.5858,8.0974,7.4322,0.0,0.0,5.4761,5.0304,4.7605,4.9221,5.186,0.0,0.0,0.0,7.3195,7.6893,8.1696,0.0,0.0,0.0,0.0,0.0,0.0,0.0,0.0,0.0,0.0,10.3002,10.3209,10.3313,10.3313,10.3382,10.3121,10.2312,10.2396,10.2396,10.2312,10.2312,10.2293,10.2209,10.2209,10.2209,10.2189,10.1499,0.0,0.0,10.0297,9.9987,10.0001,9.9932,9.9898,9.9898,9.9898,9.9898,9.9898,9.9898,9.9898,9.9898,9.9898,9.9898,9.9898,9.9814,9.9346,9.8794,9.8725,9.8207,9.769,9.769,9.769,9.7483,9.6676,9.6434,9.6241,9.5551,9.5413,9.5413,9.5413,9.5413,9.5862,9.7345,9.7587,9.8069,9.9484,9.9691,9.9691,9.9691,9.9691,9.9691,9.9691,9.9341,9.9285,9.9618,10.0581,10.1702,10.2718,10.2787,10.2792,10.2711,10.2585,10.2191,10.1504,10.2191,10.2595,10.2595,10.3293,10.3293,10.2585,10.3293,10.3293,9.0546,9.2068,9.2252,8.8666,8.4403,7.9092,7.1413,0.0,5.5969,5.2232,4.8289,4.6049,4.7988,4.9687,5.2638,5.8321,6.3768,0.0,7.3096,7.7899,0.0,0.0,0.0,0.0,0.0,0.0,0.0,0.0,0.0,0.0,10.3194,10.3811,10.3589,10.2707,10.3106,10.2677,10.1519,10.2017,10.2017,10.1519,10.1519,10.1278,10.078,10.078,10.078,10.0795,10.0519,0.0,0.0,9.9987,9.9898,9.9898,9.9898,9.9898,9.9898,9.9898,9.9898,9.9898,9.9898,9.9898,9.9898,9.9898,9.9898,9.9898,9.9898,9.9676,9.9449,9.9449,9.9242,9.9035,9.9035,9.869,9.8276,9.7966,9.7552,9.7138,9.6862,9.6793,9.6793,9.6793,9.6793,9.7104,9.8173,9.8345,9.8725,9.9745,9.9898,9.9898,9.9898,9.9898,9.9898,9.9898,9.9708,9.9699,9.9793,10.0894,10.2004,10.2902,10.319,10.3602,10.4085,10.3696,10.3303,10.3019,10.3303,10.3403,10.3403,10.3696,10.3696,10.3403,10.3817,10.399,8.914,9.1691,9.2469,8.7753,8.3016,7.7401,0.0,6.1095,5.4363,5.0819,4.7511,4.5717,4.7286,4.8414,5.0688,5.5524,5.9966,6.4395,6.9035,7.3819,7.7798,0.0,0.0,0.0,0.0,0.0,0.0,0.0,0.0,0.0,10.3194,10.3589,10.3209,10.1898,10.2381,10.1987,10.0809,10.1292,10.1292,10.0691,10.0691,10.0401,9.9898,9.9898,9.9898,9.9898,9.9898,0.0,0.0,9.9898,9.9898,9.9898,9.9898,9.9898,9.9898,9.9898,9.9898,9.9898,9.9898,9.9898,9.9898,9.9898,9.9898,9.9898,9.9898,9.9898,9.9898,9.9898,9.9898,9.9898,9.9898,9.9518,9.907,9.8863,9.8414,9.798,9.7759,9.769,9.769,9.769,9.769,9.7931,9.8656,9.8794,9.907,9.9794,9.9898,9.9898,9.9898,9.9898,9.9898,9.9898,9.9898,9.9898,9.9898,10.0921,10.1893,10.2815,10.3485,10.4078,10.4886,10.4405,10.4111,10.388,10.41,10.4284,10.4284,10.4504,10.4504,10.4284,10.4504,10.4908,8.8105,9.1319,9.2334,8.7123,8.1879,7.5857,6.7601,5.9954,5.3763,5.0718,4.8315,4.6793,4.68,4.8161,5.0034,5.2273,5.5911,6.0066,6.4639,6.9374,7.3476,0.0,0.0,0.0,0.0,0.0,0.0,0.0,0.0,0.0,10.3194,10.2588,10.1898,10.1105,10.1105,10.0691,9.9932,9.9932,9.9932,9.9918,9.9918,9.9898,9.9898,9.9898,9.9898,0.0,0.0,0.0,0.0,9.9898,9.9898,9.9898,9.9898,9.9898,9.9898,9.9898,9.9898,9.9898,9.9898,9.9898,9.9898,9.9898,9.9898,9.9898,9.9898,9.9898,9.9898,9.9898,9.9898,9.9898,9.9898,9.9883,9.9691,9.8966,9.8794,9.8587,9.7862,9.769,9.769,9.769,9.769,9.7931,9.8656,9.8794,9.907,9.9794,9.9898,9.9898,9.9898,9.9898,9.9898,9.9898,9.9898,9.9898,9.9898,10.0676,10.1489,10.2403,10.3485,10.4199,10.44,10.4709,10.4494,10.3917,10.4714,10.5117,10.5117,10.6019,10.5899,10.5117,10.6009,10.6386,8.1257,8.4796,8.6318,8.1642,7.7312,7.2304,6.5063,5.8466,5.3154,5.0616,4.8349,4.6999,4.7577,4.8119,4.9419,5.2313,5.5126,5.8551,0.0,0.0,0.0,0.0,0.0,0.0,0.0,0.0,0.0,0.0,0.0,0.0,10.1691,10.112,10.0504,10.0312,10.0312,9.9656,9.8414,9.8414,9.8414,9.8414,9.8897,9.9139,9.9173,9.9691,9.9898,0.0,0.0,0.0,0.0,9.9898,9.9898,9.9898,9.9898,9.9898,9.9898,9.9898,9.9898,9.9898,9.9898,9.9898,9.9898,9.9898,9.9898,9.9898,9.9898,9.9898,9.9898,9.9898,9.9898,9.9898,9.9898,9.9898,9.9849,9.9622,9.9553,9.9484,9.9242,9.9208,9.9208,9.9208,9.9208,9.9277,9.9518,9.9553,9.9622,9.9849,9.9898,9.9898,9.9898,9.9898,9.9898,9.9898,9.9898,9.9898,9.9898,10.0493,10.1386,10.2489,10.3204,10.4095,10.5411,10.5402,10.5395,10.5605,10.5909,10.6009,10.6009,10.6313,10.6313,10.6009,10.6313,10.6386,7.4255,7.8437,8.023,7.6093,7.2665,6.8605,6.2154,5.6977,5.2841,5.0582,4.8835,4.7879,4.8425,4.8858,4.99,5.2188,5.4264,5.7295,0.0,0.0,0.0,0.0,0.0,0.0,0.0,0.0,0.0,0.0,0.0,0.0,10.1085,10.0119,9.9346,9.907,9.9346,9.8897,9.769,9.769,9.769,9.7704,9.8449,9.8794,9.8828,9.9538,9.9898,0.0,0.0,0.0,0.0,9.9898,9.9898,9.9898,9.9898,9.9898,9.9898,9.9898,9.9898,9.9898,9.9898,9.9898,9.9898,9.9898,9.9898,9.9898,9.9898,9.9898,9.9898,9.9898,9.9898,9.9898,9.9898,9.9898,9.9898,9.9898,9.9898,9.9898,9.9898,9.9898,9.9898,9.9898,9.9898,9.9898,9.9898,9.9898,9.9898,9.9898,9.9898,9.9898,9.9898,9.9898,9.9898,9.9898,9.9898,9.9987,10.0312,10.0502,10.1087,10.2309,10.2705,10.3605,10.5296,10.5109,10.5298,10.5813,10.5911,10.5997,10.6094,10.6302,10.6386,10.6386,10.6386,10.6386,0.0,7.1932,7.4119,7.0545,6.7963,6.4806,5.9075,5.5412,0.0,5.0481,4.9514,4.9063,4.9105,5.0032,5.1081,5.1932,5.3507,5.6496,0.0,0.0,0.0,0.0,0.0,0.0,0.0,0.0,0.0,0.0,0.0,0.0,10.1016,9.9622,9.8449,9.7725,9.8311,9.8276,9.7552,9.7532,9.7532,9.7552,9.8276,9.8621,9.8656,9.9449,9.9814,0.0,0.0,0.0,0.0,9.9898,9.9898,9.9898,9.9898,9.9898,9.9898,9.9898,9.9898,9.9898,9.9898,9.9898,9.9898,9.9898,9.9898,9.9898,9.9898,9.9898,9.9898,9.9898,9.9898,9.9898,9.9898,9.9898,9.9898,9.9898,9.9898,9.9898,9.9898,9.9898,9.9898,9.9898,9.9898,9.9898,9.9898,9.9898,9.9898,9.9898,9.9898,9.9898,9.9898,9.9898,9.9898,9.9898,9.9898,10.0194,10.1002,10.0696,10.0899,10.1899,10.2088,10.2912,10.4402,10.4219,10.4396,10.4905,10.5289,10.55,10.5695,10.62,10.6497,10.6386,10.6386,10.6386,5.6732,0.0,6.7432,6.486,6.2922,6.0714,0.0,5.345,5.0582,4.9492,0.0,0.0,4.8236,4.9149,5.0439,5.2319,5.4526,5.7835,6.3005,0.0,0.0,0.0,0.0,0.0,0.0,0.0,0.0,0.0,0.0,10.0001,10.0208,9.9311,9.8449,9.7725,9.7276,9.669,9.5965,9.5931,9.5931,9.5965,9.669,9.7035,9.709,9.8449,9.907,0.0,0.0,0.0,9.9898,9.9898,9.9898,9.9898,9.9898,9.9898,9.9898,9.9898,9.9898,9.9898,9.9898,9.9898,9.9898,9.9898,9.9898,9.9898,9.9898,9.9898,9.9898,9.9898,9.9898,9.9898,9.9898,9.9898,9.9898,9.9898,9.9898,9.9898,9.9898,9.9898,9.9898,9.9898,9.9898,9.9898,9.9898,9.9898,9.9898,9.9898,9.9898,9.9898,9.9898,9.9898,9.9898,9.9898,9.9898,10.0194,10.1002,10.1006,10.1513,10.2899,10.2916,10.3393,10.4696,10.4606,10.4791,10.5302,10.621,10.6604,10.65,10.7116,10.7011,10.6386,10.6386,10.6386,5.2391,5.6797,6.0757,5.921,5.8195,5.6867,5.4245,5.1547,0.0,0.0,0.0,0.0,0.0,0.0,0.0,0.0,5.5656,0.0,0.0,0.0,0.0,0.0,0.0,0.0,0.0,0.0,0.0,0.0,0.0,9.9898,9.9898,9.8863,9.8104,9.769,9.6586,9.5793,9.5413,9.5413,9.5413,9.5413,9.6158,9.6503,9.6538,9.8104,9.8794,0.0,0.0,0.0,9.9898,9.9898,9.9898,9.9898,9.9898,9.9898,9.9898,9.9898,9.9898,9.9898,9.9898,9.9898,9.9898,9.9898,9.9898,9.9898,9.9898,9.9898,9.9898,9.9898,9.9898,9.9898,9.9898,9.9898,9.9898,9.9898,9.9898,9.9898,9.9898,9.9898,9.9898,9.9898,9.9898,9.9898,9.9898,9.9898,9.9898,9.9898,9.9898,9.9898,9.9898,9.9898,9.9898,9.9898,9.9898,10.0381,10.1484,10.1588,10.2105,10.3194,10.3002,10.3411,10.4483,10.4504,10.4805,10.5721,10.6678,10.7113,10.6792,10.7288,10.7205,10.6386,10.6386,10.6386,5.1466,5.371,5.5565,5.4879,5.4776,5.4303,5.2227,0.0,0.0,0.0,0.0,0.0,0.0,0.0,0.0,0.0,0.0,0.0,0.0,0.0,0.0,0.0,0.0,0.0,0.0,0.0,0.0,0.0,0.0,9.9753,9.9753,9.834,9.7548,9.7548,9.6067,9.5289,9.531,9.5386,9.5413,9.5413,9.602,9.6331,9.6365,9.7794,9.8449,9.8483,0.0,0.0,9.9538,9.9538,9.9538,9.9538,9.9538,9.9538,9.9587,9.9676,9.9711,9.976,9.9849,9.9898,9.9898,9.9898,9.9898,9.9898,9.9898,9.9898,9.9898,9.9898,9.9898,9.9898,9.9898,9.9898,9.9898,9.9898,9.9898,9.9898,9.9898,9.9898,9.9898,9.9898,9.9898,9.9898,9.9898,9.9898,9.9898,9.9898,9.9898,9.9898,9.9898,9.9898,9.9898,9.9898,9.9898,10.0484,10.1898,10.2002,10.2416,10.3194,10.3003,10.3297,10.4287,10.4394,10.4988,10.6399,10.7196,10.75,10.719,10.7702,10.7609,10.679,10.679,10.679,5.2289,5.4324,5.578,5.5363,5.5604,5.5643,5.4422,0.0,0.0,0.0,0.0,0.0,0.0,0.0,0.0,0.0,0.0,0.0,0.0,0.0,0.0,0.0,0.0,0.0,0.0,0.0,0.0,0.0,0.0,9.9144,9.9144,9.7687,9.6866,9.6866,9.5429,9.477,9.4969,9.5254,9.5413,9.5413,9.5517,9.5586,9.562,9.6483,9.6848,9.6883,0.0,9.8035,9.8035,9.8035,9.8035,9.8035,9.8035,9.8035,9.8104,9.8725,9.8966,9.907,9.9691,9.9898,9.9898,9.9898,9.9898,9.9898,9.9898,9.9898,9.9898,9.9898,9.9898,9.9898,9.9898,9.9898,9.9898,9.9898,9.9898,9.9898,9.9898,9.9898,9.9898,9.9898,9.9898,9.9898,9.9898,9.9898,9.9898,9.9898,9.9898,9.9898,9.9898,9.9898,9.9898,9.9898,9.9898,10.0312,10.1189,10.1292,10.1795,10.3209,10.389,10.4505,10.5186,10.5584,10.6389,10.7702,10.8697,10.9109,10.8784,10.9387,10.9213,10.8395,10.8395,10.8395,5.1981,5.3588,5.5008,5.6219,5.7028,5.7188,5.6082,0.0,0.0,0.0,0.0,0.0,0.0,0.0,0.0,0.0,0.0,0.0,0.0,0.0,0.0,0.0,0.0,0.0,0.0,0.0,0.0,0.0,0.0,0.0,9.7243,9.5833,9.5027,9.5027,9.3961,9.3597,9.4076,9.4616,9.5045,9.5413,9.5413,9.5413,9.5448,9.6158,9.6503,9.6538,0.0,9.769,9.769,9.769,9.769,9.769,9.769,9.769,9.7794,9.8518,9.907,9.9449,9.978,9.9898,9.9898,9.9898,9.9898,9.9898,9.9898,9.9898,9.9898,9.9898,9.9898,9.9898,9.9898,9.9898,9.9898,9.9898,9.9898,9.9898,9.9898,9.9898,9.9898,9.9898,9.9898,9.9898,9.9898,9.9898,9.9898,9.9898,9.9898,9.9898,9.9898,9.9898,9.9898,9.9898,9.9898,10.0194,10.1002,10.112,10.1691,10.3209,10.4087,10.4787,10.5409,10.5913,10.6813,10.7993,10.8985,10.94,10.921,10.9705,10.9617,10.8799,10.8799,10.8799,5.1623,5.2893,5.4347,5.6905,0.0,5.8716,5.7964,0.0,0.0,0.0,0.0,0.0,0.0,0.0,0.0,0.0,0.0,0.0,0.0,0.0,0.0,0.0,0.0,0.0,0.0,0.0,0.0,0.0,0.0,0.0,9.5292,9.3921,9.3211,9.336,9.2598,9.2534,9.3299,9.3966,9.4659,9.5413,9.5413,9.5413,9.5413,9.5986,9.6227,9.6262,9.6897,9.7173,9.7173,9.7173,9.7173,9.7173,9.7173,9.738,9.7759,9.8345,9.9104,9.9898,9.9898,9.9898,9.9898,9.9898,9.9898,9.9898,9.9898,9.9898,9.9898,9.9898,9.9898,9.9898,9.9898,9.9898,9.9898,9.9898,9.9898,9.9898,9.9898,9.9898,9.9898,9.9898,9.9898,9.9898,9.9898,9.9898,9.9898,9.9898,9.9898,9.9898,9.9898,9.9898,9.9898,9.9898,9.9898,10.009,10.0809,10.1002,10.1603,10.2692,10.3914,10.4787,10.5409,10.5997,10.6813,10.7993,10.9021,10.9509,10.949,10.9999,10.9984,10.9386,10.9386,10.9386,5.1774,5.3017,5.4489,5.7067,5.8747,0.0,6.0565,6.1073,0.0,0.0,0.0,0.0,0.0,0.0,0.0,0.0,0.0,0.0,0.0,0.0,0.0,0.0,0.0,0.0,0.0,0.0,0.0,0.0,0.0,0.0,9.3844,9.2532,9.2024,9.2663,9.1958,9.2004,9.2924,9.366,9.4494,9.5413,9.5413,9.5413,9.5413,9.5448,9.5482,9.5482,9.5551,9.5586,9.5586,9.5586,9.5586,9.5586,9.5586,9.6448,9.7704,9.7759,9.869,9.9898,9.9898,9.9898,9.9898,9.9898,9.9898,9.9898,9.9898,9.9898,9.9898,9.9898,9.9898,9.9898,9.9898,9.9898,9.9898,9.9898,9.9898,9.9898,9.9898,9.9898,9.9898,9.9898,9.9898,9.9898,9.9898,9.9898,9.9898,9.9898,9.9898,9.9898,9.9898,9.9898,9.9898,9.9898,9.9898,9.9932,10.0001,10.0706,10.1105,10.1292,10.3293,10.4787,10.5409,10.5913,10.6813,10.7993,10.8997,10.9787,11.0304,11.0914,11.1111,11.099,11.099,11.099,5.1927,5.2355,5.3245,5.6308,0.0,0.0,0.0,0.0,0.0,0.0,0.0,0.0,0.0,0.0,0.0,0.0,0.0,0.0,0.0,0.0,0.0,0.0,0.0,0.0,0.0,0.0,0.0,0.0,0.0,0.0,9.1758,9.0372,8.9923,9.0661,9.0405,9.082,9.1953,9.3096,9.4245,9.5413,9.5413,9.5413,9.5413,9.5413,9.5413,9.5413,9.5413,9.5413,9.5413,9.5413,9.5413,9.5413,9.5413,9.6345,9.769,9.769,9.8621,9.9898,9.9898,9.9898,9.9898,9.9898,9.9898,9.9898,9.9898,9.9898,9.9898,9.9898,9.9898,9.9898,9.9898,9.9898,9.9898,9.9898,9.9898,9.9898,9.9898,9.9898,9.9898,9.9898,9.9898,9.9898,9.9898,9.9898,9.9898,9.9898,9.9898,9.9898,9.9898,9.9898,9.9898,9.9898,9.9898,9.9898,9.9898,10.0622,10.112,10.112,10.2312,10.3314,10.3706,10.451,10.5503,10.6694,10.8194,10.9414,11.0204,11.092,11.121,11.121,11.121,11.121,5.2057,5.1951,5.2496,0.0,0.0,0.0,0.0,0.0,0.0,0.0,0.0,0.0,0.0,0.0,0.0,0.0,0.0,0.0,0.0,0.0,0.0,0.0,0.0,0.0,0.0,0.0,0.0,0.0,0.0,0.0,0.0,8.8721,8.8405,8.9118,8.9269,8.9936,9.1241,9.2541,9.3704,9.4757,9.4984,9.5219,9.5413,9.5413,9.5413,9.5413,9.5413,9.5413,9.5413,9.5413,9.5413,9.5413,9.5413,9.6172,9.7311,9.7311,9.8276,9.9553,9.9553,9.9725,9.9898,9.9898,9.9898,9.9898,9.9898,9.9898,9.9898,9.9898,9.9898,9.9898,9.9898,9.9898,9.9898,9.9898,9.9898,9.9898,9.9898,9.9898,9.9898,9.9898,9.9898,9.9898,9.9898,9.9898,9.9898,9.9898,9.9898,9.9898,9.9898,9.9898,9.9898,9.9898,9.9898,9.9898,9.9898,10.0415,10.0691,10.0691,10.1209,10.1794,10.2498,10.3381,10.4508,10.571,10.7484,10.891,10.9908,11.0793,11.121,11.121,11.121,11.121,5.2237,5.1985,0.0,0.0,0.0,0.0,0.0,0.0,0.0,0.0,0.0,0.0,0.0,0.0,0.0,0.0,0.0,0.0,0.0,0.0,0.0,0.0,0.0,0.0,0.0,0.0,0.0,0.0,0.0,0.0,0.0,8.7742,8.771,8.8388,8.8808,8.9609,9.0879,9.1943,9.2773,9.3372,9.411,9.4778,9.5365,9.54,9.5413,9.5413,9.5413,9.5413,9.5413,9.5413,9.5413,9.5413,9.5413,9.5848,9.6503,9.6503,9.7483,9.8794,9.8794,9.9277,9.9898,9.9898,9.9898,9.9898,9.9898,9.9898,9.9898,9.9898,9.9898,9.9898,9.9898,9.9898,9.9898,9.9898,9.9898,9.9898,9.9898,9.9898,9.9898,9.9898,9.9898,9.9898,9.9898,9.9898,9.9898,9.9898,9.9898,9.9898,9.9898,9.9898,9.9898,9.9898,9.9898,9.9898,9.9898,9.9898,9.9898,9.9898,9.9898,10.0588,10.2105,10.2899,10.3885,10.5095,10.688,10.8384,10.9596,11.0714,11.121,11.121,11.121,11.121,5.3357,5.3967,0.0,0.0,0.0,0.0,0.0,0.0,0.0,0.0,0.0,0.0,0.0,0.0,0.0,0.0,0.0,0.0,0.0,0.0,0.0,0.0,0.0,0.0,0.0,0.0,0.0,0.0,0.0,0.0,0.0,8.7742,8.771,8.8388,8.8554,8.9031,8.9838,9.015,9.0664,9.1282,9.1474,9.2482,9.4268,9.4818,9.5171,9.5413,9.5413,9.5413,9.5413,9.5413,9.5413,9.5413,9.5413,9.5848,9.6503,9.6503,9.7483,9.8794,9.8794,9.9277,9.9898,9.9898,9.9898,9.9898,9.9898,9.9898,9.9898,9.9898,9.9898,9.9898,9.9898,9.9898,9.9898,9.9898,9.9898,9.9898,9.9898,9.9898,9.9898,9.9898,9.9898,9.9898,9.9898,9.9898,9.9898,9.9898,9.9898,9.9898,9.9898,9.9898,9.9898,9.9898,9.9898,9.9898,9.9898,9.9898,9.9898,9.9898,9.9898,10.009,10.0588,10.1795,10.3087,10.4288,10.6596,10.8384,10.9596,11.0714,11.121,11.121,11.121,11.121,5.4443,5.5888,0.0,6.1154,6.4666,0.0,0.0,0.0,0.0,0.0,0.0,0.0,0.0,0.0,0.0,0.0,0.0,0.0,0.0,0.0,8.9497,9.0621,0.0,0.0,0.0,0.0,0.0,0.0,0.0,0.0,0.0,8.7615,8.7601,8.7995,8.8324,8.8863,8.9642,8.9636,8.9899,9.0384,9.049,9.1387,9.304,9.3919,9.4714,9.5413,9.5413,9.5413,9.5413,9.5413,9.5413,9.5448,9.571,9.6089,9.6538,9.6862,9.7759,9.8794,9.8794,9.9277,9.9898,9.9898,9.9898,9.9898,9.9898,9.9898,9.9898,9.9898,9.9898,9.9898,9.9898,9.9898,9.9898,9.9898,9.9898,9.9898,9.9898,9.9898,9.9898,9.9898,9.9898,9.9898,9.9898,9.9898,9.9898,9.9898,9.9898,9.9898,9.9898,9.9898,9.9898,9.9898,9.9898,9.9898,9.9898,9.9898,9.9898,9.9898,9.9898,9.9898,9.9898,10.1381,10.2789,10.3986,10.6503,10.8384,10.9596,11.0714,11.121,11.121,11.121,11.121,5.5442,5.7737,0.0,6.4514,6.7846,0.0,0.0,0.0,0.0,0.0,0.0,0.0,0.0,0.0,0.0,0.0,0.0,0.0,0.0,0.0,8.869,8.942,8.9164,8.9187,8.9805,0.0,0.0,0.0,0.0,0.0,8.7429,8.7412,8.7412,8.7412,8.8116,8.8962,8.9936,8.9956,9.0092,9.0397,9.0684,9.1214,9.1883,9.2938,9.4134,9.5413,9.5413,9.5413,9.5413,9.5413,9.5413,9.5482,9.6138,9.64,9.6517,9.7311,9.8069,9.8725,9.8794,9.9277,9.9898,9.9898,9.9898,9.9898,9.9898,9.9898,9.9898,9.9898,9.9898,9.9898,9.9898,9.9898,9.9898,9.9898,9.9898,9.9898,9.9898,9.9898,9.9898,9.9898,9.9898,9.9898,9.9898,9.9898,9.9898,9.9898,9.9898,9.9898,9.9898,9.9898,9.9898,9.9898,9.9898,9.9898,9.9898,9.9898,9.9898,9.9898,9.9898,9.9898,9.9898,10.1312,10.2706,10.379,10.6308,10.8092,10.9306,11.039,11.0909,11.0883,11.1016,11.1111,5.5817,5.9607,0.0,0.0,7.3069,7.8597,8.2124,0.0,0.0,0.0,0.0,0.0,0.0,0.0,0.0,8.6116,8.6228,8.6892,0.0,8.8784,8.869,8.942,8.8936,8.858,8.8737,8.8051,8.7656,8.7725,8.7587,8.7466,8.738,8.7412,8.7412,8.7412,8.8118,8.8846,8.9511,8.9541,8.9808,9.0383,9.0419,9.1072,9.229,9.3058,9.4134,9.5413,9.5413,9.5413,9.5413,9.5413,9.5413,9.5413,9.5572,9.5655,9.5724,9.6483,9.7276,9.8,9.8587,9.9277,9.9898,9.9898,9.9898,9.9898,9.9898,9.9898,9.9898,9.9898,9.9898,9.9898,9.9898,9.9898,9.9898,9.9898,9.9898,9.9898,9.9898,9.9898,9.9898,9.9898,9.9898,9.9898,9.9898,9.9898,9.9898,9.9898,9.9898,9.9898,9.9898,9.9898,9.9898,9.9898,9.9898,9.9898,9.9898,9.9898,9.9898,9.9898,9.9898,9.9898,9.9898,10.0795,10.1792,10.27,10.4488,10.6002,10.7193,10.8182,10.8799,10.9013,10.9897,11.0314,5.6752,6.1904,6.7479,7.3822,0.0,8.2651,8.3889,8.5138,8.6117,8.6461,0.0,0.0,8.6466,8.6354,8.6432,8.686,8.6892,8.7271,8.8328,8.831,8.8357,8.8945,8.8691,8.8451,8.8437,8.7964,8.757,8.7429,8.7412,8.7412,8.7412,8.7113,8.6923,8.6923,8.7273,8.785,8.862,8.8638,8.9039,8.9878,8.9615,9.0471,9.2334,9.3726,9.4743,9.5413,9.5413,9.5413,9.5413,9.5413,9.5413,9.5448,9.5793,9.5931,9.6055,9.7193,9.7862,9.8311,9.907,9.9587,9.9898,9.9898,9.9898,9.9898,9.9898,9.9898,9.9898,9.9898,9.9898,9.9898,9.9898,9.9898,9.9898,9.9898,9.9898,9.9898,9.9898,9.9898,9.9898,9.9898,9.9898,9.9898,9.9898,9.9898,9.9898,9.9898,9.9898,9.9898,9.9898,9.9898,9.9898,9.9898,9.9898,9.9898,9.9898,9.9898,9.9898,9.9898,9.9898,9.9898,9.9898,10.0312,10.1103,10.2197,10.3598,10.4893,10.6121,10.7098,10.7809,10.8184,10.9416,10.9984,5.7556,6.4328,7.1818,8.0424,8.3672,0.0,8.5001,8.5941,8.6805,8.6875,8.7186,8.7222,8.667,8.7018,8.7239,8.6639,8.705,8.7412,8.7412,8.7759,8.8172,8.8594,8.8727,8.8727,8.8662,8.8307,8.7882,8.7446,8.7412,8.7412,8.7412,8.6765,8.6403,8.6403,8.6381,8.6838,8.7691,8.7827,8.8376,8.9305,8.925,9.0341,9.2478,9.4496,9.5413,9.5413,9.5413,9.5413,9.5413,9.5413,9.5413,9.5448,9.6055,9.6296,9.6517,9.8035,9.8621,9.8725,9.9622,9.9898,9.9898,9.9898,9.9898,9.9898,9.9898,9.9898,9.9898,9.9898,9.9898,9.9898,9.9898,9.9898,9.9898,9.9898,9.9898,9.9898,9.9898,9.9898,9.9898,9.9898,9.9898,9.9898,9.9898,9.9898,9.9898,9.9898,9.9898,9.9898,9.9898,9.9898,9.9898,9.9898,9.9898,9.9898,9.9898,9.9898,9.9898,9.9898,9.9898,9.9898,9.9898,9.9898,10.0405,10.1593,10.2791,10.4,10.5111,10.6185,10.6994,10.7583,10.89,10.9591,5.7045,6.6499,7.6062,8.27,8.4563,8.5078,0.0,0.0,8.6893,0.0,8.7377,8.738,8.7285,8.7348,8.738,8.7285,8.7348,8.7412,8.7412,8.7982,8.8645,8.9198,8.9609,8.9658,8.9298,8.8982,8.8394,8.7449,8.7412,8.7412,8.7412,8.6765,8.6403,8.6403,8.6414,8.6692,8.7372,8.7988,8.8655,8.9323,9.1071,9.238,9.3278,9.4737,9.5413,9.5413,9.5413,9.5413,9.5413,9.5413,9.5413,9.5413,9.5517,9.5551,9.5724,9.7276,9.7828,9.8035,9.9415,9.9898,9.9898,9.9898,9.9898,9.9898,9.9898,9.9898,9.9898,9.9898,9.9898,9.9898,9.9898,9.9898,9.9898,9.9898,9.9898,9.9898,9.9898,9.9898,9.9898,9.9898,9.9898,9.9898,9.9898,9.9898,9.9898,9.9898,9.9898,9.9898,9.9898,9.9898,9.9898,9.9898,9.9898,9.9898,9.9898,9.9898,9.9898,9.9898,9.9898,9.9898,9.9898,9.9898,9.9996,10.02,10.089,10.1815,10.2891,10.3921,10.4884,10.5721,10.7223,10.7902,6.1213,7.0063,7.7733,8.3768,8.5627,8.6094,8.6428,8.6854,8.7102,8.7067,8.7224,8.7412,8.7412,8.7412,8.7412,8.7412,8.7412,8.7412,8.7412,8.8016,8.8811,8.9626,8.9773,8.961,8.9204,8.8485,8.7557,8.6311,8.6413,8.6568,8.6771,8.6168,8.5771,8.5788,8.5415,8.5422,8.5839,8.6535,8.7479,8.8698,9.0529,9.1648,9.217,9.398,9.4999,9.5413,9.5413,9.5413,9.5413,9.5413,9.5413,9.5413,9.5413,9.5413,9.5586,9.7138,9.769,9.7897,9.938,9.9898,9.9898,9.9898,9.9898,9.9898,9.9898,9.9898,9.9854,9.9714,9.967,9.9626,9.9436,9.9391,9.9436,9.9626,9.967,9.9714,9.9854,9.9898,9.9898,9.9898,9.9898,9.9898,9.9898,9.9898,9.9898,9.9898,9.9898,9.9898,9.9898,9.9898,9.9898,9.9898,9.9898,9.9898,9.9898,9.9898,9.9898,9.9898,9.9898,9.9898,9.9898,9.9898,10.0004,10.0212,10.0312,10.0893,10.21,10.299,10.3988,10.5096,10.6817,10.7609,6.3296,7.0403,7.6116,8.1998,8.4193,8.5005,8.5417,8.6225,8.6883,8.6935,8.7203,8.7412,8.7412,8.7412,8.7412,8.7412,8.7412,8.7412,8.7412,8.8048,8.8845,8.974,8.9594,8.9285,8.8895,8.7872,8.6707,8.5408,8.5681,8.6083,8.6512,8.5968,8.5631,8.5535,8.4796,8.4379,8.4315,8.5123,8.636,8.7929,8.9669,9.0703,9.1165,9.3326,9.4585,9.5137,9.531,9.5413,9.5413,9.5413,9.5413,9.5413,9.5413,9.5413,9.5586,9.7138,9.769,9.7897,9.938,9.9898,9.9898,9.9898,9.9898,9.9898,9.9898,9.984,9.9758,9.9558,9.944,9.9322,9.9069,9.8994,9.9084,9.9411,9.9499,9.9588,9.9825,9.9898,9.9898,9.9898,9.9898,9.9898,9.9898,9.9898,9.9898,9.9898,9.9898,9.9898,9.9898,9.9898,9.9898,9.9898,9.9898,9.9898,9.9898,9.9898,9.9898,9.9898,9.9898,9.9898,9.9898,9.9898,10.0105,10.0512,10.0386,10.0795,10.1891,10.2886,10.3916,10.4991,10.6612,10.7315,5.9783,6.4696,6.9911,7.5861,7.8455,8.0175,8.2764,8.4422,8.5783,8.7093,8.7394,8.7412,8.7412,8.7412,8.7412,8.7412,8.7412,8.7412,8.7412,8.8033,8.8746,8.9363,8.9188,8.8862,8.8458,8.7534,8.6462,8.5362,8.5883,8.6529,8.7114,8.6834,8.6476,8.6176,8.5195,8.4235,8.3274,8.4507,8.5804,8.7186,8.9159,9.0459,9.1165,9.3326,9.4309,9.4378,9.5103,9.5413,9.5413,9.5413,9.5413,9.5413,9.5413,9.5413,9.5586,9.7138,9.769,9.7897,9.938,9.9898,9.9898,9.9898,9.9898,9.9898,9.9898,9.9714,9.9514,9.9499,9.9263,9.9024,9.9009,9.8994,9.9084,9.9411,9.9499,9.9588,9.9825,9.9898,9.9898,9.9898,9.9898,9.9898,9.9898,9.9898,9.9898,9.9898,9.9898,9.9898,9.9898,9.9898,9.9898,9.9898,9.9898,9.9898,9.9898,9.9898,9.9898,9.9898,9.9898,9.9898,9.9898,9.9898,10.0206,10.0788,10.1203,10.1786,10.2487,10.3487,10.4394,10.5278,10.6092,10.6497,5.4161,5.897,6.4425,6.8964,7.2682,7.6206,7.9805,8.2327,8.4547,8.6578,8.7238,8.7412,8.7412,8.7412,8.7412,8.7412,8.7412,8.7412,8.7412,8.7811,8.8343,8.8983,8.8822,8.8338,8.7502,8.6738,8.5599,8.4063,8.4611,8.5374,8.6183,8.6347,8.6432,8.6507,8.5769,8.5077,8.4539,8.5326,8.6431,8.7746,8.9261,9.0208,9.072,9.2637,9.3551,9.362,9.4861,9.5413,9.5413,9.5413,9.5413,9.5448,9.5931,9.6089,9.631,9.7828,9.8414,9.8552,9.9553,9.9898,9.9898,9.9898,9.9898,9.9854,9.9685,9.9588,9.9411,9.896,9.8765,9.8629,9.8401,9.834,9.8432,9.878,9.9039,9.9203,9.9288,9.9641,9.9898,9.9898,9.9898,9.9898,9.9898,9.9898,9.9898,9.9898,9.9898,9.9898,9.9898,9.9898,9.9898,9.9898,9.9898,9.9898,9.9898,9.9898,9.9898,9.9898,9.9898,9.9898,9.9898,9.9898,10.022,10.0802,10.1293,10.2109,10.3018,10.3988,10.4813,10.55,10.6607,10.69,5.0394,5.4355,5.8928,6.248,6.6553,7.0836,7.5122,7.8534,8.1705,8.4923,8.618,8.6843,8.7317,8.7412,8.7412,8.7412,8.7412,8.7412,8.7412,8.7587,8.7899,8.8343,8.8031,8.7423,8.6475,8.5774,8.4771,8.3303,8.3847,0.0,8.5467,8.6055,8.6512,8.6876,8.5977,8.5593,8.5782,8.6188,8.709,8.8429,8.9635,9.0334,9.0603,9.2305,9.3089,9.3192,9.4723,9.5413,9.5413,9.5413,9.5413,9.5482,9.6193,9.6503,9.6676,9.8242,9.8794,9.8897,9.9656,9.9898,9.9898,9.9898,9.9898,9.984,9.9588,9.9411,9.9218,9.8659,9.8417,9.8279,9.8049,9.808,9.8218,9.8447,9.875,9.8994,9.8994,9.9391,9.9772,9.9772,9.986,9.9898,9.9898,9.9898,9.9898,9.9898,9.9898,9.9898,9.9898,9.9898,9.9898,9.9898,9.9898,9.9898,9.9898,9.9898,9.9898,9.9898,9.9898,9.9898,9.9898,9.9898,10.022,10.0802,10.1293,10.2202,10.3309,10.4287,10.5115,10.5586,10.6687,10.69,0.0,0.0,0.0,5.6555,6.0058,6.3967,6.8642,7.286,7.7157,8.2054,8.4186,8.5656,8.7078,8.7331,8.7348,8.7348,8.738,8.7412,8.7412,8.7412,8.7412,8.7412,8.6797,8.6101,8.5372,8.4711,8.3999,8.3255,8.3799,8.4475,8.5074,8.616,8.6921,8.7205,8.5882,8.5667,8.6708,8.6923,8.7704,8.9032,9.0232,9.0799,9.0834,9.2399,9.3089,9.3192,9.4723,9.5413,9.5413,9.5413,9.5413,9.5482,9.6227,9.6538,9.671,9.8276,9.8828,9.8932,9.9656,9.9898,9.9898,9.9898,9.9898,9.986,9.9573,9.9248,9.8935,9.8584,9.8249,9.7987,9.7987,9.8233,9.8493,9.8493,9.872,9.8965,9.8965,9.9248,9.9485,9.9499,9.9714,9.9898,9.9898,9.9898,9.9898,9.9898,9.9898,9.9898,9.9898,9.9898,9.9898,9.9898,9.9898,9.9898,9.9898,9.9898,9.9898,9.9898,9.9898,9.9898,9.9898,9.9898,10.022,10.0802,10.1306,10.2096,10.3309,10.4395,10.5092,10.56,10.6211,10.6413,4.5256,0.0,0.0,0.0,0.0,0.0,6.2123,6.6947,7.2279,7.8328,8.1235,8.3427,8.5785,8.6054,8.5895,8.5895,8.6748,8.7412,8.7412,8.7412,8.7412,8.7412,8.6797,8.6101,8.5372,8.4711,8.3999,0.0,8.3879,8.4635,8.5498,8.7171,8.8012,8.7933,8.7038,8.6825,8.7412,8.7606,8.8271,8.9386,9.0326,9.0799,9.0834,9.2399,9.3089,9.3192,9.4723,9.5413,9.5413,9.5413,9.5413,9.5517,9.6862,9.738,9.7552,9.9035,9.9587,9.9622,9.9829,9.9898,9.9898,9.9898,9.9898,9.9796,9.9307,9.9069,9.8889,9.8295,9.8064,9.7987,9.7987,9.8064,9.8141,9.8141,9.8203,9.8264,9.8264,9.8739,9.9203,9.9455,9.9714,9.9898,9.9898,9.9898,9.9898,9.9898,9.9898,9.9898,9.9898,9.9898,9.9898,9.9898,9.9898,9.9898,9.9898,9.9898,9.9898,9.9898,9.9898,9.9898,9.9898,9.9898,10.022,10.0802,10.1411,10.2202,10.3309,10.4287,10.4983,10.5586,10.6211,10.7,0.0,0.0,0.0,0.0,0.0,0.0,5.7327,6.1727,6.6838,7.3038,7.6415,7.9193,8.2255,8.274,8.2623,8.2307,8.343,8.4852,8.6337,8.6527,8.6527,8.6527,8.6179,8.5659,8.4947,8.4521,8.3999,8.3255,8.3847,8.4857,8.6206,8.7843,8.8723,8.8733,8.8147,8.8046,8.8458,8.8385,8.881,8.9676,9.0454,9.0799,9.0834,9.2399,9.3089,9.3192,9.4723,9.5413,9.5413,9.5413,9.5413,9.5517,9.6724,9.7207,9.738,9.8897,9.9449,9.9484,9.9794,9.9898,9.9898,9.9898,9.9831,9.9641,9.9159,9.8905,9.8675,9.8141,9.7987,9.7987,9.7987,9.7987,9.7987,9.7987,9.7987,9.7987,9.7987,9.8542,9.9054,9.9248,9.9626,9.9898,9.9898,9.9898,9.9898,9.9898,9.9898,9.9898,9.9898,9.9898,9.9898,9.9898,9.9898,9.9898,9.9898,9.9898,9.9898,9.9898,9.9898,9.9898,9.9898,9.9898,10.022,10.0802,10.1293,10.2509,10.4406,10.4716,10.5217,10.5918,10.6307,10.7084,4.7471,4.7722,0.0,0.0,0.0,0.0,5.3514,5.6883,6.107,6.662,7.0246,7.3476,7.6885,7.7746,7.7726,7.7032,7.8184,8.0491,8.4298,8.4961,8.5119,8.5277,8.5214,8.4947,8.4363,8.4286,8.3987,8.3371,8.4058,8.5344,8.7153,8.84,8.9174,8.9538,8.9221,8.9174,8.9538,8.9174,8.9346,8.9949,9.0548,9.0799,9.0834,9.2399,9.3089,9.3192,9.4723,9.5413,9.5413,9.5413,9.5413,9.5482,9.6193,9.6503,9.6676,9.8242,9.8794,9.8883,9.9613,9.9874,9.984,9.9796,9.9641,9.9381,9.9054,9.872,9.8432,9.8095,9.7987,9.7987,9.7987,9.7987,9.7987,9.7987,9.7987,9.7987,9.7987,9.8478,9.895,9.895,9.9465,9.9898,9.9898,9.9898,9.9898,9.9898,9.9898,9.9898,9.9898,9.9898,9.9898,9.9898,9.9898,9.9898,9.9898,9.9898,9.9898,9.9898,9.9898,9.9898,9.9898,9.9898,10.022,10.0802,10.1394,10.3104,10.5986,10.5416,10.5615,10.6717,10.6717,10.7084,4.8529,4.9103,4.9342,0.0,0.0,0.0,0.0,5.1769,5.5503,5.9867,6.3351,6.6648,7.006,7.0737,7.0592,7.0238,7.2005,7.5419,8.1186,8.2939,8.4045,8.5151,8.482,8.4426,8.43,8.4059,8.3924,8.4009,8.5576,8.7034,8.8243,8.9186,8.9758,8.9908,8.9758,8.9758,8.9908,8.9758,8.9908,9.0294,9.0641,9.0799,9.0834,9.2399,9.3089,9.3192,9.4723,9.5413,9.5413,9.5413,9.5413,9.5482,9.6193,9.6503,9.6676,9.8242,9.8794,9.8854,9.94,9.9588,9.9543,9.9278,9.9144,9.9039,9.869,9.8553,9.8432,9.8095,9.7987,9.7987,9.7987,9.7987,9.7987,9.7987,9.7987,9.7987,9.7987,9.831,9.8599,9.8599,9.9283,9.9898,9.9898,9.9898,9.9898,9.9898,9.9898,9.9898,9.9898,9.9898,9.9898,9.9898,9.9898,9.9898,9.9898,9.9898,9.9898,9.9898,9.9898,9.9898,9.9898,9.9898,10.022,10.0802,10.2206,10.4003,10.6106,10.6305,10.7116,10.8285,10.8285,10.8809,5.088,5.0768,5.0308,5.0751,0.0,0.0,0.0,0.0,5.2061,5.5248,5.8159,6.099,6.3834,6.4566,6.4564,6.4026,6.6634,7.0181,7.4432,7.8558,8.1802,8.3556,8.3746,8.3619,8.3288,8.37,8.4459,8.5545,8.712,8.8343,8.9206,8.9949,9.0374,9.0408,9.0374,9.0374,9.0408,9.0374,9.0441,9.0587,9.0733,9.0799,9.0834,9.2399,9.3089,9.3192,9.4723,9.5413,9.5413,9.5413,9.5413,9.5448,9.5827,9.5965,9.6138,9.769,9.8142,9.8157,9.9131,9.9381,9.9218,9.9054,9.8905,9.8705,9.8553,9.8386,9.8218,9.8049,9.7987,9.7987,9.7987,9.7987,9.7987,9.7987,9.7987,9.7987,9.7987,9.8264,9.8553,9.8705,9.9258,9.97,9.97,9.9816,9.9898,9.9898,9.9898,9.9898,9.9898,9.9898,9.9898,9.9898,9.9898,9.9898,9.9898,9.9898,9.9898,9.9898,9.9898,9.9898,9.9898,10.0312,10.1091,10.2295,10.3693,10.5407,10.7205,10.7706,10.8312,10.8799,10.8799,10.9202,0.0,0.0,0.0,0.0,0.0,4.8402,0.0,0.0,0.0,0.0,5.391,5.5979,5.7966,5.876,5.8951,5.8392,6.1577,6.4977,6.7426,7.2956,7.7898,8.0935,8.2014,8.2298,8.1806,8.3052,8.4664,8.6527,8.7775,8.8748,8.9505,9.0349,9.0799,9.0799,9.0799,9.0799,9.0799,9.0799,9.0799,9.0799,9.0799,9.0799,9.0834,9.2399,9.3089,9.3192,9.4723,9.5413,9.5413,9.5413,9.5413,9.5413,9.5551,9.562,9.5779,9.7274,9.764,9.7602,9.8872,9.9129,9.8905,9.8829,9.8614,9.8401,9.8401,9.8218,9.7987,9.7987,9.7987,9.7987,9.7987,9.7987,9.7987,9.7987,9.8049,9.8095,9.8095,9.8356,9.8675,9.895,9.9263,9.9514,9.9573,9.9758,9.9898,9.9898,9.9898,9.9898,9.9898,9.9898,9.9898,9.9898,9.9898,9.9898,9.9898,9.9898,9.9898,9.9898,9.9898,9.9898,9.9898,10.0822,10.2092,10.3811,10.4995,10.6506,10.8316,10.8907,10.9215,10.9312,10.9312,10.9606,0.0,0.0,0.0,0.0,5.1527,0.0,0.0,0.0,0.0,0.0,0.0,0.0,5.247,0.0,0.0,5.3567,5.6542,6.0076,6.3617,6.6552,7.0788,7.7338,7.9139,7.9927,8.0148,8.1796,8.3468,8.4948,8.6129,8.7215,8.8236,8.9904,9.0799,9.0799,9.0799,9.0799,9.0799,9.0799,9.0799,9.0799,9.0799,9.0799,9.0834,9.2399,9.3089,9.3192,9.4723,9.5413,9.5413,9.5413,9.5413,9.5482,9.6138,9.6365,9.6544,9.7775,9.8209,9.823,9.8503,9.8584,9.8508,9.8203,9.808,9.8049,9.8049,9.8018,9.7987,9.7987,9.7987,9.7987,9.7987,9.7987,9.7987,9.7987,9.8233,9.8447,9.8447,9.869,9.8965,9.8994,9.9263,9.9588,9.9831,9.9869,9.9898,9.9898,9.9898,9.9898,9.9898,9.9898,9.9898,9.9898,9.9898,9.9898,9.9898,9.9898,9.9898,9.9898,9.9898,9.9898,9.9898,10.1191,10.2616,10.3993,10.5092,10.6591,10.8485,10.8991,10.9896,11.0917,11.0917,11.1001,0.0,0.0,0.0,0.0,0.0,0.0,0.0,0.0,4.8539,0.0,0.0,0.0,0.0,0.0,0.0,0.0,5.4405,0.0,6.0166,6.2556,6.6495,7.3096,7.5227,7.6931,7.8935,8.0448,8.1895,8.3302,8.4412,8.5807,8.762,8.9251,9.0364,9.0799,9.0799,9.0799,9.0799,9.0799,9.0799,9.0799,9.0799,9.0799,9.0834,9.2399,9.3089,9.3192,9.4723,9.5413,9.5413,9.5413,9.5413,9.5517,9.6724,9.6931,9.6648,9.7835,9.8186,9.8069,9.8387,9.8371,9.8187,9.8049,9.7987,9.7987,9.7987,9.7987,9.7987,9.7987,9.7987,9.7987,9.7987,9.7987,9.7987,9.7987,9.8264,9.8508,9.8508,9.875,9.9054,9.9248,9.9396,9.9588,9.984,9.9898,9.9898,9.9898,9.9898,9.9898,9.9898,9.9898,9.9898,9.9898,9.9898,9.9898,9.9898,10.0312,10.0588,10.0588,10.1002,10.1401,10.1898,10.281,10.3915,10.5292,10.6392,10.7702,10.9101,10.9682,11.0385,11.121,11.121,11.121,6.2635,0.0,0.0,0.0,0.0,0.0,0.0,0.0,0.0,0.0,0.0,0.0,0.0,0.0,0.0,0.0,0.0,5.5383,5.7115,5.8727,0.0,0.0,0.0,0.0,7.6843,7.8117,7.9348,8.0851,8.1691,8.3247,8.573,8.7915,8.9433,9.0192,9.0592,9.0799,9.0799,9.0799,9.0799,9.0799,9.0799,9.0799,9.0834,9.2399,9.3089,9.3192,9.4723,9.5413,9.5413,9.5413,9.5413,9.5551,9.7104,9.7289,9.6831,9.8048,9.8333,9.8134,9.8304,9.8203,9.7987,9.7987,9.7987,9.7987,9.7987,9.7987,9.7987,9.7987,9.7987,9.7987,9.7987,9.7987,9.7987,9.7987,9.8325,9.8629,9.8629,9.8945,9.9337,9.9573,9.9632,9.9656,9.9889,9.9898,9.9898,9.9898,9.9898,9.9898,9.9898,9.9898,9.9898,9.9898,9.9898,9.9898,9.9898,10.0622,10.1189,10.1396,10.1898,10.2519,10.3313,10.392,10.4892,10.6191,10.7399,10.8491,10.9499,11.0107,11.0714,11.121,11.121,11.121,0.0,0.0,0.0,6.067,0.0,0.0,0.0,0.0,5.1654,0.0,0.0,0.0,0.0,0.0,0.0,0.0,0.0,0.0,0.0,0.0,0.0,0.0,0.0,0.0,7.3197,7.4273,7.5515,7.7248,7.7388,7.8764,8.181,8.5454,8.7846,8.8639,9.0054,9.0799,9.0799,9.0799,9.0799,9.0799,9.0799,9.0799,9.0834,9.2399,9.3089,9.3192,9.4723,9.5413,9.5413,9.5413,9.5413,9.5551,9.7104,9.7505,9.7327,9.8513,9.8975,9.887,9.8233,9.8003,9.7987,9.7987,9.7987,9.7987,9.7987,9.7987,9.7987,9.7987,9.7987,9.7987,9.7987,9.7987,9.7987,9.7987,9.8493,9.898,9.898,9.945,9.9869,9.9869,9.9869,9.9883,9.9898,9.9898,9.9898,9.9898,9.9898,9.9898,9.9898,9.9898,9.9898,9.9898,9.9898,9.9898,9.9898,10.0622,10.1381,10.2105,10.2209,10.2519,10.3313,10.392,10.4892,10.6289,10.7399,10.8491,10.9596,11.0096,11.0714,11.121,11.121,11.121,0.0,0.0,6.6759,6.5384,0.0,0.0,0.0,0.0,0.0,0.0,0.0,0.0,0.0,0.0,0.0,0.0,0.0,0.0,0.0,0.0,0.0,0.0,0.0,0.0,0.0,6.9659,7.1063,7.2097,7.2949,7.4971,7.8557,8.235,8.5454,8.7743,8.9295,9.0329,9.0799,9.0799,9.0799,9.0799,9.0799,9.0799,9.0834,9.2399,9.3089,9.3192,9.4723,9.5413,9.5413,9.5413,9.5413,9.5524,9.6829,9.7305,9.7347,9.8533,9.8874,9.8599,9.8157,9.7987,9.7987,9.7987,9.7987,9.7987,9.7987,9.7987,9.7987,9.7987,9.7987,9.7987,9.7987,9.7987,9.7987,9.7987,9.8493,9.8994,9.8994,9.948,9.9898,9.9898,9.9898,9.9898,9.9898,10.0297,10.0691,10.0691,10.1105,10.1415,10.1415,10.1415,10.1415,10.1415,10.1415,10.1415,10.1415,10.2105,10.2899,10.3707,10.3692,10.3796,10.4121,10.4683,10.5416,10.6191,10.7399,10.8491,10.9487,11.0107,11.0714,11.121,11.121,11.121,7.4922,7.3447,0.0,7.058,6.7958,0.0,6.2384,0.0,0.0,0.0,0.0,0.0,0.0,0.0,0.0,0.0,0.0,0.0,0.0,5.1023,0.0,0.0,0.0,0.0,0.0,6.5862,6.7283,6.8066,6.8999,7.1153,7.4971,7.9074,8.2799,8.6075,8.8454,9.0054,9.0799,9.0799,9.0799,9.0799,9.0799,9.095,9.1261,9.2537,9.3261,9.362,9.4861,9.5413,9.5413,9.5413,9.531,9.5371,9.6672,9.704,9.7013,9.8324,9.8599,9.8295,9.8064,9.7987,9.7987,9.7987,9.7987,9.7987,9.7987,9.7987,9.7987,9.7987,9.7987,9.7987,9.7987,9.7987,9.7987,9.7987,9.8401,9.881,9.881,9.9214,9.9583,9.9583,9.9891,10.0088,10.0088,10.1101,10.1691,10.1189,10.1691,10.2209,10.2209,10.2209,10.2209,10.2209,10.2209,10.2312,10.2588,10.2987,10.3608,10.4382,10.4501,10.4501,10.4501,10.4996,10.5393,10.5899,10.7087,10.8196,10.9208,10.9894,11.0586,11.121,11.121,11.121]},{"header":{"parameterUnit":"m.s-1","parameterCategory":1,"la1":30.6,"la2":29.2853,"lo1":-89.7004,"lo2":-87.6739,"dy":0.0162,"dx":0.0183,"nx":112,"ny":82,"refTime":"2026-04-01T12:00:00:Z","depth":0,"parameterNumber":3,"parameterNumberName":"V-component_of_WINDS"},"data":[0.0,0.0,0.0,0.0,0.0,0.0,0.0,0.0,0.0,0.0,0.0,0.0,0.0,0.0,0.0,0.0,0.0,0.0,0.0,0.0,0.0,0.0,0.0,0.0,0.0,0.0,0.0,0.0,0.0,0.0,0.0,0.0,0.0,0.0,0.0,0.0,0.0,0.0,0.0,0.0,0.0,0.0,0.0,0.0,0.0,0.0,0.0,0.0,0.0,0.0,0.0,0.0,0.0,0.0,0.0,0.0,0.0,0.0,0.0,0.0,0.0,0.0,0.0,0.0,0.0,0.0,0.0,0.0,0.0,0.0,0.0,0.0,0.0,0.0,0.0,0.0,0.0,0.0,0.0,0.0,0.0,0.0,0.0,0.0,0.0,0.0,0.0,0.0,0.0,0.0,0.0,2.173,2.6608,2.9076,2.7842,2.6526,2.4398,2.1142,0.0,0.0,0.0,0.0,0.0,0.0,0.0,0.0,0.0,0.0,0.0,0.0,0.0,0.0,0.0,0.0,0.0,0.0,0.0,0.0,0.0,0.0,0.0,0.0,0.0,0.0,0.0,0.0,0.0,0.0,0.0,0.0,0.0,0.0,0.0,0.0,0.0,0.0,0.0,0.0,0.0,0.0,0.0,0.0,0.0,0.0,0.0,0.0,0.0,0.0,0.0,0.0,0.0,0.0,0.0,0.0,0.0,0.0,0.0,0.0,0.0,0.0,0.0,0.0,0.0,0.0,0.0,0.0,0.0,0.0,0.0,0.0,0.0,0.0,0.0,0.0,0.0,0.0,0.0,0.0,0.0,0.0,0.0,0.0,0.0,0.0,0.0,0.0,0.0,0.0,0.0,0.0,0.0,0.0,0.0,0.0,0.0,0.0,0.0,0.0,0.0,0.0,0.0,0.0,2.077,2.5298,2.8575,2.9958,2.8861,2.7948,2.6019,2.2668,0.0,0.0,0.0,0.0,0.0,0.0,0.0,0.0,0.0,0.0,0.0,0.0,0.0,0.0,0.0,0.0,0.0,0.0,0.0,0.0,0.0,0.0,0.0,0.0,0.0,0.0,0.0,0.0,0.0,0.0,0.0,0.0,0.0,0.0,0.0,0.0,0.0,0.0,0.0,0.0,0.0,0.0,0.0,0.0,0.0,0.0,0.0,0.0,0.0,0.0,0.0,0.0,0.0,0.0,0.0,0.0,0.0,0.0,0.0,0.0,0.0,0.0,0.0,0.0,0.0,0.0,0.0,0.0,0.0,0.0,0.0,0.0,0.0,0.0,0.0,0.0,0.0,0.0,0.0,0.0,0.0,0.0,0.0,0.0,0.0,0.0,0.0,0.0,0.0,0.0,0.0,0.0,0.0,0.0,0.0,0.0,0.0,0.0,0.0,0.0,0.0,0.0,0.0,2.1862,2.4577,2.7249,2.9368,3.0117,2.8886,2.7909,2.6,2.2841,1.9098,0.0,0.0,0.0,0.0,0.0,0.0,0.0,0.0,0.0,0.0,0.0,0.0,0.0,0.0,0.0,0.0,0.0,0.0,0.0,0.0,0.0,0.0,0.0,0.0,0.0,0.0,0.0,0.0,0.0,0.0,0.0,0.0,0.0,0.0,0.0,0.0,0.0,0.0,0.0,0.0,0.0,0.0,0.0,0.0,0.0,0.0,0.0,0.0,0.0,0.0,0.0,0.0,0.0,0.0,0.0,0.0,0.0,0.0,0.0,0.0,0.0,0.0,0.0,0.0,0.0,0.0,0.0,0.0,0.0,0.0,0.0,0.0,0.0,0.0,0.0,0.0,0.0,0.0,0.0,0.0,0.0,0.0,0.0,0.0,0.0,0.0,0.0,0.0,0.0,0.0,0.0,0.0,0.0,0.0,0.0,0.0,0.0,0.0,0.0,0.0,0.0,0.0,2.5687,2.792,2.8588,2.9865,3.0056,2.8536,2.7447,2.5593,2.2646,1.983,0.0,0.0,0.0,0.0,0.0,0.0,0.0,0.0,0.0,0.0,0.0,0.0,0.0,0.0,0.0,0.0,0.0,0.0,0.0,0.0,0.0,0.0,0.0,0.0,0.0,0.0,0.0,0.0,0.0,0.0,0.0,0.0,0.0,0.0,0.0,0.0,0.0,0.0,0.0,0.0,0.0,0.0,0.0,0.0,0.0,0.0,0.0,0.0,0.0,0.0,0.0,0.0,0.0,0.0,0.0,0.0,0.0,0.0,0.0,0.0,0.0,0.0,0.0,0.0,0.0,0.0,0.0,0.0,0.0,0.0,0.0,0.0,0.0,0.0,0.0,0.0,0.0,0.0,0.0,0.0,0.0,0.0,0.0,0.0,0.0,0.0,0.0,0.0,0.0,0.0,0.0,0.0,0.0,0.0,0.0,0.0,0.0,0.0,0.0,0.0,0.0,0.0,2.7622,2.962,2.9681,3.0454,3.0129,2.8017,2.6923,2.5177,2.2473,1.9793,0.0,0.0,0.0,0.0,0.0,0.0,0.0,0.0,0.0,0.0,0.0,0.0,0.0,0.0,0.0,0.0,0.0,0.0,0.0,0.0,0.0,0.0,0.0,0.0,0.0,0.0,0.0,0.0,0.0,0.0,0.0,0.0,0.0,0.0,0.0,0.0,0.0,0.0,0.0,0.0,0.0,0.0,0.0,0.0,0.0,0.0,0.0,0.0,0.0,0.0,0.0,0.0,0.0,0.0,0.0,0.0,0.0,0.0,0.0,0.0,0.0,0.0,0.0,0.0,0.0,0.0,0.0,0.0,0.0,0.0,0.0,0.0,0.0,0.0,0.0,0.0,0.0,0.0,0.0,0.0,0.0,0.0,0.0,0.0,0.0,0.0,0.0,0.0,0.0,0.0,0.0,0.0,0.0,0.0,0.0,0.0,0.0,0.0,0.0,0.0,0.0,0.0,2.8053,3.0117,0.0,3.0721,3.0328,2.8636,2.7181,2.5244,2.2646,0.0,0.0,0.0,0.0,0.0,0.0,0.0,0.0,0.0,0.0,0.0,0.0,0.0,0.0,0.0,0.0,0.0,0.0,0.0,0.0,0.0,0.0,0.0,0.0,0.0,0.0,0.0,0.0,0.0,0.0,0.0,0.0,0.0,0.0,0.0,0.0,0.0,0.0,0.0,0.0,0.0,0.0,0.0,0.0,0.0,0.0,0.0,0.0,0.0,0.0,0.0,0.0,0.0,0.0,0.0,0.0,0.0,0.0,0.0,0.0,0.0,0.0,0.0,0.0,0.0,0.0,0.0,0.0,0.0,0.0,0.0,0.0,0.0,0.0,0.0,0.0,0.0,0.0,0.0,0.0,0.0,0.0,0.0,0.0,0.0,0.0,0.0,0.0,0.0,0.0,0.0,0.0,0.0,0.0,0.0,0.0,0.0,0.0,0.0,0.0,0.0,0.0,2.5053,2.8376,3.059,0.0,3.1354,3.0983,2.933,2.7833,2.5814,2.3088,0.0,0.0,0.0,0.0,0.0,0.0,0.0,0.0,0.0,0.0,0.0,0.0,0.0,0.0,0.0,0.0,0.0,0.0,0.0,0.0,0.0,0.0,0.0,0.0,0.0,0.0,0.0,0.0,0.0,0.0,0.0,0.0,0.0,0.0,0.0,0.0,0.0,0.0,0.0,0.0,0.0,0.0,0.0,0.0,0.0,0.0,0.0,0.0,0.0,0.0,0.0,0.0,0.0,0.0,0.0,0.0,0.0,0.0,0.0,0.0,0.0,0.0,0.0,0.0,0.0,0.0,0.0,0.0,0.0,0.0,0.0,0.0,0.0,0.0,0.0,0.0,0.0,0.0,0.0,0.0,0.0,0.0,0.0,0.0,0.0,0.0,0.0,0.0,0.0,0.0,0.0,0.0,0.0,0.0,0.0,0.0,0.0,0.0,0.0,0.0,0.0,0.0,2.5074,2.8731,3.1212,3.1472,3.2475,3.2213,3.0008,2.8832,2.6908,0.0,0.0,0.0,0.0,0.0,0.0,0.0,0.0,0.0,0.0,0.0,0.0,0.0,0.0,0.0,0.0,0.0,0.0,0.0,0.0,0.0,0.0,0.0,0.0,0.0,0.0,0.0,0.0,0.0,0.0,0.0,0.0,0.0,0.0,0.0,0.0,0.0,0.0,0.0,0.0,0.0,0.0,0.0,0.0,0.0,0.0,0.0,0.0,0.0,0.0,0.0,0.0,0.0,0.0,0.0,0.0,0.0,0.0,0.0,0.0,0.0,0.0,0.0,0.0,0.0,0.0,0.0,0.0,0.0,0.0,0.0,0.0,0.0,0.0,0.0,0.0,0.0,0.0,0.0,0.0,0.0,0.0,0.0,0.0,0.0,0.0,0.0,0.0,0.0,0.0,0.0,0.0,0.0,0.0,0.0,0.0,0.0,0.0,0.0,0.0,0.0,0.0,0.0,2.5567,2.8968,3.1426,3.2275,3.2797,3.2648,3.1509,3.0228,2.8278,2.5465,0.0,0.0,0.0,0.0,0.0,0.0,0.0,0.0,0.0,0.0,0.0,0.0,0.0,0.0,0.0,0.0,0.0,0.0,0.0,0.0,0.0,0.0,0.0,0.0,0.0,0.0,0.0,0.0,0.0,0.0,0.0,0.0,0.0,0.0,0.0,0.0,0.0,0.0,0.0,0.0,0.0,0.0,0.0,0.0,0.0,0.0,0.0,0.0,0.0,0.0,0.0,0.0,0.0,0.0,0.0,0.0,0.0,0.0,0.0,0.0,0.0,0.0,0.0,0.0,0.0,0.0,0.0,0.0,0.0,0.0,0.0,0.0,0.0,0.0,0.0,0.0,0.0,0.0,0.0,0.0,0.0,0.0,0.0,0.0,0.0,0.0,0.0,0.0,0.0,0.0,0.0,0.0,0.0,0.0,0.0,0.0,0.0,0.0,0.0,0.0,0.0,0.0,2.6151,2.9778,3.2353,3.311,3.3718,3.3759,3.2889,3.182,2.9894,2.6867,0.0,0.0,0.0,0.0,0.0,0.0,0.0,0.0,0.0,0.0,0.0,0.0,0.0,0.0,0.0,0.0,0.0,0.0,0.0,0.0,0.0,0.0,0.0,0.0,0.0,0.0,0.0,0.0,0.0,0.0,0.0,0.0,0.0,0.0,0.0,0.0,0.0,0.0,0.0,0.0,0.0,0.0,0.0,0.0,0.0,0.0,0.0,0.0,0.0,0.0,0.0,0.0,0.0,0.0,0.0,0.0,0.0,0.0,0.0,0.0,0.0,0.0,0.0,0.0,0.0,0.0,0.0,0.0,0.0,0.0,0.0,0.0,0.0,0.0,0.0,0.0,0.0,0.0,0.0,0.0,0.0,0.0,0.0,0.0,0.0,0.0,0.0,0.0,0.0,0.0,0.0,0.0,0.0,0.0,0.0,0.0,0.0,0.0,0.0,0.0,0.0,0.0,2.6796,3.0875,3.3615,3.3941,3.4967,3.5138,3.4028,3.3385,3.153,2.8043,0.0,0.0,0.0,0.0,0.0,0.0,0.0,0.0,0.0,0.0,0.0,0.0,0.0,0.0,0.0,0.0,0.0,0.0,0.0,0.0,0.0,0.0,0.0,0.0,0.0,0.0,0.0,0.0,0.0,0.0,0.0,0.0,0.0,0.0,0.0,0.0,0.0,0.0,0.0,0.0,0.0,0.0,0.0,0.0,0.0,0.0,0.0,0.0,0.0,0.0,0.0,0.0,0.0,0.0,0.0,0.0,0.0,0.0,0.0,0.0,2.0357,0.0,0.0,0.0,0.0,0.0,0.0,0.0,0.0,0.0,0.0,0.0,0.0,0.0,0.0,0.0,0.0,0.0,0.0,0.0,0.0,0.0,0.0,0.0,0.0,0.0,0.0,0.0,0.0,0.0,0.0,0.0,0.0,0.0,0.0,0.0,0.0,0.0,0.0,0.0,0.0,0.0,2.7306,3.1105,3.3796,3.4515,3.5205,3.5218,3.4283,3.3668,3.1987,2.893,0.0,0.0,0.0,0.0,0.0,0.0,0.0,0.0,0.0,0.0,0.0,0.0,0.0,0.0,0.0,0.0,0.0,0.0,0.0,0.0,0.0,0.0,0.0,0.0,0.0,0.0,0.0,0.0,0.0,0.0,0.0,0.0,0.0,0.0,0.0,0.0,0.0,0.0,0.0,0.0,0.0,0.0,0.0,0.0,0.0,0.0,0.0,0.0,0.0,0.0,0.0,0.0,0.0,0.0,0.0,0.0,0.0,0.0,0.0,0.0,0.0,2.2556,0.0,0.0,0.0,0.0,0.0,0.0,0.0,0.0,0.0,0.0,0.0,0.0,0.0,0.0,0.0,0.0,0.0,0.0,0.0,0.0,0.0,0.0,0.0,0.0,0.0,0.0,0.0,0.0,0.0,0.0,0.0,0.0,0.0,0.0,0.0,0.0,0.0,0.0,0.0,0.0,2.7841,3.1813,3.4503,3.4924,3.5498,3.5431,3.4377,3.3908,3.2438,2.9611,2.7362,0.0,0.0,0.0,0.0,0.0,0.0,0.0,0.0,0.0,0.0,0.0,0.0,0.0,0.0,0.0,0.0,0.0,0.0,0.0,0.0,0.0,0.0,0.0,0.0,0.0,0.0,0.0,0.0,0.0,0.0,0.0,0.0,0.0,0.0,0.0,0.0,0.0,0.0,0.0,0.0,0.0,0.0,0.0,0.0,0.0,0.0,0.0,0.0,0.0,0.0,0.0,0.0,0.0,3.096,3.1194,3.141,3.1313,3.1803,3.2553,2.9326,2.759,2.7009,2.6665,0.0,0.0,0.0,0.0,0.0,0.0,0.0,0.0,0.0,0.0,0.0,0.0,0.0,0.0,0.0,0.0,0.0,0.0,0.0,0.0,0.0,0.0,0.0,0.0,2.4401,2.4247,0.0,0.0,0.0,0.0,0.0,0.0,0.0,0.0,0.0,0.0,0.0,0.0,2.8474,3.258,3.5191,3.5191,3.5752,3.5645,3.4496,3.4082,3.2839,3.0381,2.8572,2.6359,0.0,0.0,0.0,0.0,0.0,0.0,0.0,0.0,0.0,0.0,0.0,0.0,0.0,0.0,0.0,0.0,0.0,0.0,0.0,0.0,0.0,0.0,0.0,0.0,0.0,0.0,0.0,0.0,0.0,0.0,0.0,0.0,2.2254,2.2585,0.0,0.0,0.0,0.0,0.0,0.0,0.0,0.0,0.0,0.0,0.0,0.0,0.0,2.9789,3.2085,3.4094,3.5552,3.6412,3.6009,3.5972,3.627,3.5727,3.6133,3.7256,3.7769,0.0,3.1675,3.2306,0.0,0.0,0.0,0.0,0.0,0.0,0.0,0.0,0.0,0.0,0.0,0.0,0.0,0.0,0.0,0.0,0.0,0.0,0.0,0.0,0.0,0.0,2.7278,2.7197,2.8153,2.8871,0.0,2.5475,2.316,2.2418,2.1146,0.0,0.0,0.0,0.0,0.0,0.0,0.0,2.9223,3.2886,3.5191,3.5191,3.5752,3.5725,3.4816,3.4228,3.3211,3.1567,2.9757,2.7829,2.5677,2.3562,0.0,0.0,0.0,0.0,0.0,0.0,0.0,0.0,0.0,0.0,0.0,0.0,0.0,0.0,0.0,0.0,0.0,0.0,0.0,0.0,0.0,0.0,0.0,0.0,0.0,0.0,0.0,0.0,0.0,2.3643,2.5586,2.5246,2.5177,2.4594,0.0,0.0,0.0,0.0,0.0,0.0,0.0,0.0,0.0,3.1356,3.3652,3.5964,3.8241,4.0452,4.1854,4.2463,4.2435,4.2487,4.2587,4.2327,4.2591,4.3322,4.4065,4.2748,3.9829,3.7084,3.3914,3.0495,0.0,0.0,0.0,0.0,2.67,2.8226,2.9916,3.0547,0.0,3.0176,0.0,0.0,0.0,0.0,0.0,0.0,0.0,0.0,0.0,0.0,2.9597,2.9361,2.9951,3.0472,3.0144,2.8748,2.7127,0.0,2.4448,2.3171,2.1683,0.0,0.0,0.0,0.0,0.0,2.9628,3.2898,3.4991,3.5177,3.5578,3.5538,3.4856,3.4548,3.384,3.2516,3.1554,3.011,2.8051,2.6305,2.4459,0.0,0.0,0.0,0.0,0.0,0.0,0.0,0.0,0.0,0.0,0.0,0.0,0.0,0.0,0.0,0.0,0.0,0.0,0.0,0.0,0.0,0.0,0.0,0.0,0.0,0.0,0.0,0.0,2.69,2.8831,2.8251,2.8428,2.7928,0.0,0.0,0.0,0.0,0.0,0.0,3.1263,3.2821,3.4708,3.6847,3.906,4.1232,4.3334,4.5572,4.6827,4.7129,4.7494,4.7641,4.76,4.7555,4.7692,4.7925,4.8209,4.7712,4.6357,4.1636,3.7999,3.5141,3.2026,3.0783,3.0731,3.0523,3.1582,3.3317,3.4763,3.5419,3.5552,3.5259,0.0,3.1081,2.87,0.0,0.0,0.0,0.0,2.8601,2.9848,3.1145,3.1989,3.1466,3.1576,3.1736,3.148,3.1288,3.0566,0.0,2.7357,2.6128,2.4537,0.0,0.0,0.0,0.0,2.753,3.033,3.3054,3.4844,3.5164,3.5431,3.5364,3.4843,3.4722,3.4228,3.316,3.2795,3.1778,2.9922,2.8492,2.67,2.4507,0.0,0.0,0.0,0.0,0.0,0.0,0.0,0.0,0.0,0.0,0.0,0.0,0.0,0.0,0.0,0.0,0.0,0.0,0.0,0.0,0.0,0.0,0.0,0.0,0.0,0.0,0.0,0.0,0.0,3.1941,3.2171,0.0,0.0,0.0,0.0,3.1422,3.3718,3.5526,3.6651,3.7764,3.9422,4.1767,4.2779,4.4212,4.6175,4.7892,4.8939,4.9335,4.9608,4.9746,4.9738,4.9608,4.9566,4.9584,4.9531,4.93,4.8725,4.611,4.3097,3.9935,3.7726,3.652,3.6082,3.6638,3.7717,3.9204,4.1511,4.2107,4.184,4.1806,3.8797,3.4779,3.2784,3.1561,0.0,0.0,3.285,3.4046,3.3881,3.4504,3.4911,3.3887,3.3685,3.3604,3.3015,3.2881,3.2347,0.0,2.9238,2.7989,2.6837,0.0,2.4823,2.6362,2.7402,2.8965,3.1659,3.3577,3.4844,3.5164,3.5431,3.5364,3.4843,3.4509,3.4056,3.3404,3.2891,3.2045,3.0782,2.9557,2.8075,2.6293,2.3976,0.0,0.0,0.0,0.0,0.0,0.0,0.0,0.0,0.0,0.0,0.0,0.0,0.0,0.0,0.0,0.0,0.0,0.0,0.0,0.0,0.0,0.0,0.0,0.0,0.0,0.0,0.0,0.0,3.5909,3.6644,0.0,3.5793,3.5186,3.5578,3.7377,3.9678,4.1389,4.234,4.3471,4.4726,4.6079,4.6676,4.7677,4.9151,4.9761,5.0387,5.1047,5.1156,5.1178,5.1196,5.1156,5.1104,5.1104,5.1104,5.0656,4.9908,4.8758,4.6283,4.2972,4.0746,3.9811,3.9662,3.9535,4.0518,4.2026,4.3176,4.3795,4.3925,4.2899,4.0271,3.7406,3.6802,3.5547,3.4629,3.6123,3.6889,3.7324,3.7646,3.7836,3.7751,3.6859,3.6615,3.6326,3.5327,3.4595,3.3805,3.2797,3.1631,3.0517,2.9535,2.8453,2.8039,2.8986,2.9371,3.0277,3.2182,3.344,3.4376,3.4896,3.503,3.5016,3.4802,3.4696,3.4362,3.3761,3.3546,3.2984,3.2005,3.133,3.0064,2.8115,2.6321,2.4329,0.0,0.0,0.0,0.0,0.0,0.0,0.0,0.0,0.0,0.0,0.0,0.0,0.0,0.0,0.0,0.0,0.0,0.0,0.0,0.0,0.0,0.0,0.0,0.0,0.0,0.0,3.8637,3.9157,4.0252,4.0676,3.9843,3.9762,4.0386,4.1834,4.4038,4.5535,4.6085,4.7002,4.7864,4.8671,4.9111,4.9819,5.0882,5.1157,5.1579,5.211,5.2238,5.2312,5.2312,5.2312,5.2312,5.2293,5.2165,5.175,5.1131,5.0555,4.8948,4.6623,4.4202,4.3206,4.3079,4.2922,4.3531,4.4514,4.4832,4.5258,4.543,4.3961,4.2442,4.1093,4.095,4.0229,3.975,4.1074,4.1533,4.1607,4.1677,4.1315,4.0735,3.9847,3.9307,3.8655,3.7236,3.6037,3.4986,3.4042,3.291,3.1917,3.133,3.0675,3.0404,3.0898,3.0965,3.1433,3.2703,3.3479,3.4134,3.4722,3.4789,3.4749,3.4655,3.4548,3.4241,3.3614,3.3425,3.2998,3.2326,3.1901,3.0812,2.9028,2.6981,2.477,2.2452,0.0,0.0,0.0,0.0,0.0,0.0,0.0,0.0,0.0,0.0,0.0,0.0,0.0,0.0,0.0,0.0,0.0,0.0,0.0,0.0,0.0,0.0,0.0,3.3818,3.7797,4.0897,4.1648,4.2869,4.3488,4.3016,4.3411,4.3972,4.4694,4.6615,4.7754,4.7754,4.8102,4.8671,4.9478,4.9892,5.0479,5.1293,5.2092,5.2513,5.2513,5.2898,5.3082,5.3082,5.3082,5.3082,5.3091,5.2678,5.2513,5.2431,5.1511,5.1134,5.0838,4.8191,4.682,4.6363,4.6932,4.701,4.6835,4.6852,4.6808,4.662,4.5523,4.5517,4.577,4.5052,4.5516,4.6259,4.6283,4.6628,4.6803,4.5852,4.4812,4.3783,4.2707,4.1716,4.0546,3.8688,3.7273,3.59,3.4351,3.2995,3.2131,3.2131,3.1915,3.1834,3.2104,3.2131,0.0,3.3307,3.3681,3.4121,3.4709,3.4776,3.4655,3.4323,3.4055,3.3653,3.3024,3.2412,3.1957,3.1674,3.1126,3.0234,2.9001,2.5873,2.3411,2.1679,0.0,0.0,0.0,0.0,0.0,0.0,0.0,0.0,0.0,0.0,0.0,0.0,0.0,0.0,0.0,0.0,0.0,0.0,0.0,0.0,0.0,0.0,3.5925,3.6732,4.0455,4.3624,4.4993,4.6226,4.7053,4.7204,4.7338,4.7624,4.8106,4.8669,4.9001,4.9001,4.8836,4.8983,4.9478,4.9892,5.0479,5.1293,5.2092,5.2642,5.2935,5.3054,5.3082,5.3082,5.3082,5.3082,5.3082,5.2972,5.277,5.2495,5.2224,5.1709,5.0947,4.9371,4.8718,4.8605,4.8106,4.767,4.7418,4.7713,4.7364,4.6758,4.6552,4.621,4.5895,4.5887,4.5681,4.5501,4.5881,4.5698,4.534,4.5243,4.4957,4.4545,4.4148,4.4011,4.3348,4.1148,3.918,3.7324,3.5621,3.3918,3.2757,3.2757,3.2703,3.2743,3.3013,3.2866,0.0,3.3322,3.3494,3.3774,3.4376,3.4442,3.4402,3.4296,3.4055,3.3559,3.2768,3.2142,3.158,3.1086,3.0875,3.014,2.8729,2.6607,2.4828,0.0,0.0,0.0,0.0,0.0,0.0,0.0,0.0,0.0,0.0,0.0,0.0,0.0,0.0,0.0,0.0,0.0,0.0,0.0,0.0,0.0,0.0,3.6475,3.9371,4.0859,4.3389,4.5577,4.6861,4.8066,4.8891,4.9129,4.9287,4.9489,4.9727,5.0065,5.012,4.9764,4.9526,4.9507,4.9727,5.0131,5.0735,5.1542,5.2348,5.2862,5.3082,5.3082,5.3082,5.3082,5.3082,5.3082,0.0,5.3082,5.2953,5.2752,5.2752,5.2416,0.0,0.0,0.0,0.0,0.0,4.9045,4.9036,4.8843,4.8429,4.7922,4.7694,4.7478,4.7253,4.6915,4.6386,4.5919,4.5923,4.532,4.4774,4.5088,4.5386,4.558,4.5684,4.6084,4.574,4.3171,4.0826,3.8623,3.6538,3.4524,0.0,3.3334,3.3467,3.3601,3.3736,3.3654,3.3601,3.3774,3.3762,3.3975,3.4456,3.4509,3.4456,3.431,3.3935,0.0,0.0,0.0,3.1059,3.0448,3.0314,0.0,0.0,0.0,0.0,0.0,0.0,0.0,0.0,2.2097,2.2565,0.0,0.0,0.0,0.0,0.0,0.0,0.0,0.0,0.0,0.0,0.0,0.0,0.0,0.0,0.0,0.0,3.9667,4.2821,4.5113,4.6269,4.7167,4.7882,4.8909,4.9588,4.9643,4.9984,5.0241,5.0241,5.0937,5.1055,5.0277,0.0,0.0,0.0,0.0,5.112,5.1882,5.2697,5.3082,5.3082,5.3082,5.3082,5.3082,5.3082,5.3082,5.3082,5.3082,5.3082,5.3082,5.3082,5.3082,5.2981,5.1747,5.0894,5.0366,5.0366,5.0688,5.0973,5.0028,0.0,0.0,4.8793,4.8907,4.9079,4.7938,4.7362,4.6929,4.6122,4.532,4.4788,4.5187,4.592,4.6678,4.7075,4.7809,4.7649,4.4841,4.2384,3.9975,3.7477,3.5297,3.3955,3.424,3.4303,3.4296,3.4296,3.4296,3.4296,3.4296,3.4296,3.4429,3.4762,0.0,0.0,3.4363,3.3789,3.3213,3.2688,3.1487,3.0541,2.9993,2.9686,2.9419,2.9148,2.8356,2.7675,2.7154,2.6947,2.6987,2.7208,2.5672,2.5693,0.0,0.0,0.0,0.0,0.0,0.0,0.0,0.0,0.0,0.0,0.0,0.0,0.0,0.0,0.0,3.8693,4.1944,4.4623,4.6072,4.8084,4.9452,4.9617,4.9837,5.0112,5.0424,5.0809,5.1073,5.1073,5.1505,5.1579,5.1084,5.0754,5.0589,5.0589,5.0955,5.1414,5.1909,5.2697,5.3082,5.3082,0.0,0.0,5.3082,5.3082,5.3082,5.3082,5.3082,5.3082,5.3082,5.3082,5.3082,5.3045,5.246,5.1855,5.1343,5.1511,5.1375,5.1027,5.0524,5.0009,4.9548,4.9236,4.9218,4.9156,4.8396,4.7662,0.0,4.6122,4.532,4.4788,4.5187,4.614,4.7094,4.7479,4.8451,4.8584,4.614,4.3998,4.1944,3.9753,3.7963,3.6766,3.666,3.533,3.4296,3.4296,3.4296,3.4296,3.4296,3.4296,3.4429,3.4762,3.4789,3.4762,3.4709,3.4161,3.3534,3.2957,3.1594,3.0658,3.031,2.9993,2.9913,3.0123,2.97,2.941,2.9304,2.9521,2.9762,2.998,2.8016,2.7621,0.0,0.0,0.0,0.0,0.0,0.0,0.0,0.0,0.0,0.0,0.0,3.2368,3.4587,0.0,3.8843,4.1262,4.3701,4.5797,4.721,4.8964,5.0112,5.0112,5.0277,5.0552,5.0955,5.1183,5.1377,5.1579,5.1964,5.2019,5.1615,5.1414,5.1304,5.1304,5.1487,5.1799,5.2202,5.2788,5.3082,5.3082,5.3082,5.3082,5.3082,5.3082,5.3082,5.3082,5.3082,5.3082,5.3082,5.3082,5.3082,5.3091,5.2862,5.2626,5.2345,5.246,5.2333,5.2036,5.1636,5.1168,5.0693,5.0385,5.0163,4.9869,4.9127,4.8341,4.7534,4.6727,4.5902,4.5393,4.5815,4.6635,4.7497,4.7901,4.8763,4.9031,4.7317,4.5588,4.3892,4.2309,4.0738,3.9469,3.8803,3.7412,3.6124,3.527,3.4919,3.4763,3.4763,3.4763,3.4817,3.499,3.5003,3.495,3.4802,3.4082,3.3425,3.2848,3.1955,3.134,3.1045,3.0898,3.0885,3.1055,3.0898,3.0795,3.0795,3.0965,3.1193,3.1423,3.0381,3.006,0.0,0.0,0.0,0.0,0.0,0.0,0.0,0.0,3.0002,3.1524,3.345,3.5522,3.7703,3.9485,4.1323,4.3503,4.5187,4.6769,4.8194,4.9459,5.0186,5.0112,5.0516,5.0937,5.1275,5.1458,5.167,5.2,5.2385,5.2477,5.2165,5.2147,5.2147,5.2147,5.2147,5.2293,5.2605,5.2935,5.3082,5.3082,5.3082,5.3082,5.3082,5.3082,5.3082,5.3082,5.3082,5.3082,5.3082,5.3082,5.3082,5.3082,5.3082,5.3082,5.3082,5.3082,5.3082,5.3027,5.2642,5.2238,5.1835,5.1414,5.1037,5.0552,4.9845,4.9111,4.8377,4.7662,4.6929,4.6457,4.6769,4.7467,4.8121,4.8476,4.9148,4.9417,4.8291,4.7002,4.5712,4.458,4.3293,4.2026,4.0914,3.9858,3.8459,3.6466,3.5612,3.5191,3.5191,3.5191,3.5191,3.5191,3.5191,3.5084,3.4816,3.4121,3.3452,3.2888,3.261,3.2291,3.1968,3.1941,3.1928,3.1885,3.1861,3.1861,3.1861,3.1861,3.1981,3.2209,3.2209,3.2088,2.5902,2.7187,2.9559,3.1139,3.2095,3.2754,0.0,0.0,3.4092,3.5339,3.719,3.9023,4.0421,4.1999,4.3536,4.4875,4.6452,4.7809,4.8726,4.9856,5.0497,5.0149,5.0754,5.1257,5.1312,5.1945,5.2385,5.2422,5.2807,5.3008,5.2953,5.298,5.298,5.298,5.298,5.2999,5.3027,5.3091,5.3082,5.3082,5.3082,5.3082,5.3082,5.3082,5.3082,5.3082,5.3082,5.3082,5.3082,5.3082,5.3082,5.3082,5.3082,5.3082,5.3082,5.3082,5.3082,5.3027,5.2642,5.2238,5.1835,5.1414,5.1037,5.0607,5.0167,4.9709,4.9276,4.8811,4.8377,4.8054,4.809,4.8714,4.9313,4.9349,4.9991,5.0195,4.8877,4.8092,4.7249,4.594,4.5163,4.4363,4.3231,4.2134,4.0389,3.7263,3.5902,3.5191,3.5191,3.5191,3.5191,3.5191,3.5191,3.5084,3.4816,3.4696,3.4388,3.38,3.3733,3.3427,3.2877,3.285,3.273,3.25,3.25,3.25,3.25,3.25,3.2514,3.2541,3.2541,3.2527,2.888,3.0256,3.2368,0.0,3.5428,3.672,3.6683,3.7165,3.8,3.9205,4.046,4.1742,4.2953,4.3742,4.4604,0.0,4.6947,4.7974,4.8799,4.9929,5.0461,4.9845,5.0065,5.045,5.0927,5.1477,5.1982,5.2458,5.2862,5.3082,5.3082,5.3082,5.3082,5.3082,5.3082,5.3082,5.3082,5.3082,5.3082,5.3082,5.3082,5.3082,5.3082,5.3082,5.3082,5.3082,5.3082,5.3082,5.3082,5.3082,5.3082,5.3082,5.3082,5.2953,5.2752,5.2752,5.288,5.3027,5.2642,5.2385,5.2183,5.178,5.1377,5.0955,5.057,5.0332,5.0149,4.9984,4.9845,4.9698,4.9698,4.9955,5.0211,5.0211,5.0468,5.0555,4.9975,4.9514,4.9011,4.8457,4.7959,4.7317,4.6206,4.5089,4.3684,4.1687,3.8943,3.7002,3.6701,3.6387,3.5954,3.527,3.5191,3.5151,3.5057,3.4883,3.4682,3.4441,3.4242,3.4028,3.3774,3.3761,3.3708,3.3587,3.3574,3.3574,3.3574,3.3574,3.3574,3.3574,3.3574,3.3574,3.1212,0.0,0.0,3.6239,3.8389,4.0098,3.9959,4.0479,4.1238,4.2113,4.2713,4.3357,4.4347,4.4714,4.5228,4.6329,4.7351,4.8286,4.8983,5.0002,5.0387,4.9606,4.9404,4.9533,4.9991,5.0706,5.1469,5.2275,5.2807,5.3082,5.3082,5.3082,5.3082,5.3082,5.3082,5.3082,5.3082,5.3219,5.3274,5.3274,5.3384,5.3439,5.3439,5.3439,5.3439,5.3439,5.3439,5.3439,5.3439,5.3439,5.3439,5.3439,5.3302,5.3008,5.2642,5.2422,5.2513,5.2715,5.244,5.2257,5.211,5.1835,5.145,5.1065,5.0772,5.0699,5.0699,5.0699,5.0699,5.0699,5.0699,5.0699,5.0699,5.0699,5.0699,5.0662,5.0552,5.0314,5.0076,4.9947,4.9716,4.9217,4.8299,4.7316,4.6346,4.5416,4.2639,4.0141,3.8713,3.7555,3.6466,3.5322,3.5191,3.5191,3.5191,3.503,3.4909,3.4909,3.4683,3.4523,3.4442,3.4442,3.4377,3.4296,3.4296,3.4296,3.4296,3.4296,3.4296,3.4296,3.4296,3.4296,0.0,0.0,3.6128,3.858,4.0748,4.2408,4.2854,4.3238,4.3491,4.3528,4.3523,4.3609,4.4054,4.4746,4.5535,4.6366,4.7827,4.9019,4.9423,5.0167,5.0387,4.9606,4.9166,4.8781,0.0,4.9808,5.1047,5.1872,5.2642,5.3082,5.3082,5.3082,5.3082,5.3082,5.3082,5.3082,5.3082,5.3476,5.3677,5.3677,5.409,5.4255,5.4255,5.4255,5.4255,5.4255,5.4255,5.4255,5.4255,5.4255,5.4255,5.4209,5.3833,5.3448,5.2999,5.222,5.1945,5.1945,5.1927,5.1652,5.1322,5.133,5.1055,5.0717,5.0699,5.0699,5.0699,5.0699,5.0699,5.0699,5.0699,5.0699,5.0699,5.0699,5.0699,5.0589,5.0204,5.0112,4.9984,4.9606,4.9514,4.9318,4.8784,4.8222,4.7641,4.7102,4.6467,4.4747,4.1078,3.8428,3.6466,3.5322,3.5191,3.5191,3.5191,3.5191,3.5177,3.5177,3.5177,3.507,3.4789,3.4776,3.4642,3.4296,3.4296,3.4296,3.4296,3.4296,3.4296,3.4296,3.4296,3.4296,3.4099,0.0,3.9383,4.101,4.3227,4.5026,4.5179,4.5531,4.57,4.5392,4.4615,4.4165,4.4835,4.519,4.5826,4.7196,4.8556,4.9558,4.9966,5.0417,5.0387,4.9606,4.8909,0.0,0.0,0.0,0.0,5.0662,5.1707,5.2422,5.2678,5.2935,5.3082,5.3082,5.3082,5.3082,5.3082,5.3503,5.3696,5.3696,5.409,5.431,5.431,5.431,5.431,5.431,5.431,5.431,5.431,5.431,5.431,5.4255,5.3842,5.3448,5.3027,5.2495,5.2128,5.1872,5.1597,5.1579,5.1652,5.1403,5.122,5.1055,5.0772,5.0699,5.0699,5.0699,5.0882,5.1055,5.0754,5.0908,5.101,5.0754,5.0699,5.0662,5.0516,5.0497,5.0461,5.0314,5.0303,5.0226,5.0045,4.9864,4.9709,4.9527,4.7019,4.4365,4.2124,4.0423,3.8993,3.7838,3.7404,3.7118,3.6954,3.639,3.5883,3.5485,3.5311,3.5151,3.5083,3.5083,3.5004,3.491,3.4897,3.4897,3.4897,3.4897,3.4897,3.4897,3.4897,3.4897,3.6618,3.9465,4.2154,4.3516,4.5436,4.7028,4.7186,4.7173,4.6899,4.6145,4.456,4.3509,4.4168,4.4413,4.5112,4.6953,4.8641,4.9834,5.0244,5.052,5.0442,4.9782,4.9001,4.8359,0.0,0.0,0.0,4.9599,5.079,5.1707,5.2257,5.2935,5.3302,5.3302,5.3448,5.3549,5.3549,5.3925,5.42,5.4365,5.4621,5.4731,5.4731,5.4731,5.4731,5.4731,5.4731,5.4731,5.4731,5.4731,5.4731,5.4676,5.4145,5.3668,5.3247,5.2697,5.2257,5.1872,5.1597,5.1689,5.1835,5.1414,5.1312,5.1238,5.0809,5.0699,5.0699,5.0699,5.0974,5.122,5.079,5.0992,5.1202,5.079,5.0699,5.0699,5.0699,5.0699,5.0699,5.0699,5.0699,5.0699,5.0699,5.0699,5.0699,5.0699,4.8305,4.5885,4.4184,4.2867,4.1666,4.0551,3.9765,3.906,3.8463,3.752,3.6649,3.5845,3.5618,3.5511,3.5511,3.5404,3.5351,3.5351,3.5244,3.5191,3.5191,3.5191,3.5191,3.5191,3.5191,3.5191,3.9468,4.2114,4.4448,4.6068,4.7352,4.8378,4.8798,4.8175,4.7114,4.5786,4.3441,4.1758,0.0,0.0,4.3555,4.5742,4.8155,4.9872,5.032,5.0597,5.0604,0.0,0.0,0.0,0.0,0.0,0.0,4.8793,0.0,5.1029,5.1835,5.3018,5.3696,5.3696,5.409,5.431,5.431,5.4704,5.5098,5.5491,5.5491,5.5491,5.5491,5.5491,5.5491,5.5491,5.5491,5.5491,5.5491,5.5491,5.5464,5.5381,5.4566,5.4035,5.3613,5.2825,5.2293,5.1964,5.1964,5.1945,5.1835,5.145,5.133,5.1238,5.0845,5.0717,5.0699,5.0699,5.0974,5.122,5.079,5.0992,5.1202,5.079,5.0699,5.0699,5.0699,5.0699,5.0699,5.0699,5.0699,5.0699,5.0699,5.0699,5.0699,5.0699,5.0282,4.9215,4.714,4.5652,4.4367,4.3316,4.2167,4.0968,3.9734,3.8533,3.738,3.6207,3.6113,3.6099,3.6099,3.5805,3.5618,3.5605,3.5364,3.5204,3.5191,3.5191,3.5191,3.5191,3.5191,3.5191,4.2719,4.544,4.7774,4.8504,4.8935,4.9138,4.8926,4.8213,4.6934,4.4633,4.2374,4.084,0.0,0.0,0.0,4.5742,4.8322,0.0,5.1356,5.1373,0.0,5.1155,0.0,4.9636,4.9239,4.8451,0.0,0.0,4.9727,5.0607,5.1395,5.288,5.3696,5.3696,5.409,5.431,5.431,5.4704,5.5098,5.5491,5.5491,5.5491,5.5491,5.5491,5.5491,5.5491,5.5491,5.5491,5.5491,5.5179,5.5043,5.496,5.4172,5.3787,5.3641,5.3137,5.288,5.2788,5.2788,5.2403,5.1864,5.178,5.1542,5.1293,5.1183,5.0937,5.0699,5.0699,5.0974,5.122,5.079,5.0992,5.1202,5.079,5.0699,5.0699,5.0699,5.0699,5.0699,5.0699,5.0699,5.0699,5.0699,5.0699,5.0699,5.0699,5.0595,4.991,4.8285,4.7383,4.6628,4.5906,4.441,4.2918,4.1543,3.9801,3.8091,3.6502,3.622,3.6099,3.6099,3.6033,3.5859,3.5605,3.5525,3.5418,3.5191,3.5191,3.5191,3.5191,3.5191,3.5191,4.5301,4.7755,4.9789,4.9996,5.0074,4.984,4.9066,4.764,4.5781,4.3359,4.0547,0.0,0.0,0.0,0.0,0.0,0.0,0.0,5.1174,5.1277,5.1176,0.0,5.0299,0.0,4.9514,4.8928,4.8726,0.0,4.9746,5.0442,5.1257,5.299,5.3952,5.3952,5.4511,5.4841,5.4841,5.5043,5.5271,5.5491,5.5491,5.5491,5.5491,5.5491,5.5491,5.5491,0.0,5.5491,5.5464,5.5089,5.4896,5.4841,5.4007,5.3696,5.3668,5.3247,5.3082,5.3082,5.3082,5.2788,5.2403,5.222,5.2019,5.1744,5.1422,5.1147,5.0919,5.0735,5.0974,5.122,5.079,5.0992,5.1202,5.079,5.0699,5.0699,5.0699,5.0699,5.0699,5.0699,5.0699,5.0699,5.0699,5.0699,5.0699,5.0699,5.0699,5.0399,4.9574,4.921,4.8898,4.8541,4.6742,4.4824,4.3001,4.088,3.8823,3.681,3.654,3.6446,3.6446,3.6326,3.6179,3.5992,3.5885,3.5738,3.5578,3.5578,3.5578,3.5578,3.5578,3.5578,4.7491,4.9414,5.0898,5.0957,5.084,5.0351,4.8949,4.6523,4.3924,4.168,0.0,3.594,3.717,3.791,3.9628,4.3496,0.0,4.9482,5.0426,5.0716,5.0725,5.0364,4.987,4.9606,4.9661,4.9459,4.9434,4.979,5.0241,5.0735,5.1275,5.3219,5.4365,5.4456,5.5153,5.5491,5.5491,5.5491,5.5491,5.5491,5.5491,5.5491,5.5491,5.5491,5.5491,5.5491,5.5436,0.0,5.5381,5.4933,5.4731,5.4676,5.3897,5.3613,5.3586,5.3247,5.3082,5.3082,5.3082,5.3082,5.3027,5.2678,5.2532,5.2367,5.1652,5.1385,5.1238,5.0864,5.0974,5.1147,5.079,5.0963,5.1147,5.0772,5.0699,5.0699,5.0699,5.0699,5.0699,5.0699,5.0699,5.0717,5.0754,5.0772,5.079,5.0845,5.0864,5.0864,5.0864,5.0754,5.0699,5.0699,4.8763,4.6568,4.4291,4.2027,3.9697,3.7354,3.7093,3.6968,3.6913,3.6687,3.654,3.65,3.6259,3.6139,3.6099,3.6099,3.6099,3.6099,3.6099,3.6099,4.984,5.0757,5.1382,5.1777,5.1098,4.9769,4.7712,4.4726,0.0,0.0,3.5566,3.3633,3.4587,3.5993,3.828,4.2128,0.0,0.0,0.0,0.0,5.0528,0.0,0.0,0.0,0.0,0.0,0.0,0.0,0.0,5.2229,5.1348,5.3219,5.4593,5.5271,5.5436,5.5491,5.5491,5.5491,5.5491,5.5491,5.5491,5.5491,5.5491,5.5491,5.5491,5.5491,5.5153,0.0,5.4951,5.42,5.3897,5.3842,5.3393,5.3192,5.3192,5.3146,5.3082,5.3082,5.3082,5.3082,5.3109,5.3008,5.277,5.2477,5.233,5.1843,5.1293,5.122,5.1018,5.0772,5.0717,5.0735,5.0772,5.0717,5.0699,5.0699,5.0699,5.0699,5.0699,5.0699,5.0699,5.0817,5.1147,5.1202,5.133,5.1652,5.1707,5.1707,5.1707,5.1102,5.0699,5.0699,4.9345,4.7722,4.5864,4.3617,4.1309,3.8959,3.8073,3.7439,3.6913,3.6873,3.6726,3.65,3.6446,3.6313,3.6099,3.6099,3.6099,3.6099,3.6099,3.6099,5.0898,5.1777,5.2324,5.1855,5.0781,4.9101,4.6269,0.0,0.0,0.0,3.3027,3.1191,3.25,3.3805,0.0,4.0059,4.3983,4.709,0.0,0.0,0.0,0.0,0.0,0.0,0.0,0.0,0.0,0.0,0.0,5.2852,5.2284,5.3751,5.4786,5.5179,5.5381,5.5381,5.5179,5.5381,5.5381,5.5179,5.5179,5.507,5.4896,5.4896,5.4896,5.485,5.4676,0.0,5.4558,5.3943,5.3696,5.3668,5.3274,5.3082,5.3082,5.3082,5.3082,5.3082,5.3082,5.3082,5.3082,5.3082,5.2953,5.277,5.2568,5.222,5.1872,5.167,5.1469,5.1322,5.1322,5.1322,5.1267,5.1047,5.0845,5.0699,5.0699,5.0699,5.0699,5.0699,5.0699,5.0809,5.1238,5.1312,5.1458,5.1854,5.1909,5.1909,5.1909,5.156,5.1322,5.1322,5.0241,4.8895,4.7461,4.5224,4.2876,4.0508,3.9209,3.8127,3.7196,3.698,3.6833,3.6727,3.6727,3.6647,3.6513,3.6513,3.6513,3.6513,3.6513,3.662,5.1675,5.2598,5.3072,5.1733,5.023,4.8161,4.4648,4.0351,0.0,0.0,3.0781,2.8971,3.0532,0.0,3.3711,0.0,4.166,4.4824,4.6663,0.0,0.0,0.0,0.0,0.0,0.0,0.0,0.0,0.0,0.0,0.0,5.3494,5.4393,5.4896,5.4896,5.5208,5.5179,5.4786,5.507,5.507,5.4786,5.4786,5.4621,5.431,5.431,5.431,5.431,5.42,0.0,0.0,5.3732,5.3558,5.3531,5.3219,5.3082,5.3082,5.3082,5.3082,5.3082,5.3082,5.3082,5.3082,5.3082,5.3082,5.3027,5.2715,5.2568,5.244,5.2128,5.1982,5.1909,5.1909,5.1909,5.1799,5.1403,5.1073,5.079,5.0717,5.0699,5.0699,5.0699,5.0699,5.0845,5.134,5.1414,5.1579,5.2092,5.2165,5.2165,5.2165,5.2165,5.2165,5.2165,5.1189,5.0123,4.9088,4.684,4.4447,4.2041,4.0357,3.8848,3.7479,3.7155,3.698,3.6913,3.698,3.702,3.702,3.706,3.706,3.702,3.706,3.7207,5.2994,5.3306,5.3072,5.1733,4.957,4.678,4.291,0.0,0.0,3.1636,2.9043,2.7467,2.8418,2.9941,0.0,0.0,0.0,4.2285,4.4394,4.5986,0.0,0.0,0.0,0.0,0.0,0.0,0.0,0.0,0.0,0.0,5.4731,5.4841,5.4896,5.4896,5.4933,5.4758,5.4365,5.4373,5.4373,5.4365,5.4365,5.4318,5.431,5.431,5.431,5.4263,5.3897,0.0,0.0,5.3329,5.3164,5.3137,5.31,5.3082,5.3082,5.3082,5.3082,5.3082,5.3082,5.3082,5.3082,5.3082,5.3082,5.3082,5.3072,5.2788,5.2495,5.2458,5.2183,5.1909,5.1909,5.1909,5.1799,5.1403,5.1275,5.1139,5.0772,5.0699,5.0699,5.0699,5.0699,5.0937,5.1725,5.1854,5.211,5.2862,5.2972,5.2972,5.2972,5.2972,5.2972,5.2972,5.2128,5.1306,5.0655,4.8447,4.6047,4.3634,4.1529,3.949,3.7479,3.737,3.7195,3.6913,3.7195,3.7342,3.7342,3.7595,3.7595,3.737,3.7595,3.7595,5.231,5.3189,5.3262,5.1191,4.873,4.5664,4.123,0.0,3.2355,3.0156,2.7845,2.6569,2.7741,2.8705,3.0391,3.3672,3.6816,0.0,4.1751,4.3653,0.0,0.0,0.0,0.0,0.0,0.0,0.0,0.0,0.0,0.0,5.4869,5.5125,5.5043,5.4538,5.4786,5.4594,5.3943,5.4172,5.4172,5.3943,5.3943,5.3815,5.3586,5.3586,5.3586,5.3558,5.3412,0.0,0.0,5.3164,5.3082,5.3082,5.3082,5.3082,5.3082,5.3082,5.3082,5.3082,5.3082,5.3082,5.3082,5.3082,5.3082,5.3082,5.3082,5.2999,5.2843,5.2843,5.2733,5.2623,5.2623,5.244,5.222,5.2055,5.1835,5.1615,5.1469,5.1432,5.1432,5.1432,5.1432,5.1597,5.2165,5.2257,5.2458,5.3035,5.3082,5.3082,5.3082,5.3082,5.3082,5.3082,5.2772,5.2454,5.2191,5.0029,4.7633,4.5178,4.271,4.0321,3.8045,3.7742,3.7567,3.7432,3.7567,3.7635,3.7635,3.7742,3.7742,3.7635,3.7754,3.7849,5.1465,5.2905,5.3354,5.0664,4.793,4.4687,0.0,3.5273,3.1387,2.9322,2.7396,2.6362,2.7318,2.7864,2.9081,3.1875,3.4338,3.6665,3.8934,4.1024,4.2709,0.0,0.0,0.0,0.0,0.0,0.0,0.0,0.0,0.0,5.4869,5.5043,5.4841,5.4145,5.4401,5.4228,5.3531,5.3787,5.3787,5.3503,5.3503,5.3384,5.3082,5.3082,5.3082,5.3082,5.3082,0.0,0.0,5.3082,5.3082,5.3082,5.3082,5.3082,5.3082,5.3082,5.3082,5.3082,5.3082,5.3082,5.3082,5.3082,5.3082,5.3082,5.3082,5.3082,5.3082,5.3082,5.3082,5.3082,5.3082,5.288,5.2642,5.2532,5.2293,5.2028,5.1945,5.1909,5.1909,5.1909,5.1909,5.2037,5.2422,5.2495,5.2642,5.3027,5.3082,5.3082,5.3082,5.3082,5.3082,5.3082,5.3082,5.3082,5.3082,5.111,4.8873,4.6619,4.4027,4.1457,3.8922,3.842,3.8086,3.7809,3.7889,3.7956,3.7956,3.8036,3.8036,3.7956,3.8036,3.8183,5.0835,5.269,5.3275,5.0269,4.7243,4.3768,3.9005,3.4593,3.102,2.9263,2.7877,2.6999,2.6986,2.7439,2.8254,2.9612,3.1352,3.3445,3.5992,3.8085,3.9946,0.0,0.0,0.0,0.0,0.0,0.0,0.0,0.0,0.0,5.4869,5.4511,5.4145,5.3723,5.3723,5.3503,5.31,5.31,5.31,5.3127,5.3127,5.3082,5.3082,5.3082,5.3082,0.0,0.0,0.0,0.0,5.3082,5.3082,5.3082,5.3082,5.3082,5.3082,5.3082,5.3082,5.3082,5.3082,5.3082,5.3082,5.3082,5.3082,5.3082,5.3082,5.3082,5.3082,5.3082,5.3082,5.3082,5.3082,5.3109,5.2972,5.2587,5.2495,5.2385,5.2,5.1909,5.1909,5.1909,5.1909,5.2037,5.2422,5.2495,5.2642,5.3027,5.3082,5.3082,5.3082,5.3082,5.3082,5.3082,5.3082,5.3082,5.3082,5.1505,4.9705,4.7887,4.5501,4.2928,4.0206,3.9507,3.8744,3.7823,3.8145,3.8292,3.8292,3.8555,3.8544,3.8292,3.8584,3.8689,4.6914,4.8988,4.9867,4.7107,4.4608,4.1718,3.7541,3.3734,3.0669,2.9205,2.7897,2.7032,2.7124,2.7276,2.7835,2.9222,3.0675,3.2393,0.0,0.0,0.0,0.0,0.0,0.0,0.0,0.0,0.0,0.0,0.0,0.0,5.4035,5.3696,5.3439,5.3302,5.3302,5.2953,5.2293,5.2293,5.2293,5.2293,5.255,5.2678,5.2697,5.2972,5.3082,0.0,0.0,0.0,0.0,5.3082,5.3082,5.3082,5.3082,5.3082,5.3082,5.3082,5.3082,5.3082,5.3082,5.3082,5.3082,5.3082,5.3082,5.3082,5.3082,5.3082,5.3082,5.3082,5.3082,5.3082,5.3082,5.3082,5.3091,5.2935,5.2898,5.2862,5.2733,5.2715,5.2715,5.2715,5.2715,5.2752,5.288,5.2898,5.2935,5.3091,5.3082,5.3082,5.3082,5.3082,5.3082,5.3082,5.3082,5.3082,5.3082,5.1861,5.0618,4.9435,4.6897,4.4387,4.2121,4.0757,3.9569,3.8437,3.8515,3.8584,3.8584,3.8662,3.8662,3.8584,3.8662,3.8689,4.2871,4.5314,4.635,4.3905,4.1953,3.9609,3.5862,3.2875,3.0508,2.9185,2.8071,2.7382,2.745,2.7397,2.7695,2.8724,2.9732,3.119,0.0,0.0,0.0,0.0,0.0,0.0,0.0,0.0,0.0,0.0,0.0,0.0,5.3677,5.3164,5.2788,5.2642,5.2788,5.255,5.1909,5.1909,5.1909,5.1882,5.2312,5.2495,5.2513,5.2925,5.3082,0.0,0.0,0.0,0.0,5.3082,5.3082,5.3082,5.3082,5.3082,5.3082,5.3082,5.3082,5.3082,5.3082,5.3082,5.3082,5.3082,5.3082,5.3082,5.3082,5.3082,5.3082,5.3082,5.3082,5.3082,5.3082,5.3082,5.3082,5.3082,5.3082,5.3082,5.3082,5.3082,5.3082,5.3082,5.3082,5.3082,5.3082,5.3082,5.3082,5.3082,5.3082,5.3082,5.3082,5.3082,5.3082,5.3082,5.3082,5.3164,5.3302,5.2353,5.1472,5.087,4.8439,4.6196,4.4357,4.2767,4.1346,4.0122,3.9862,3.9631,3.9371,3.8921,3.8689,3.8689,3.8689,3.8689,0.0,4.1504,4.2793,4.0703,3.9238,3.7439,3.4085,3.1992,0.0,2.9127,2.83,2.7829,2.7835,2.7698,2.7735,2.8215,2.875,3.0119,0.0,0.0,0.0,0.0,0.0,0.0,0.0,0.0,0.0,0.0,0.0,0.0,5.3641,5.2935,5.2312,5.1927,5.2238,5.222,5.1835,5.179,5.179,5.1835,5.222,5.2403,5.2422,5.2843,5.3072,0.0,0.0,0.0,0.0,5.3082,5.3082,5.3082,5.3082,5.3082,5.3082,5.3082,5.3082,5.3082,5.3082,5.3082,5.3082,5.3082,5.3082,5.3082,5.3082,5.3082,5.3082,5.3082,5.3082,5.3082,5.3082,5.3082,5.3082,5.3082,5.3082,5.3082,5.3082,5.3082,5.3082,5.3082,5.3082,5.3082,5.3082,5.3082,5.3082,5.3082,5.3082,5.3082,5.3082,5.3082,5.3082,5.3082,5.3082,5.3274,5.3668,5.2909,5.235,5.2201,5.0171,4.8365,4.6996,4.5383,4.3978,4.2751,4.2006,4.1259,4.0539,3.9311,3.8729,3.8689,3.8689,3.8689,3.2281,0.0,3.8907,3.7424,3.6328,3.5075,0.0,3.0859,2.9185,2.8574,0.0,0.0,2.7308,2.7437,2.7851,2.8889,2.974,3.1422,3.4588,0.0,0.0,0.0,0.0,0.0,0.0,0.0,0.0,0.0,0.0,5.3137,5.3247,5.277,5.2312,5.1927,5.1689,5.1377,5.0992,5.0974,5.0974,5.0992,5.1377,5.156,5.1623,5.2312,5.2642,0.0,0.0,0.0,5.3082,5.3082,5.3082,5.3082,5.3082,5.3082,5.3082,5.3082,5.3082,5.3082,5.3082,5.3082,5.3082,5.3082,5.3082,5.3082,5.3082,5.3082,5.3082,5.3082,5.3082,5.3082,5.3082,5.3082,5.3082,5.3082,5.3082,5.3082,5.3082,5.3082,5.3082,5.3082,5.3082,5.3082,5.3082,5.3082,5.3082,5.3082,5.3082,5.3082,5.3082,5.3082,5.3082,5.3082,5.3082,5.3274,5.3668,5.3494,5.3621,5.4174,5.2615,5.1233,5.0253,4.8709,4.7274,4.6026,4.3994,4.2295,4.0948,3.965,3.8916,3.8689,3.8689,3.8689,2.9642,3.2483,3.5078,3.4163,3.3578,3.2832,3.1358,2.978,0.0,0.0,0.0,0.0,0.0,0.0,0.0,0.0,3.1169,0.0,0.0,0.0,0.0,0.0,0.0,0.0,0.0,0.0,0.0,0.0,0.0,5.3082,5.3082,5.2532,5.2128,5.1909,5.1322,5.09,5.0699,5.0699,5.0699,5.0699,5.1128,5.1312,5.133,5.2128,5.2495,0.0,0.0,0.0,5.3082,5.3082,5.3082,5.3082,5.3082,5.3082,5.3082,5.3082,5.3082,5.3082,5.3082,5.3082,5.3082,5.3082,5.3082,5.3082,5.3082,5.3082,5.3082,5.3082,5.3082,5.3082,5.3082,5.3082,5.3082,5.3082,5.3082,5.3082,5.3082,5.3082,5.3082,5.3082,5.3082,5.3082,5.3082,5.3082,5.3082,5.3082,5.3082,5.3082,5.3082,5.3082,5.3082,5.3082,5.3082,5.3338,5.3925,5.398,5.4255,5.4869,5.3726,5.2762,5.22,5.0653,4.8837,4.6725,4.4495,4.2599,4.106,3.9747,3.8953,3.8689,3.8689,3.8689,2.8896,3.0562,3.204,3.1744,3.1765,3.1569,3.0477,0.0,0.0,0.0,0.0,0.0,0.0,0.0,0.0,0.0,0.0,0.0,0.0,0.0,0.0,0.0,0.0,0.0,0.0,0.0,0.0,0.0,0.0,5.3354,5.3354,5.2598,5.2175,5.2175,5.1383,5.0933,5.081,5.0751,5.0699,5.0699,5.1055,5.122,5.1238,5.1964,5.2312,5.233,0.0,0.0,5.2925,5.2925,5.2925,5.2925,5.2925,5.2925,5.2917,5.2999,5.3017,5.3008,5.3091,5.3082,5.3082,5.3082,5.3082,5.3082,5.3082,5.3082,5.3082,5.3082,5.3082,5.3082,5.3082,5.3082,5.3082,5.3082,5.3082,5.3082,5.3082,5.3082,5.3082,5.3082,5.3082,5.3082,5.3082,5.3082,5.3082,5.3082,5.3082,5.3082,5.3082,5.3082,5.3082,5.3082,5.3082,5.3393,5.4145,5.42,5.442,5.4869,5.4228,5.3666,5.328,5.1765,4.955,4.654,4.4471,4.2684,4.1113,3.9867,3.91,3.8836,3.8836,3.8836,2.8539,3.0268,3.1901,3.2388,3.2978,3.3372,3.3126,0.0,0.0,0.0,0.0,0.0,0.0,0.0,0.0,0.0,0.0,0.0,0.0,0.0,0.0,0.0,0.0,0.0,0.0,0.0,0.0,0.0,0.0,5.4639,5.4639,5.3801,5.3349,5.3349,5.2558,5.1892,5.1363,5.0914,5.0699,5.0699,5.0754,5.079,5.0809,5.1267,5.1495,5.1513,0.0,5.2092,5.2092,5.2092,5.2092,5.2092,5.2092,5.2092,5.2128,5.2458,5.2587,5.2642,5.2972,5.3082,5.3082,5.3082,5.3082,5.3082,5.3082,5.3082,5.3082,5.3082,5.3082,5.3082,5.3082,5.3082,5.3082,5.3082,5.3082,5.3082,5.3082,5.3082,5.3082,5.3082,5.3082,5.3082,5.3082,5.3082,5.3082,5.3082,5.3082,5.3082,5.3082,5.3082,5.3082,5.3082,5.3082,5.3302,5.3732,5.3787,5.409,5.4841,5.5058,5.4728,5.3667,5.2355,5.0425,4.7846,4.5337,4.3289,4.1758,4.0491,3.9717,3.9452,3.9452,3.9452,2.8205,2.9743,3.144,3.3012,3.4478,3.5562,3.5707,0.0,0.0,0.0,0.0,0.0,0.0,0.0,0.0,0.0,0.0,0.0,0.0,0.0,0.0,0.0,0.0,0.0,0.0,0.0,0.0,0.0,0.0,0.0,5.7495,5.6732,5.6255,5.6255,5.4831,5.3665,5.282,5.2009,5.1304,5.0699,5.0699,5.0699,5.0717,5.1128,5.1312,5.133,0.0,5.1909,5.1909,5.1909,5.1909,5.1909,5.1909,5.1909,5.1964,5.2348,5.2642,5.2843,5.3054,5.3082,5.3082,5.3082,5.3082,5.3082,5.3082,5.3082,5.3082,5.3082,5.3082,5.3082,5.3082,5.3082,5.3082,5.3082,5.3082,5.3082,5.3082,5.3082,5.3082,5.3082,5.3082,5.3082,5.3082,5.3082,5.3082,5.3082,5.3082,5.3082,5.3082,5.3082,5.3082,5.3082,5.3082,5.3274,5.3668,5.3696,5.4035,5.4841,5.5271,5.4949,5.3745,5.2482,5.0626,4.8152,4.5561,4.3508,4.1956,4.0643,3.9863,3.9599,3.9599,3.9599,2.7883,2.9225,3.0944,3.3311,0.0,3.7316,3.8048,0.0,0.0,0.0,0.0,0.0,0.0,0.0,0.0,0.0,0.0,0.0,0.0,0.0,0.0,0.0,0.0,0.0,0.0,0.0,0.0,0.0,0.0,0.0,5.9943,5.9188,5.8776,5.8906,5.6953,5.5326,5.4104,5.3096,5.1932,5.0699,5.0699,5.0699,5.0699,5.1037,5.1165,5.1183,5.1487,5.1634,5.1634,5.1634,5.1634,5.1634,5.1634,5.1744,5.1945,5.2257,5.266,5.3082,5.3082,5.3082,5.3082,5.3082,5.3082,5.3082,5.3082,5.3082,5.3082,5.3082,5.3082,5.3082,5.3082,5.3082,5.3082,5.3082,5.3082,5.3082,5.3082,5.3082,5.3082,5.3082,5.3082,5.3082,5.3082,5.3082,5.3082,5.3082,5.3082,5.3082,5.3082,5.3082,5.3082,5.3082,5.3082,5.3219,5.3531,5.3668,5.3952,5.4566,5.5179,5.4949,5.3745,5.2488,5.0626,4.8152,4.5576,4.3551,4.2098,4.0751,3.9997,3.9813,3.9813,3.9813,2.7601,2.8917,3.0613,3.3031,3.5561,0.0,3.985,4.1827,0.0,0.0,0.0,0.0,0.0,0.0,0.0,0.0,0.0,0.0,0.0,0.0,0.0,0.0,0.0,0.0,0.0,0.0,0.0,0.0,0.0,0.0,6.0616,5.984,5.9547,6.0068,5.8127,5.6277,5.4668,5.3633,5.2312,5.0699,5.0699,5.0699,5.0699,5.0717,5.0735,5.0735,5.0772,5.079,5.079,5.079,5.079,5.079,5.079,5.1249,5.1882,5.1945,5.244,5.3082,5.3082,5.3082,5.3082,5.3082,5.3082,5.3082,5.3082,5.3082,5.3082,5.3082,5.3082,5.3082,5.3082,5.3082,5.3082,5.3082,5.3082,5.3082,5.3082,5.3082,5.3082,5.3082,5.3082,5.3082,5.3082,5.3082,5.3082,5.3082,5.3082,5.3082,5.3082,5.3082,5.3082,5.3082,5.3082,5.31,5.3137,5.3476,5.3723,5.3787,5.485,5.4949,5.3745,5.2482,5.0626,4.8152,4.5532,4.3592,4.2376,4.109,4.0441,4.0431,4.0431,4.0431,2.7646,2.85,2.9876,3.255,0.0,0.0,0.0,0.0,0.0,0.0,0.0,0.0,0.0,0.0,0.0,0.0,0.0,0.0,0.0,0.0,0.0,0.0,0.0,0.0,0.0,0.0,0.0,0.0,0.0,0.0,6.3729,6.2986,6.2673,6.3187,6.0585,5.8242,5.6211,5.453,5.2679,5.0699,5.0699,5.0699,5.0699,5.0699,5.0699,5.0699,5.0699,5.0699,5.0699,5.0699,5.0699,5.0699,5.0699,5.1194,5.1909,5.1909,5.2403,5.3082,5.3082,5.3082,5.3082,5.3082,5.3082,5.3082,5.3082,5.3082,5.3082,5.3082,5.3082,5.3082,5.3082,5.3082,5.3082,5.3082,5.3082,5.3082,5.3082,5.3082,5.3082,5.3082,5.3082,5.3082,5.3082,5.3082,5.3082,5.3082,5.3082,5.3082,5.3082,5.3082,5.3082,5.3082,5.3082,5.3082,5.3082,5.3467,5.3696,5.3696,5.4365,5.4392,5.3556,5.2928,5.1457,4.894,4.6624,4.4623,4.296,4.1299,4.0512,4.0512,4.0512,4.0512,2.7734,2.8262,2.9456,0.0,0.0,0.0,0.0,0.0,0.0,0.0,0.0,0.0,0.0,0.0,0.0,0.0,0.0,0.0,0.0,0.0,0.0,0.0,0.0,0.0,0.0,0.0,0.0,0.0,0.0,0.0,0.0,6.4497,6.4267,6.4748,6.2109,5.9598,5.736,5.5467,5.3319,5.1015,5.117,5.1063,5.0699,5.0699,5.0699,5.0699,5.0699,5.0699,5.0699,5.0699,5.0699,5.0699,5.0699,5.1102,5.1707,5.1707,5.222,5.2898,5.2898,5.299,5.3082,5.3082,5.3082,5.3082,5.3082,5.3082,5.3082,5.3082,5.3082,5.3082,5.3082,5.3082,5.3082,5.3082,5.3082,5.3082,5.3082,5.3082,5.3082,5.3082,5.3082,5.3082,5.3082,5.3082,5.3082,5.3082,5.3082,5.3082,5.3082,5.3082,5.3082,5.3082,5.3082,5.3082,5.3082,5.3357,5.3503,5.3503,5.3778,5.3841,5.3677,5.3674,5.2498,5.0033,4.7855,4.574,4.3606,4.1527,4.0512,4.0512,4.0512,4.0512,2.7812,2.8281,0.0,0.0,0.0,0.0,0.0,0.0,0.0,0.0,0.0,0.0,0.0,0.0,0.0,0.0,0.0,0.0,0.0,0.0,0.0,0.0,0.0,0.0,0.0,0.0,0.0,0.0,0.0,0.0,0.0,6.3785,6.3762,6.4291,6.2292,6.0158,5.7931,5.6377,5.4307,5.1757,5.2199,5.1795,5.0706,5.0725,5.0699,5.0699,5.0699,5.0699,5.0699,5.0699,5.0699,5.0699,5.0699,5.0963,5.1312,5.1312,5.1799,5.2495,5.2495,5.2752,5.3082,5.3082,5.3082,5.3082,5.3082,5.3082,5.3082,5.3082,5.3082,5.3082,5.3082,5.3082,5.3082,5.3082,5.3082,5.3082,5.3082,5.3082,5.3082,5.3082,5.3082,5.3082,5.3082,5.3082,5.3082,5.3082,5.3082,5.3082,5.3082,5.3082,5.3082,5.3082,5.3082,5.3082,5.3082,5.3082,5.3082,5.3082,5.3082,5.3448,5.4255,5.4676,5.372,5.1223,4.9096,4.6776,4.428,4.1739,4.0512,4.0512,4.0512,4.0512,2.8782,3.0107,0.0,0.0,0.0,0.0,0.0,0.0,0.0,0.0,0.0,0.0,0.0,0.0,0.0,0.0,0.0,0.0,0.0,0.0,0.0,0.0,0.0,0.0,0.0,0.0,0.0,0.0,0.0,0.0,0.0,6.3785,6.3762,6.4291,6.2584,6.1011,5.9604,5.8056,5.6515,5.4983,5.4051,5.2624,5.0851,5.1148,5.107,5.0699,5.0699,5.0699,5.0699,5.0699,5.0699,5.0699,5.0699,5.0963,5.1312,5.1312,5.1799,5.2495,5.2495,5.2752,5.3082,5.3082,5.3082,5.3082,5.3082,5.3082,5.3082,5.3082,5.3082,5.3082,5.3082,5.3082,5.3082,5.3082,5.3082,5.3082,5.3082,5.3082,5.3082,5.3082,5.3082,5.3082,5.3082,5.3082,5.3082,5.3082,5.3082,5.3082,5.3082,5.3082,5.3082,5.3082,5.3082,5.3082,5.3082,5.3082,5.3082,5.3082,5.3082,5.3219,5.3448,5.409,5.3307,5.0829,4.8965,4.6776,4.428,4.1739,4.0512,4.0512,4.0512,4.0512,2.9811,3.2105,0.0,3.8795,4.3489,0.0,0.0,0.0,0.0,0.0,0.0,0.0,0.0,0.0,0.0,0.0,0.0,0.0,0.0,0.0,6.5024,6.5802,0.0,0.0,0.0,0.0,0.0,0.0,0.0,0.0,0.0,6.3693,6.3646,6.3968,6.2638,6.1324,6.0039,5.8489,5.6997,5.5557,5.4405,5.2962,5.1308,5.1493,5.1259,5.0699,5.0699,5.0699,5.0699,5.0699,5.0699,5.0717,5.089,5.1092,5.133,5.1469,5.1945,5.2495,5.2495,5.2752,5.3082,5.3082,5.3082,5.3082,5.3082,5.3082,5.3082,5.3082,5.3082,5.3082,5.3082,5.3082,5.3082,5.3082,5.3082,5.3082,5.3082,5.3082,5.3082,5.3082,5.3082,5.3082,5.3082,5.3082,5.3082,5.3082,5.3082,5.3082,5.3082,5.3082,5.3082,5.3082,5.3082,5.3082,5.3082,5.3082,5.3082,5.3082,5.3082,5.3082,5.3082,5.387,5.3118,5.0647,4.8887,4.6776,4.428,4.1739,4.0512,4.0512,4.0512,4.0512,3.0831,3.4052,0.0,4.2448,4.7893,0.0,0.0,0.0,0.0,0.0,0.0,0.0,0.0,0.0,0.0,0.0,0.0,0.0,0.0,0.0,6.4474,6.493,6.4152,6.3177,6.2227,0.0,0.0,0.0,0.0,0.0,6.3484,6.3508,6.3508,6.3508,6.2527,6.1249,5.9668,5.814,5.6398,5.4484,5.3851,5.3028,5.2018,5.1815,5.1344,5.0699,5.0699,5.0699,5.0699,5.0699,5.0699,5.0735,5.1084,5.1257,5.1285,5.1707,5.211,5.2458,5.2495,5.2752,5.3082,5.3082,5.3082,5.3082,5.3082,5.3082,5.3082,5.3082,5.3082,5.3082,5.3082,5.3082,5.3082,5.3082,5.3082,5.3082,5.3082,5.3082,5.3082,5.3082,5.3082,5.3082,5.3082,5.3082,5.3082,5.3082,5.3082,5.3082,5.3082,5.3082,5.3082,5.3082,5.3082,5.3082,5.3082,5.3082,5.3082,5.3082,5.3082,5.3082,5.3082,5.3833,5.311,5.0692,4.8938,4.686,4.4371,4.1823,4.0539,4.0495,4.0475,4.0441,3.1359,3.5265,0.0,0.0,5.221,5.9395,6.3016,0.0,0.0,0.0,0.0,0.0,0.0,0.0,0.0,6.2567,6.2612,6.3094,0.0,6.4543,6.4474,6.493,6.4467,6.4026,6.3808,6.3424,6.3103,6.3008,6.3199,6.3366,6.3485,6.3508,6.3508,6.3508,6.2456,6.1348,6.0163,5.8636,5.7214,5.5931,5.4598,5.3579,5.2882,5.2081,5.1344,5.0699,5.0699,5.0699,5.0699,5.0699,5.0699,5.0699,5.0817,5.0827,5.0864,5.1267,5.1689,5.2073,5.2385,5.2752,5.3082,5.3082,5.3082,5.3082,5.3082,5.3082,5.3082,5.3082,5.3082,5.3082,5.3082,5.3082,5.3082,5.3082,5.3082,5.3082,5.3082,5.3082,5.3082,5.3082,5.3082,5.3082,5.3082,5.3082,5.3082,5.3082,5.3082,5.3082,5.3082,5.3082,5.3082,5.3082,5.3082,5.3082,5.3082,5.3082,5.3082,5.3082,5.3082,5.3082,5.3082,5.3558,5.2919,5.096,4.9419,4.7438,4.4984,4.2444,4.0949,4.0487,4.0237,4.0117,3.2088,3.6829,4.2679,5.0795,0.0,6.1999,6.4116,6.4411,6.4343,6.46,0.0,0.0,6.2749,6.2704,6.2796,6.3071,6.3094,6.337,6.4174,6.3867,6.3534,6.3517,6.3336,6.3201,6.3154,6.3143,6.3223,6.3484,6.3508,6.3508,6.3508,6.3255,6.3117,6.3117,6.1893,6.059,5.9319,5.7803,5.6384,5.5111,5.3813,5.2827,5.2173,5.152,5.1041,5.0699,5.0699,5.0699,5.0699,5.0699,5.0699,5.0717,5.09,5.0974,5.1073,5.1678,5.2,5.2238,5.2642,5.2917,5.3082,5.3082,5.3082,5.3082,5.3082,5.3082,5.3082,5.3082,5.3082,5.3082,5.3082,5.3082,5.3082,5.3082,5.3082,5.3082,5.3082,5.3082,5.3082,5.3082,5.3082,5.3082,5.3082,5.3082,5.3082,5.3082,5.3082,5.3082,5.3082,5.3082,5.3082,5.3082,5.3082,5.3082,5.3082,5.3082,5.3082,5.3082,5.3082,5.3082,5.3082,5.3302,5.2806,5.1442,5.0283,4.8461,4.6005,4.3474,4.1789,4.092,4.0298,3.9997,3.2729,3.8939,4.6695,5.7167,6.1211,0.0,6.4527,6.4578,6.4269,6.4174,6.3818,6.337,6.2934,6.3186,6.3347,6.2911,6.3209,6.3508,6.3508,6.296,6.2314,6.1711,6.1588,6.1588,6.1614,6.2121,6.2722,6.3461,6.3508,6.3508,6.3508,6.3002,6.2703,6.2703,6.126,5.9787,5.8317,5.69,5.5458,5.4025,5.2901,5.1962,5.1195,5.0841,5.0699,5.0699,5.0699,5.0699,5.0699,5.0699,5.0699,5.0717,5.1073,5.1202,5.1285,5.2092,5.2403,5.2458,5.2935,5.3082,5.3082,5.3082,5.3082,5.3082,5.3082,5.3082,5.3082,5.3082,5.3082,5.3082,5.3082,5.3082,5.3082,5.3082,5.3082,5.3082,5.3082,5.3082,5.3082,5.3082,5.3082,5.3082,5.3082,5.3082,5.3082,5.3082,5.3082,5.3082,5.3082,5.3082,5.3082,5.3082,5.3082,5.3082,5.3082,5.3082,5.3082,5.3082,5.3082,5.3082,5.3082,5.3082,5.2791,5.2114,5.1215,4.9536,4.7039,4.4561,4.2686,4.1398,4.0344,3.982,3.2914,4.211,5.188,5.8752,6.158,6.2991,0.0,0.0,6.4151,0.0,6.3556,6.3485,6.3416,6.3462,6.3485,6.3416,6.3462,6.3508,6.3508,6.2648,6.1638,6.0626,6.0158,6.0085,6.048,6.1013,6.193,6.339,6.3508,6.3508,6.3508,6.3002,6.2703,6.2703,6.1213,5.9861,5.8725,5.7584,5.6479,5.5342,5.3812,5.2566,5.1605,5.097,5.0699,5.0699,5.0699,5.0699,5.0699,5.0699,5.0699,5.0699,5.0754,5.0772,5.0864,5.1689,5.1982,5.2092,5.2825,5.3082,5.3082,5.3082,5.3082,5.3082,5.3082,5.3082,5.3082,5.3082,5.3082,5.3082,5.3082,5.3082,5.3082,5.3082,5.3082,5.3082,5.3082,5.3082,5.3082,5.3082,5.3082,5.3082,5.3082,5.3082,5.3082,5.3082,5.3082,5.3082,5.3082,5.3082,5.3082,5.3082,5.3082,5.3082,5.3082,5.3082,5.3082,5.3082,5.3082,5.3082,5.3082,5.3082,5.3064,5.2927,5.1857,5.0106,4.7672,4.5186,4.311,4.1445,3.9922,3.9207,3.7145,4.531,5.2896,5.9339,6.1643,6.273,6.4319,6.4269,6.3866,6.3913,6.37,6.3508,6.3508,6.3508,6.3508,6.3508,6.3508,6.3508,6.3508,6.26,6.1467,6.0063,5.9984,5.9876,5.9499,6.0495,6.1558,6.2565,6.2423,6.2141,6.1857,6.1357,6.1039,6.1016,6.0122,5.9225,5.848,5.7446,5.5999,5.4122,5.2729,5.172,5.1025,5.0563,5.0479,5.0699,5.0699,5.0699,5.0699,5.0699,5.0699,5.0699,5.0699,5.0699,5.079,5.1615,5.1909,5.2019,5.2807,5.3082,5.3082,5.3082,5.3082,5.3082,5.3082,5.3082,5.3163,5.3508,5.359,5.3671,5.4024,5.4106,5.4024,5.3671,5.359,5.3508,5.3163,5.3082,5.3082,5.3082,5.3082,5.3082,5.3082,5.3082,5.3082,5.3082,5.3082,5.3082,5.3082,5.3082,5.3082,5.3082,5.3082,5.3082,5.3082,5.3082,5.3082,5.3082,5.3082,5.3082,5.3082,5.3082,5.2964,5.2654,5.2463,5.1165,4.8802,4.6326,4.404,4.1962,4.0004,3.91,3.972,4.6076,5.1522,5.7783,6.0089,6.1371,6.3386,6.3476,6.3305,6.3962,6.3794,6.3508,6.3508,6.3508,6.3508,6.3508,6.3508,6.3508,6.3508,6.2623,6.1419,5.9962,5.99,5.9729,5.9047,6.0076,6.1137,6.1946,6.1434,6.0802,6.0121,5.9534,5.9266,5.9337,5.8962,5.8809,5.8764,5.7518,5.5715,5.3357,5.2032,5.1089,5.0501,5.0212,5.0259,5.0552,5.0644,5.0699,5.0699,5.0699,5.0699,5.0699,5.0699,5.0699,5.079,5.1615,5.1909,5.2019,5.2807,5.3082,5.3082,5.3082,5.3082,5.3082,5.3082,5.3191,5.3427,5.388,5.4097,5.4314,5.4774,5.4909,5.4747,5.4151,5.3989,5.3826,5.3218,5.3082,5.3082,5.3082,5.3082,5.3082,5.3082,5.3082,5.3082,5.3082,5.3082,5.3082,5.3082,5.3082,5.3082,5.3082,5.3082,5.3082,5.3082,5.3082,5.3082,5.3082,5.3082,5.3082,5.3082,5.3082,5.2773,5.2079,5.2153,5.1185,4.9147,4.6651,4.431,4.212,3.9993,3.8993,3.7675,4.2669,4.7796,5.2995,5.6026,5.825,6.0269,6.1442,6.2361,6.3349,6.3532,6.3508,6.3508,6.3508,6.3508,6.3508,6.3508,6.3508,6.3508,6.2576,6.1493,6.0383,5.9453,5.9026,5.942,5.96,6.033,6.1877,6.1083,6.0097,5.9036,5.8124,5.7816,5.8263,5.8246,5.8948,6.0364,5.8352,5.6356,5.4414,5.2748,5.144,5.0501,5.0212,5.0112,5.0149,5.0534,5.0699,5.0699,5.0699,5.0699,5.0699,5.0699,5.0699,5.079,5.1615,5.1909,5.2019,5.2807,5.3082,5.3082,5.3082,5.3082,5.3082,5.3082,5.3508,5.3961,5.3989,5.4422,5.4855,5.4882,5.4909,5.4747,5.4151,5.3989,5.3826,5.3218,5.3082,5.3082,5.3082,5.3082,5.3082,5.3082,5.3082,5.3082,5.3082,5.3082,5.3082,5.3082,5.3082,5.3082,5.3082,5.3082,5.3082,5.3082,5.3082,5.3082,5.3082,5.3082,5.3082,5.3082,5.3082,5.2581,5.1458,5.0286,4.9096,4.7892,4.5401,4.3275,4.1503,3.96,3.8729,3.465,3.9147,4.4123,4.922,5.2414,5.5272,5.9019,6.0469,6.1603,6.359,6.3746,6.3508,6.3508,6.3508,6.3508,6.3508,6.3508,6.3508,6.3508,6.2888,6.2002,6.0942,6.0832,6.0501,5.9648,6.0207,6.0741,6.1006,6.0109,5.8951,5.7552,5.6881,5.6466,5.6279,5.6904,5.7656,5.8579,5.7147,5.5461,5.3508,5.1567,5.0293,4.961,4.9678,4.9709,4.9746,5.0406,5.0699,5.0699,5.0699,5.0699,5.0717,5.0974,5.1092,5.1175,5.1982,5.2293,5.2367,5.2898,5.3082,5.3082,5.3082,5.3082,5.3163,5.3563,5.3826,5.4151,5.489,5.524,5.5483,5.5886,5.5993,5.5832,5.5213,5.4828,5.453,5.4295,5.3644,5.3082,5.3082,5.3082,5.3082,5.3082,5.3082,5.3082,5.3082,5.3082,5.3082,5.3082,5.3082,5.3082,5.3082,5.3082,5.3082,5.3082,5.3082,5.3082,5.3082,5.3082,5.3082,5.3082,5.3082,5.2554,5.143,5.0193,4.8601,4.6643,4.414,4.2248,4.0828,3.9561,3.8876,3.1912,3.5573,3.9771,4.4182,4.7554,5.0965,5.5366,5.7583,5.9533,6.2411,6.3009,6.3095,6.3439,6.3508,6.3508,6.3508,6.3508,6.3508,6.3508,6.3199,6.2698,6.2002,6.2106,6.1749,6.0515,6.09,6.1027,6.0523,5.9566,0.0,5.7006,5.6186,5.548,5.4981,5.6235,5.6888,5.6744,5.5838,5.442,5.2447,5.0359,4.9175,4.8842,4.9306,4.9496,4.9551,5.0332,5.0699,5.0699,5.0699,5.0699,5.0735,5.1147,5.1312,5.1403,5.2202,5.2495,5.255,5.2953,5.3082,5.3082,5.3082,5.3082,5.3191,5.3826,5.4151,5.4503,5.5429,5.5859,5.61,5.6502,5.6448,5.6207,5.5805,5.5267,5.4909,5.4909,5.4106,5.3399,5.3399,5.3236,5.3082,5.3082,5.3082,5.3082,5.3082,5.3082,5.3082,5.3082,5.3082,5.3082,5.3082,5.3082,5.3082,5.3082,5.3082,5.3082,5.3082,5.3082,5.3082,5.3082,5.3082,5.2554,5.143,5.0193,4.8406,4.5996,4.3531,4.1704,4.0497,3.9458,3.8876,0.0,0.0,0.0,3.77,4.1373,4.526,4.9132,5.2633,5.609,5.9718,6.1235,6.2269,6.3302,6.3486,6.3462,6.3462,6.3485,6.3508,6.3508,6.3508,6.3508,6.3508,6.3025,6.252,6.2062,6.1511,6.1028,6.0523,5.9566,5.8534,5.7451,5.5953,5.491,5.4458,5.6307,5.6634,5.5173,5.4613,5.3351,5.1338,4.9279,4.8311,4.8329,4.9129,4.9496,4.9551,5.0332,5.0699,5.0699,5.0699,5.0699,5.0735,5.1165,5.133,5.1422,5.222,5.2513,5.2568,5.2953,5.3082,5.3082,5.3082,5.3082,5.3236,5.3853,5.4449,5.5017,5.5563,5.6154,5.6609,5.6609,5.6181,5.5725,5.5725,5.5321,5.4963,5.4963,5.4449,5.4016,5.3989,5.3508,5.3082,5.3082,5.3082,5.3082,5.3082,5.3082,5.3082,5.3082,5.3082,5.3082,5.3082,5.3082,5.3082,5.3082,5.3082,5.3082,5.3082,5.3082,5.3082,5.3082,5.3082,5.2554,5.143,5.0165,4.8356,4.5996,4.3576,4.1761,4.0569,3.9282,3.8731,2.6145,0.0,0.0,0.0,0.0,0.0,4.4414,4.8612,5.2967,5.8125,6.0042,6.1347,6.3152,6.2917,6.2406,6.2406,6.3026,6.3508,6.3508,6.3508,6.3508,6.3508,6.3025,6.252,6.2062,6.1511,6.1028,0.0,5.9589,5.8372,5.696,5.4438,5.3144,5.3425,5.4652,5.4915,5.4125,5.3586,5.2483,5.0798,4.9107,4.8311,4.8329,4.9129,4.9496,4.9551,5.0332,5.0699,5.0699,5.0699,5.0699,5.0754,5.1469,5.1744,5.1835,5.2623,5.2917,5.2935,5.3045,5.3082,5.3082,5.3082,5.3082,5.3272,5.4341,5.4774,5.5098,5.6073,5.6475,5.6609,5.6609,5.6475,5.6341,5.6341,5.6234,5.6127,5.6127,5.5367,5.453,5.407,5.3508,5.3082,5.3082,5.3082,5.3082,5.3082,5.3082,5.3082,5.3082,5.3082,5.3082,5.3082,5.3082,5.3082,5.3082,5.3082,5.3082,5.3082,5.3082,5.3082,5.3082,5.3082,5.2554,5.143,5.0217,4.8406,4.5996,4.3531,4.1718,4.0497,3.9282,3.8945,0.0,0.0,0.0,0.0,0.0,0.0,4.0374,4.4565,4.9092,5.4633,5.6835,5.8466,6.0831,6.0633,6.0064,5.9834,6.0615,6.1648,6.2728,6.2865,6.2865,6.2865,6.2613,6.2199,6.1717,6.1373,6.1028,6.0523,5.9566,5.8049,5.5883,5.3272,5.1871,5.2008,5.2768,5.2936,5.2398,5.2291,5.1566,5.0285,4.8953,4.8311,4.8329,4.9129,4.9496,4.9551,5.0332,5.0699,5.0699,5.0699,5.0699,5.0754,5.1395,5.1652,5.1744,5.255,5.2843,5.2862,5.3027,5.3082,5.3082,5.3082,5.3291,5.3644,5.4612,5.5071,5.5402,5.6341,5.6609,5.6609,5.6609,5.6609,5.6609,5.6609,5.6609,5.6609,5.6609,5.5717,5.4801,5.4449,5.3671,5.3082,5.3082,5.3082,5.3082,5.3082,5.3082,5.3082,5.3082,5.3082,5.3082,5.3082,5.3082,5.3082,5.3082,5.3082,5.3082,5.3082,5.3082,5.3082,5.3082,5.3082,5.2554,5.143,5.0193,4.7937,4.4654,4.3107,4.1446,3.9733,3.9021,3.8942,2.8313,2.8427,0.0,0.0,0.0,0.0,3.6757,4.0527,4.4804,4.9975,5.2366,5.4307,5.6924,5.7006,5.6504,5.6063,5.6869,5.848,6.1281,6.1763,6.1878,6.1993,6.1947,6.1717,6.1258,6.1097,6.0845,6.0364,5.92,5.7261,5.4393,5.2266,5.0935,5.053,5.093,5.0935,5.053,5.0935,5.0711,4.9795,4.878,4.8311,4.8329,4.9129,4.9496,4.9551,5.0332,5.0699,5.0699,5.0699,5.0699,5.0735,5.1147,5.1312,5.1403,5.2202,5.2495,5.2577,5.3035,5.3209,5.3191,5.3272,5.3644,5.4206,5.4801,5.5321,5.5832,5.6421,5.6609,5.6609,5.6609,5.6609,5.6609,5.6609,5.6609,5.6609,5.6609,5.5751,5.499,5.499,5.397,5.3082,5.3082,5.3082,5.3082,5.3082,5.3082,5.3082,5.3082,5.3082,5.3082,5.3082,5.3082,5.3082,5.3082,5.3082,5.3082,5.3082,5.3082,5.3082,5.3082,5.3082,5.2554,5.143,4.9899,4.7021,4.2787,4.2424,4.1072,3.8809,3.8809,3.8942,2.9958,2.9541,2.9064,0.0,0.0,0.0,0.0,3.6799,4.1164,4.6015,4.8146,4.9938,5.2615,5.2164,5.1436,5.1589,5.2615,5.4827,5.8985,6.0293,6.1097,6.1901,6.1625,6.1304,6.1212,6.0479,5.9794,5.9337,5.6843,5.4583,5.276,5.1071,5.0138,5.0029,5.0138,5.0138,5.0029,5.0138,4.9869,4.9249,4.8607,4.8311,4.8329,4.9129,4.9496,4.9551,5.0332,5.0699,5.0699,5.0699,5.0699,5.0735,5.1147,5.1312,5.1403,5.2202,5.2495,5.2631,5.3515,5.3826,5.3907,5.4395,5.4639,5.4828,5.5375,5.5617,5.5832,5.6421,5.6609,5.6609,5.6609,5.6609,5.6609,5.6609,5.6609,5.6609,5.6609,5.6047,5.5536,5.5536,5.4222,5.3082,5.3082,5.3082,5.3082,5.3082,5.3082,5.3082,5.3082,5.3082,5.3082,5.3082,5.3082,5.3082,5.3082,5.3082,5.3082,5.3082,5.3082,5.3082,5.3082,5.3082,5.2554,5.143,4.8306,4.539,4.2802,4.1774,4.065,3.9412,3.9412,3.957,3.2963,3.2051,3.1018,3.0287,0.0,0.0,0.0,0.0,3.8853,4.2537,4.4325,4.5829,4.783,4.7368,4.664,4.6518,4.7777,4.98,5.2786,5.6553,5.9467,6.0707,6.0845,6.0753,6.0478,5.9772,5.8626,5.689,5.4373,5.2363,5.1114,4.9795,4.9101,4.912,4.9101,4.9101,4.912,4.9101,4.8978,4.8706,4.8434,4.8311,4.8329,4.9129,4.9496,4.9551,5.0332,5.0699,5.0699,5.0699,5.0699,5.0717,5.0919,5.0992,5.1084,5.1909,5.2389,5.2776,5.3684,5.4206,5.4503,5.4801,5.5071,5.5348,5.5617,5.5912,5.6207,5.6502,5.6609,5.6609,5.6609,5.6609,5.6609,5.6609,5.6609,5.6609,5.6609,5.6127,5.5617,5.5348,5.4349,5.3535,5.3535,5.3318,5.3082,5.3082,5.3082,5.3082,5.3082,5.3082,5.3082,5.3082,5.3082,5.3082,5.3082,5.3082,5.3082,5.3082,5.3082,5.3082,5.3082,5.3302,5.266,5.1072,4.8078,4.5491,4.3314,4.2054,4.08,3.9599,3.9599,3.9746,0.0,0.0,0.0,0.0,0.0,3.2744,0.0,0.0,0.0,0.0,4.0878,4.1897,4.3088,4.2667,4.2001,4.1506,4.2817,4.4423,4.5962,5.1084,5.5596,5.8064,5.8973,5.9314,5.9061,5.8458,5.6872,5.4068,5.1865,5.0339,4.9549,4.8737,4.8311,4.8311,4.8311,4.8311,4.8311,4.8311,4.8311,4.8311,4.8311,4.8311,4.8329,4.9129,4.9496,4.9551,5.0332,5.0699,5.0699,5.0699,5.0699,5.0699,5.0772,5.0809,5.0927,5.1858,5.2498,5.3062,5.3998,5.4666,5.5071,5.5206,5.551,5.5886,5.5886,5.6207,5.6609,5.6609,5.6609,5.6609,5.6609,5.6609,5.6609,5.6609,5.6502,5.6421,5.6421,5.5966,5.5402,5.499,5.4422,5.3961,5.3853,5.3427,5.3082,5.3082,5.3082,5.3082,5.3082,5.3082,5.3082,5.3082,5.3082,5.3082,5.3082,5.3082,5.3082,5.3082,5.3082,5.3082,5.3082,5.3256,5.251,5.0737,4.8334,4.6,4.3797,4.2523,4.1174,3.9786,3.9786,3.9893,0.0,0.0,0.0,0.0,3.5372,0.0,0.0,0.0,0.0,0.0,0.0,0.0,3.8892,0.0,0.0,3.7161,3.8071,3.9528,4.1536,4.34,4.677,5.2781,5.4645,5.577,5.661,5.5465,5.3785,5.1643,4.957,4.8282,4.8127,4.8244,4.8311,4.8311,4.8311,4.8311,4.8311,4.8311,4.8311,4.8311,4.8311,4.8311,4.8329,4.9129,4.9496,4.9551,5.0332,5.0699,5.0699,5.0699,5.0699,5.0735,5.1084,5.1238,5.1401,5.2743,5.3254,5.3543,5.4988,5.5563,5.5698,5.6234,5.6448,5.6502,5.6502,5.6555,5.6609,5.6609,5.6609,5.6609,5.6609,5.6609,5.6609,5.6609,5.6181,5.5805,5.5805,5.5375,5.4963,5.4909,5.4422,5.3826,5.3291,5.3136,5.3082,5.3082,5.3082,5.3082,5.3082,5.3082,5.3082,5.3082,5.3082,5.3082,5.3082,5.3082,5.3082,5.3082,5.3082,5.3082,5.3082,5.2467,5.1652,5.0721,4.8309,4.6002,4.3796,4.2521,4.1362,4.0405,4.0405,4.0401,0.0,0.0,0.0,0.0,0.0,0.0,0.0,0.0,3.6453,0.0,0.0,0.0,0.0,0.0,0.0,0.0,3.5924,0.0,3.7505,3.8617,4.1677,4.7953,5.0324,5.1921,5.3211,5.2556,5.1236,4.9222,4.7213,4.6378,4.7049,4.7643,4.8047,4.8311,4.8311,4.8311,4.8311,4.8311,4.8311,4.8311,4.8311,4.8311,4.8329,4.9129,4.9496,4.9551,5.0332,5.0699,5.0699,5.0699,5.0699,5.0754,5.1395,5.1505,5.1456,5.2878,5.3623,5.4081,5.5276,5.5939,5.6261,5.6502,5.6609,5.6609,5.6609,5.6609,5.6609,5.6609,5.6609,5.6609,5.6609,5.6609,5.6609,5.6609,5.6127,5.5698,5.5698,5.5267,5.4801,5.4449,5.4178,5.3826,5.3191,5.3082,5.3082,5.3082,5.3082,5.3082,5.3082,5.3082,5.3082,5.3082,5.3082,5.3082,5.3082,5.3302,5.3448,5.3448,5.3668,5.3916,5.4145,5.3164,5.22,5.1354,4.8942,4.6481,4.4045,4.2791,4.1615,4.0512,4.0512,4.0512,4.7926,0.0,0.0,0.0,0.0,0.0,0.0,0.0,0.0,0.0,0.0,0.0,0.0,0.0,0.0,0.0,0.0,3.4544,3.4106,3.4528,0.0,0.0,0.0,0.0,4.9427,4.9318,4.8446,4.668,4.4788,4.4292,4.5613,4.6745,4.7552,4.7956,4.82,4.8311,4.8311,4.8311,4.8311,4.8311,4.8311,4.8311,4.8329,4.9129,4.9496,4.9551,5.0332,5.0699,5.0699,5.0699,5.0699,5.0772,5.1597,5.1831,5.1859,5.3305,5.4087,5.4607,5.5582,5.6234,5.6609,5.6609,5.6609,5.6609,5.6609,5.6609,5.6609,5.6609,5.6609,5.6609,5.6609,5.6609,5.6609,5.6609,5.602,5.5483,5.5483,5.4917,5.4287,5.3853,5.3744,5.3617,5.3182,5.3082,5.3082,5.3082,5.3082,5.3082,5.3082,5.3082,5.3082,5.3082,5.3082,5.3082,5.3082,5.3467,5.3732,5.3842,5.4145,5.4475,5.4896,5.3738,5.2691,5.1829,4.937,4.6822,4.4206,4.2991,4.1739,4.0512,4.0512,4.0512,0.0,0.0,0.0,4.4358,0.0,0.0,0.0,0.0,3.8484,0.0,0.0,0.0,0.0,0.0,0.0,0.0,0.0,0.0,0.0,0.0,0.0,0.0,0.0,0.0,4.5324,4.5514,4.5122,4.4011,4.2237,4.1907,4.3499,4.5467,4.6709,4.713,4.7882,4.8311,4.8311,4.8311,4.8311,4.8311,4.8311,4.8311,4.8329,4.9129,4.9496,4.9551,5.0332,5.0699,5.0699,5.0699,5.0699,5.0772,5.1597,5.2255,5.2913,5.4326,5.4863,5.5052,5.6181,5.6582,5.6609,5.6609,5.6609,5.6609,5.6609,5.6609,5.6609,5.6609,5.6609,5.6609,5.6609,5.6609,5.6609,5.6609,5.5725,5.4936,5.4936,5.3997,5.3136,5.3136,5.3136,5.3109,5.3082,5.3082,5.3082,5.3082,5.3082,5.3082,5.3082,5.3082,5.3082,5.3082,5.3082,5.3082,5.3082,5.3467,5.387,5.4255,5.431,5.4475,5.4896,5.3738,5.2691,5.1805,4.937,4.6822,4.428,4.3021,4.1739,4.0512,4.0512,4.0512,0.0,0.0,5.005,4.7969,0.0,0.0,0.0,0.0,0.0,0.0,0.0,0.0,0.0,0.0,0.0,0.0,0.0,0.0,0.0,0.0,0.0,0.0,0.0,0.0,0.0,4.1443,4.1599,4.0583,3.9608,3.9889,4.1797,4.3815,4.5467,4.6654,4.7479,4.8029,4.8311,4.8311,4.8311,4.8311,4.8311,4.8311,4.8329,4.9129,4.9496,4.9551,5.0332,5.0699,5.0699,5.0699,5.0699,5.0824,5.2028,5.2626,5.2958,5.4372,5.5125,5.5536,5.6314,5.6609,5.6609,5.6609,5.6609,5.6609,5.6609,5.6609,5.6609,5.6609,5.6609,5.6609,5.6609,5.6609,5.6609,5.6609,5.5725,5.4909,5.4909,5.3943,5.3082,5.3082,5.3082,5.3082,5.3082,5.3329,5.3503,5.3503,5.3723,5.3888,5.3888,5.3888,5.3888,5.3888,5.3888,5.3888,5.3888,5.4255,5.4676,5.507,5.5098,5.5153,5.5289,5.4132,5.2954,5.1829,4.937,4.6822,4.4236,4.2991,4.1739,4.0512,4.0512,4.0512,5.8536,5.6486,0.0,5.2048,4.9744,0.0,4.5455,0.0,0.0,0.0,0.0,0.0,0.0,0.0,0.0,0.0,0.0,0.0,0.0,2.8246,0.0,0.0,0.0,0.0,0.0,3.7954,3.8382,3.7706,3.722,3.7833,3.9889,4.2072,4.4054,4.5797,4.7063,4.7882,4.8311,4.8311,4.8311,4.8311,4.8311,4.8359,4.8524,4.9203,4.9588,4.9746,5.0406,5.0699,5.0699,5.0699,5.081,5.1111,5.2318,5.3032,5.3568,5.4748,5.5536,5.6073,5.6475,5.6609,5.6609,5.6609,5.6609,5.6609,5.6609,5.6609,5.6609,5.6609,5.6609,5.6609,5.6609,5.6609,5.6609,5.6609,5.5886,5.516,5.516,5.4431,5.3753,5.3753,5.3674,5.3638,5.3638,5.3898,5.4035,5.3732,5.4035,5.431,5.431,5.431,5.431,5.431,5.431,5.4365,5.4511,5.4759,5.5089,5.5464,5.5491,5.5491,5.5491,5.4548,5.3519,5.2511,5.0042,4.7502,4.4922,4.3427,4.1966,4.0512,4.0512,4.0512]}]]